<?xml version="1.0" encoding="UTF-8"?>
<gpx version="1.1" creator="Garmin Connect"
  xsi:schemaLocation="http://www.topografix.com/GPX/1/1 http://www.topografix.com/GPX/1/1/gpx.xsd http://www.garmin.com/xmlschemas/GpxExtensions/v3 http://www.garmin.com/xmlschemas/GpxExtensionsv3.xsd http://www.garmin.com/xmlschemas/TrackPointExtension/v1 http://www.garmin.com/xmlschemas/TrackPointExtensionv1.xsd"
  xmlns="http://www.topografix.com/GPX/1/1"
  xmlns:gpxtpx="http://www.garmin.com/xmlschemas/TrackPointExtension/v1"
  xmlns:gpxx="http://www.garmin.com/xmlschemas/GpxExtensions/v3" xmlns:xsi="http://www.w3.org/2001/XMLSchema-instance">
  <metadata>
    <link href="connect.garmin.com">
      <text>Garmin Connect</text>
    </link>
    <time>2011-09-23T13:12:51.000Z</time>
  </metadata>
  <trk>
    <name>Bulle-Bovatey</name>
    <trkseg>
      <trkpt lon="7.056793933734298" lat="46.613831939175725">
        <ele>769.2000122070312</ele>
        <time>2011-09-23T13:13:42.000Z</time>
      </trkpt>
      <trkpt lon="7.055782992392778" lat="46.61415992304683">
        <ele>769.4000244140625</ele>
        <time>2011-09-23T13:13:46.000Z</time>
      </trkpt>
      <trkpt lon="7.056655967608094" lat="46.61384593695402">
        <ele>769.4000244140625</ele>
        <time>2011-09-23T13:14:13.000Z</time>
      </trkpt>
      <trkpt lon="7.056630989536643" lat="46.61385498940945">
        <ele>769.4000244140625</ele>
        <time>2011-09-23T13:14:14.000Z</time>
      </trkpt>
      <trkpt lon="7.057076990604401" lat="46.614369973540306">
        <ele>770.2000122070312</ele>
        <time>2011-09-23T13:14:21.000Z</time>
      </trkpt>
      <trkpt lon="7.056512972339988" lat="46.614799965173006">
        <ele>771.4000244140625</ele>
        <time>2011-09-23T13:14:29.000Z</time>
      </trkpt>
      <trkpt lon="7.05639093182981" lat="46.61484598182142">
        <ele>771.7999877929688</ele>
        <time>2011-09-23T13:14:32.000Z</time>
      </trkpt>
      <trkpt lon="7.055953983217478" lat="46.614428982138634">
        <ele>772.2000122070312</ele>
        <time>2011-09-23T13:14:36.000Z</time>
      </trkpt>
      <trkpt lon="7.056079963222146" lat="46.614602990448475">
        <ele>772.4000244140625</ele>
        <time>2011-09-23T13:14:40.000Z</time>
      </trkpt>
      <trkpt lon="7.056183982640505" lat="46.61474598571658">
        <ele>772.2000122070312</ele>
        <time>2011-09-23T13:14:43.000Z</time>
      </trkpt>
      <trkpt lon="7.0564099587500095" lat="46.614838941022754">
        <ele>772.0</ele>
        <time>2011-09-23T13:14:47.000Z</time>
      </trkpt>
      <trkpt lon="7.056525964289904" lat="46.6147949360311">
        <ele>772.0</ele>
        <time>2011-09-23T13:14:49.000Z</time>
      </trkpt>
      <trkpt lon="7.057037930935621" lat="46.61441599018872">
        <ele>771.7999877929688</ele>
        <time>2011-09-23T13:14:58.000Z</time>
      </trkpt>
      <trkpt lon="7.057363986968994" lat="46.61401893943548">
        <ele>771.7999877929688</ele>
        <time>2011-09-23T13:15:06.000Z</time>
      </trkpt>
      <trkpt lon="7.057583928108215" lat="46.61372993141413">
        <ele>771.7999877929688</ele>
        <time>2011-09-23T13:15:12.000Z</time>
      </trkpt>
      <trkpt lon="7.057658946141601" lat="46.61363094113767">
        <ele>771.7999877929688</ele>
        <time>2011-09-23T13:15:14.000Z</time>
      </trkpt>
      <trkpt lon="7.057880982756615" lat="46.613357942551374">
        <ele>770.7999877929688</ele>
        <time>2011-09-23T13:15:20.000Z</time>
      </trkpt>
      <trkpt lon="7.057994976639748" lat="46.61324394866824">
        <ele>770.2000122070312</ele>
        <time>2011-09-23T13:15:27.000Z</time>
      </trkpt>
      <trkpt lon="7.058098996058106" lat="46.613143952563405">
        <ele>769.4000244140625</ele>
        <time>2011-09-23T13:15:32.000Z</time>
      </trkpt>
      <trkpt lon="7.058268981054425" lat="46.61299793981016">
        <ele>767.5999755859375</ele>
        <time>2011-09-23T13:15:36.000Z</time>
      </trkpt>
      <trkpt lon="7.05843192525208" lat="46.61284999921918">
        <ele>766.2000122070312</ele>
        <time>2011-09-23T13:15:40.000Z</time>
      </trkpt>
      <trkpt lon="7.058478947728872" lat="46.61276391707361">
        <ele>766.0</ele>
        <time>2011-09-23T13:15:44.000Z</time>
      </trkpt>
      <trkpt lon="7.058522952720523" lat="46.612758971750736">
        <ele>765.7999877929688</ele>
        <time>2011-09-23T13:15:47.000Z</time>
      </trkpt>
      <trkpt lon="7.059443956241012" lat="46.612522937357426">
        <ele>765.0</ele>
        <time>2011-09-23T13:15:54.000Z</time>
      </trkpt>
      <trkpt lon="7.060018954798579" lat="46.61244699731469">
        <ele>763.7999877929688</ele>
        <time>2011-09-23T13:15:59.000Z</time>
      </trkpt>
      <trkpt lon="7.060616919770837" lat="46.6123859770596">
        <ele>763.4000244140625</ele>
        <time>2011-09-23T13:16:04.000Z</time>
      </trkpt>
      <trkpt lon="7.060979939997196" lat="46.61233996041119">
        <ele>763.4000244140625</ele>
        <time>2011-09-23T13:16:08.000Z</time>
      </trkpt>
      <trkpt lon="7.061102986335754" lat="46.612216997891665">
        <ele>763.4000244140625</ele>
        <time>2011-09-23T13:16:12.000Z</time>
      </trkpt>
      <trkpt lon="7.061389982700348" lat="46.61192991770804">
        <ele>763.2000122070312</ele>
        <time>2011-09-23T13:16:19.000Z</time>
      </trkpt>
      <trkpt lon="7.061488972976804" lat="46.61183092743158">
        <ele>762.5999755859375</ele>
        <time>2011-09-23T13:16:25.000Z</time>
      </trkpt>
      <trkpt lon="7.0615149568766356" lat="46.61180494353175">
        <ele>762.5999755859375</ele>
        <time>2011-09-23T13:16:27.000Z</time>
      </trkpt>
      <trkpt lon="7.061684941872954" lat="46.611809972673655">
        <ele>762.4000244140625</ele>
        <time>2011-09-23T13:16:31.000Z</time>
      </trkpt>
      <trkpt lon="7.0618789829313755" lat="46.61186194047332">
        <ele>762.7999877929688</ele>
        <time>2011-09-23T13:16:35.000Z</time>
      </trkpt>
      <trkpt lon="7.062206966802478" lat="46.61182296462357">
        <ele>761.4000244140625</ele>
        <time>2011-09-23T13:16:39.000Z</time>
      </trkpt>
      <trkpt lon="7.062980951741338" lat="46.61172095686197">
        <ele>759.7999877929688</ele>
        <time>2011-09-23T13:16:47.000Z</time>
      </trkpt>
      <trkpt lon="7.063340954482555" lat="46.61167192272842">
        <ele>759.2000122070312</ele>
        <time>2011-09-23T13:16:51.000Z</time>
      </trkpt>
      <trkpt lon="7.063417984172702" lat="46.611659936606884">
        <ele>758.7999877929688</ele>
        <time>2011-09-23T13:16:52.000Z</time>
      </trkpt>
      <trkpt lon="7.063876977190375" lat="46.61159095354378">
        <ele>758.4000244140625</ele>
        <time>2011-09-23T13:16:59.000Z</time>
      </trkpt>
      <trkpt lon="7.06433798186481" lat="46.61157896742225">
        <ele>757.7999877929688</ele>
        <time>2011-09-23T13:17:06.000Z</time>
      </trkpt>
      <trkpt lon="7.064845925197005" lat="46.611513923853636">
        <ele>757.2000122070312</ele>
        <time>2011-09-23T13:17:13.000Z</time>
      </trkpt>
      <trkpt lon="7.065632985904813" lat="46.61144996993244">
        <ele>756.2000122070312</ele>
        <time>2011-09-23T13:17:22.000Z</time>
      </trkpt>
      <trkpt lon="7.066404959186912" lat="46.61139892414212">
        <ele>755.5999755859375</ele>
        <time>2011-09-23T13:17:30.000Z</time>
      </trkpt>
      <trkpt lon="7.066687932237983" lat="46.611385932192206">
        <ele>755.2000122070312</ele>
        <time>2011-09-23T13:17:33.000Z</time>
      </trkpt>
      <trkpt lon="7.06702396273613" lat="46.61130898632109">
        <ele>754.5999755859375</ele>
        <time>2011-09-23T13:17:37.000Z</time>
      </trkpt>
      <trkpt lon="7.067147931084037" lat="46.6112289391458">
        <ele>754.5999755859375</ele>
        <time>2011-09-23T13:17:39.000Z</time>
      </trkpt>
      <trkpt lon="7.067377930507064" lat="46.611190969124436">
        <ele>754.2000122070312</ele>
        <time>2011-09-23T13:17:42.000Z</time>
      </trkpt>
      <trkpt lon="7.067658975720406" lat="46.611037999391556">
        <ele>753.7999877929688</ele>
        <time>2011-09-23T13:17:45.000Z</time>
      </trkpt>
      <trkpt lon="7.06769292242825" lat="46.610733987763524">
        <ele>753.7999877929688</ele>
        <time>2011-09-23T13:17:50.000Z</time>
      </trkpt>
      <trkpt lon="7.067877994850278" lat="46.61077497527003">
        <ele>753.7999877929688</ele>
        <time>2011-09-23T13:17:53.000Z</time>
      </trkpt>
      <trkpt lon="7.067980924621224" lat="46.61072292365134">
        <ele>753.0</ele>
        <time>2011-09-23T13:17:55.000Z</time>
      </trkpt>
      <trkpt lon="7.068408988416195" lat="46.610413966700435">
        <ele>751.4000244140625</ele>
        <time>2011-09-23T13:18:03.000Z</time>
      </trkpt>
      <trkpt lon="7.068848954513669" lat="46.61010894924402">
        <ele>750.7999877929688</ele>
        <time>2011-09-23T13:18:10.000Z</time>
      </trkpt>
      <trkpt lon="7.069309959188104" lat="46.60974299535155">
        <ele>749.4000244140625</ele>
        <time>2011-09-23T13:18:17.000Z</time>
      </trkpt>
      <trkpt lon="7.069732993841171" lat="46.60941392183304">
        <ele>748.7999877929688</ele>
        <time>2011-09-23T13:18:23.000Z</time>
      </trkpt>
      <trkpt lon="7.070145970210433" lat="46.60904696211219">
        <ele>748.2000122070312</ele>
        <time>2011-09-23T13:18:30.000Z</time>
      </trkpt>
      <trkpt lon="7.070371946319938" lat="46.60892399959266">
        <ele>748.2000122070312</ele>
        <time>2011-09-23T13:18:34.000Z</time>
      </trkpt>
      <trkpt lon="7.070464985445142" lat="46.60896498709917">
        <ele>748.2000122070312</ele>
        <time>2011-09-23T13:18:36.000Z</time>
      </trkpt>
      <trkpt lon="7.070568921044469" lat="46.6090099979192">
        <ele>748.4000244140625</ele>
        <time>2011-09-23T13:18:38.000Z</time>
      </trkpt>
      <trkpt lon="7.070814929902554" lat="46.609082920476794">
        <ele>748.4000244140625</ele>
        <time>2011-09-23T13:18:42.000Z</time>
      </trkpt>
      <trkpt lon="7.071415996178985" lat="46.60907194018364">
        <ele>747.7999877929688</ele>
        <time>2011-09-23T13:18:49.000Z</time>
      </trkpt>
      <trkpt lon="7.071927962824702" lat="46.608998933807015">
        <ele>747.2000122070312</ele>
        <time>2011-09-23T13:18:54.000Z</time>
      </trkpt>
      <trkpt lon="7.072538919746876" lat="46.608757954090834">
        <ele>746.0</ele>
        <time>2011-09-23T13:19:00.000Z</time>
      </trkpt>
      <trkpt lon="7.072957931086421" lat="46.60859299823642">
        <ele>745.4000244140625</ele>
        <time>2011-09-23T13:19:04.000Z</time>
      </trkpt>
      <trkpt lon="7.073344923555851" lat="46.60849392414093">
        <ele>745.2000122070312</ele>
        <time>2011-09-23T13:19:08.000Z</time>
      </trkpt>
      <trkpt lon="7.074314961209893" lat="46.60840599797666">
        <ele>744.5999755859375</ele>
        <time>2011-09-23T13:19:17.000Z</time>
      </trkpt>
      <trkpt lon="7.074816953390837" lat="46.60834891721606">
        <ele>744.4000244140625</ele>
        <time>2011-09-23T13:19:22.000Z</time>
      </trkpt>
      <trkpt lon="7.075176956132054" lat="46.60835595801473">
        <ele>745.4000244140625</ele>
        <time>2011-09-23T13:19:26.000Z</time>
      </trkpt>
      <trkpt lon="7.0754749327898026" lat="46.6085059940815">
        <ele>746.7999877929688</ele>
        <time>2011-09-23T13:19:32.000Z</time>
      </trkpt>
      <trkpt lon="7.075559925287962" lat="46.608566930517554">
        <ele>747.4000244140625</ele>
        <time>2011-09-23T13:19:34.000Z</time>
      </trkpt>
      <trkpt lon="7.075711973011494" lat="46.60867899656296">
        <ele>748.0</ele>
        <time>2011-09-23T13:19:38.000Z</time>
      </trkpt>
      <trkpt lon="7.075952952727675" lat="46.6087649948895">
        <ele>749.0</ele>
        <time>2011-09-23T13:19:44.000Z</time>
      </trkpt>
      <trkpt lon="7.076083961874247" lat="46.6087649948895">
        <ele>750.2000122070312</ele>
        <time>2011-09-23T13:19:48.000Z</time>
      </trkpt>
      <trkpt lon="7.07630499266088" lat="46.60869098268449">
        <ele>751.7999877929688</ele>
        <time>2011-09-23T13:19:54.000Z</time>
      </trkpt>
      <trkpt lon="7.0764479879289865" lat="46.6086439602077">
        <ele>753.0</ele>
        <time>2011-09-23T13:19:58.000Z</time>
      </trkpt>
      <trkpt lon="7.076832968741655" lat="46.60864194855094">
        <ele>754.7999877929688</ele>
        <time>2011-09-23T13:20:04.000Z</time>
      </trkpt>
      <trkpt lon="7.077179979532957" lat="46.608692994341254">
        <ele>755.7999877929688</ele>
        <time>2011-09-23T13:20:10.000Z</time>
      </trkpt>
      <trkpt lon="7.0774089731276035" lat="46.60872291773558">
        <ele>756.7999877929688</ele>
        <time>2011-09-23T13:20:15.000Z</time>
      </trkpt>
      <trkpt lon="7.077604942023754" lat="46.608735993504524">
        <ele>757.4000244140625</ele>
        <time>2011-09-23T13:20:19.000Z</time>
      </trkpt>
      <trkpt lon="7.077988917008042" lat="46.608758959919214">
        <ele>758.2000122070312</ele>
        <time>2011-09-23T13:20:25.000Z</time>
      </trkpt>
      <trkpt lon="7.07825998775661" lat="46.608761977404356">
        <ele>759.0</ele>
        <time>2011-09-23T13:20:30.000Z</time>
      </trkpt>
      <trkpt lon="7.078557964414358" lat="46.60874898545444">
        <ele>759.7999877929688</ele>
        <time>2011-09-23T13:20:35.000Z</time>
      </trkpt>
      <trkpt lon="7.078788969665766" lat="46.60870095714927">
        <ele>760.2000122070312</ele>
        <time>2011-09-23T13:20:40.000Z</time>
      </trkpt>
      <trkpt lon="7.078788969665766" lat="46.60870095714927">
        <ele>760.2000122070312</ele>
        <time>2011-09-23T13:20:41.000Z</time>
      </trkpt>
      <trkpt lon="7.078999942168593" lat="46.60864295437932">
        <ele>760.4000244140625</ele>
        <time>2011-09-23T13:20:49.000Z</time>
      </trkpt>
      <trkpt lon="7.079113936051726" lat="46.608610935509205">
        <ele>760.7999877929688</ele>
        <time>2011-09-23T13:20:51.000Z</time>
      </trkpt>
      <trkpt lon="7.0792649779468775" lat="46.608585957437754">
        <ele>761.0</ele>
        <time>2011-09-23T13:20:53.000Z</time>
      </trkpt>
      <trkpt lon="7.079512998461723" lat="46.60859199240804">
        <ele>761.2000122070312</ele>
        <time>2011-09-23T13:20:56.000Z</time>
      </trkpt>
      <trkpt lon="7.07999998703599" lat="46.60873297601938">
        <ele>760.7999877929688</ele>
        <time>2011-09-23T13:21:02.000Z</time>
      </trkpt>
      <trkpt lon="7.080360995605588" lat="46.60876298323274">
        <ele>759.4000244140625</ele>
        <time>2011-09-23T13:21:06.000Z</time>
      </trkpt>
      <trkpt lon="7.080467948690057" lat="46.608758959919214">
        <ele>759.2000122070312</ele>
        <time>2011-09-23T13:21:07.000Z</time>
      </trkpt>
      <trkpt lon="7.080938927829266" lat="46.60874697379768">
        <ele>756.5999755859375</ele>
        <time>2011-09-23T13:21:11.000Z</time>
      </trkpt>
      <trkpt lon="7.081146966665983" lat="46.60874697379768">
        <ele>755.7999877929688</ele>
        <time>2011-09-23T13:21:13.000Z</time>
      </trkpt>
      <trkpt lon="7.081349976360798" lat="46.60874697379768">
        <ele>755.0</ele>
        <time>2011-09-23T13:21:15.000Z</time>
      </trkpt>
      <trkpt lon="7.081668991595507" lat="46.60870598629117">
        <ele>753.4000244140625</ele>
        <time>2011-09-23T13:21:19.000Z</time>
      </trkpt>
      <trkpt lon="7.08178298547864" lat="46.6086389310658">
        <ele>752.5999755859375</ele>
        <time>2011-09-23T13:21:21.000Z</time>
      </trkpt>
      <trkpt lon="7.081793965771794" lat="46.6084039863199">
        <ele>750.4000244140625</ele>
        <time>2011-09-23T13:21:25.000Z</time>
      </trkpt>
      <trkpt lon="7.08178591914475" lat="46.60817398689687">
        <ele>749.0</ele>
        <time>2011-09-23T13:21:28.000Z</time>
      </trkpt>
      <trkpt lon="7.081796983256936" lat="46.60802495665848">
        <ele>748.2000122070312</ele>
        <time>2011-09-23T13:21:30.000Z</time>
      </trkpt>
      <trkpt lon="7.081921957433224" lat="46.607705941423774">
        <ele>746.0</ele>
        <time>2011-09-23T13:21:35.000Z</time>
      </trkpt>
      <trkpt lon="7.082023965194821" lat="46.60758993588388">
        <ele>745.0</ele>
        <time>2011-09-23T13:21:37.000Z</time>
      </trkpt>
      <trkpt lon="7.082179952412844" lat="46.60747594200075">
        <ele>744.2000122070312</ele>
        <time>2011-09-23T13:21:39.000Z</time>
      </trkpt>
      <trkpt lon="7.082618996500969" lat="46.60733294673264">
        <ele>743.4000244140625</ele>
        <time>2011-09-23T13:21:43.000Z</time>
      </trkpt>
      <trkpt lon="7.083247974514961" lat="46.60717695951462">
        <ele>743.5999755859375</ele>
        <time>2011-09-23T13:21:49.000Z</time>
      </trkpt>
      <trkpt lon="7.083647958934307" lat="46.60701393149793">
        <ele>745.4000244140625</ele>
        <time>2011-09-23T13:21:54.000Z</time>
      </trkpt>
      <trkpt lon="7.083965968340635" lat="46.6069239936769">
        <ele>747.0</ele>
        <time>2011-09-23T13:21:59.000Z</time>
      </trkpt>
      <trkpt lon="7.084014918655157" lat="46.606911923736334">
        <ele>747.4000244140625</ele>
        <time>2011-09-23T13:22:00.000Z</time>
      </trkpt>
      <trkpt lon="7.084372993558645" lat="46.60686498507857">
        <ele>748.4000244140625</ele>
        <time>2011-09-23T13:22:07.000Z</time>
      </trkpt>
      <trkpt lon="7.0847569685429335" lat="46.60683992318809">
        <ele>748.4000244140625</ele>
        <time>2011-09-23T13:22:13.000Z</time>
      </trkpt>
      <trkpt lon="7.08483399823308" lat="46.60683698952198">
        <ele>748.5999755859375</ele>
        <time>2011-09-23T13:22:14.000Z</time>
      </trkpt>
      <trkpt lon="7.0850299671292305" lat="46.60683296620846">
        <ele>748.5999755859375</ele>
        <time>2011-09-23T13:22:17.000Z</time>
      </trkpt>
      <trkpt lon="7.085258960723877" lat="46.60677596926689">
        <ele>748.2000122070312</ele>
        <time>2011-09-23T13:22:21.000Z</time>
      </trkpt>
      <trkpt lon="7.08537295460701" lat="46.60672299563885">
        <ele>748.0</ele>
        <time>2011-09-23T13:22:23.000Z</time>
      </trkpt>
      <trkpt lon="7.085772939026356" lat="46.60647396929562">
        <ele>747.2000122070312</ele>
        <time>2011-09-23T13:22:30.000Z</time>
      </trkpt>
      <trkpt lon="7.086262945085764" lat="46.60615193657577">
        <ele>745.2000122070312</ele>
        <time>2011-09-23T13:22:37.000Z</time>
      </trkpt>
      <trkpt lon="7.086336957290769" lat="46.60610298626125">
        <ele>744.7999877929688</ele>
        <time>2011-09-23T13:22:38.000Z</time>
      </trkpt>
      <trkpt lon="7.086636945605278" lat="46.605903999879956">
        <ele>743.4000244140625</ele>
        <time>2011-09-23T13:22:42.000Z</time>
      </trkpt>
      <trkpt lon="7.086825957521796" lat="46.605820935219526">
        <ele>742.7999877929688</ele>
        <time>2011-09-23T13:22:44.000Z</time>
      </trkpt>
      <trkpt lon="7.087240945547819" lat="46.60574298352003">
        <ele>741.5999755859375</ele>
        <time>2011-09-23T13:22:48.000Z</time>
      </trkpt>
      <trkpt lon="7.087706979364157" lat="46.60571398213506">
        <ele>740.7999877929688</ele>
        <time>2011-09-23T13:22:52.000Z</time>
      </trkpt>
      <trkpt lon="7.088141916319728" lat="46.6056099627167">
        <ele>740.2000122070312</ele>
        <time>2011-09-23T13:22:56.000Z</time>
      </trkpt>
      <trkpt lon="7.088471995666623" lat="46.60541399382055">
        <ele>740.2000122070312</ele>
        <time>2011-09-23T13:23:00.000Z</time>
      </trkpt>
      <trkpt lon="7.088797967880964" lat="46.60509095527232">
        <ele>742.2000122070312</ele>
        <time>2011-09-23T13:23:06.000Z</time>
      </trkpt>
      <trkpt lon="7.089003995060921" lat="46.60484092310071">
        <ele>742.5999755859375</ele>
        <time>2011-09-23T13:23:11.000Z</time>
      </trkpt>
      <trkpt lon="7.08904598839581" lat="46.60478996112943">
        <ele>742.4000244140625</ele>
        <time>2011-09-23T13:23:12.000Z</time>
      </trkpt>
      <trkpt lon="7.089165933430195" lat="46.60463196225464">
        <ele>741.7999877929688</ele>
        <time>2011-09-23T13:23:15.000Z</time>
      </trkpt>
      <trkpt lon="7.089456953108311" lat="46.60441294312477">
        <ele>740.4000244140625</ele>
        <time>2011-09-23T13:23:20.000Z</time>
      </trkpt>
      <trkpt lon="7.089492995291948" lat="46.60428092814982">
        <ele>739.2000122070312</ele>
        <time>2011-09-23T13:23:23.000Z</time>
      </trkpt>
      <trkpt lon="7.089384952560067" lat="46.60414597950876">
        <ele>738.0</ele>
        <time>2011-09-23T13:23:26.000Z</time>
      </trkpt>
      <trkpt lon="7.089312952011824" lat="46.60406199283898">
        <ele>737.0</ele>
        <time>2011-09-23T13:23:28.000Z</time>
      </trkpt>
      <trkpt lon="7.089237933978438" lat="46.60397691652179">
        <ele>736.4000244140625</ele>
        <time>2011-09-23T13:23:30.000Z</time>
      </trkpt>
      <trkpt lon="7.089105919003487" lat="46.60375898703933">
        <ele>734.5999755859375</ele>
        <time>2011-09-23T13:23:35.000Z</time>
      </trkpt>
      <trkpt lon="7.089155958965421" lat="46.6035979706794">
        <ele>733.2000122070312</ele>
        <time>2011-09-23T13:23:39.000Z</time>
      </trkpt>
      <trkpt lon="7.089237933978438" lat="46.60352798178792">
        <ele>732.5999755859375</ele>
        <time>2011-09-23T13:23:41.000Z</time>
      </trkpt>
      <trkpt lon="7.08951897919178" lat="46.60336998291314">
        <ele>730.5999755859375</ele>
        <time>2011-09-23T13:23:46.000Z</time>
      </trkpt>
      <trkpt lon="7.089782925322652" lat="46.60327392630279">
        <ele>729.0</ele>
        <time>2011-09-23T13:23:50.000Z</time>
      </trkpt>
      <trkpt lon="7.090336969122291" lat="46.60320293158293">
        <ele>726.0</ele>
        <time>2011-09-23T13:23:57.000Z</time>
      </trkpt>
      <trkpt lon="7.090394971892238" lat="46.603172924369574">
        <ele>725.5999755859375</ele>
        <time>2011-09-23T13:23:58.000Z</time>
      </trkpt>
      <trkpt lon="7.09076595492661" lat="46.60303998738527">
        <ele>723.5999755859375</ele>
        <time>2011-09-23T13:24:03.000Z</time>
      </trkpt>
      <trkpt lon="7.090833932161331" lat="46.60305893048644">
        <ele>723.2000122070312</ele>
        <time>2011-09-23T13:24:04.000Z</time>
      </trkpt>
      <trkpt lon="7.091376995667815" lat="46.603175941854715">
        <ele>721.0</ele>
        <time>2011-09-23T13:24:10.000Z</time>
      </trkpt>
      <trkpt lon="7.0915029756724834" lat="46.60318692214787">
        <ele>720.5999755859375</ele>
        <time>2011-09-23T13:24:11.000Z</time>
      </trkpt>
      <trkpt lon="7.091846968978643" lat="46.60310293547809">
        <ele>717.7999877929688</ele>
        <time>2011-09-23T13:24:15.000Z</time>
      </trkpt>
      <trkpt lon="7.091921987012029" lat="46.60305297933519">
        <ele>717.5999755859375</ele>
        <time>2011-09-23T13:24:16.000Z</time>
      </trkpt>
      <trkpt lon="7.092230943962932" lat="46.60273496992886">
        <ele>715.4000244140625</ele>
        <time>2011-09-23T13:24:21.000Z</time>
      </trkpt>
      <trkpt lon="7.092427918687463" lat="46.60249197855592">
        <ele>713.5999755859375</ele>
        <time>2011-09-23T13:24:25.000Z</time>
      </trkpt>
      <trkpt lon="7.092560939490795" lat="46.60239399410784">
        <ele>712.7999877929688</ele>
        <time>2011-09-23T13:24:28.000Z</time>
      </trkpt>
      <trkpt lon="7.092629922553897" lat="46.60235099494457">
        <ele>712.2000122070312</ele>
        <time>2011-09-23T13:24:32.000Z</time>
      </trkpt>
      <trkpt lon="7.092711981385946" lat="46.60236197523773">
        <ele>711.7999877929688</ele>
        <time>2011-09-23T13:24:44.000Z</time>
      </trkpt>
      <trkpt lon="7.092754980549216" lat="46.60238896496594">
        <ele>712.0</ele>
        <time>2011-09-23T13:24:45.000Z</time>
      </trkpt>
      <trkpt lon="7.093210956081748" lat="46.602702951058745">
        <ele>711.7999877929688</ele>
        <time>2011-09-23T13:24:53.000Z</time>
      </trkpt>
      <trkpt lon="7.09394596517086" lat="46.60310192964971">
        <ele>711.4000244140625</ele>
        <time>2011-09-23T13:25:03.000Z</time>
      </trkpt>
      <trkpt lon="7.094280989840627" lat="46.60323394462466">
        <ele>712.0</ele>
        <time>2011-09-23T13:25:07.000Z</time>
      </trkpt>
      <trkpt lon="7.09467695094645" lat="46.60329597070813">
        <ele>713.2000122070312</ele>
        <time>2011-09-23T13:25:12.000Z</time>
      </trkpt>
      <trkpt lon="7.095200987532735" lat="46.60328499041498">
        <ele>715.7999877929688</ele>
        <time>2011-09-23T13:25:20.000Z</time>
      </trkpt>
      <trkpt lon="7.095690993592143" lat="46.60325498320162">
        <ele>718.5999755859375</ele>
        <time>2011-09-23T13:25:29.000Z</time>
      </trkpt>
      <trkpt lon="7.096253922209144" lat="46.60321491770446">
        <ele>722.0</ele>
        <time>2011-09-23T13:25:40.000Z</time>
      </trkpt>
      <trkpt lon="7.09663194604218" lat="46.60318792797625">
        <ele>724.2000122070312</ele>
        <time>2011-09-23T13:25:47.000Z</time>
      </trkpt>
      <trkpt lon="7.096958924084902" lat="46.60316496156156">
        <ele>726.0</ele>
        <time>2011-09-23T13:25:53.000Z</time>
      </trkpt>
      <trkpt lon="7.097406936809421" lat="46.603133948519826">
        <ele>728.7999877929688</ele>
        <time>2011-09-23T13:26:02.000Z</time>
      </trkpt>
      <trkpt lon="7.097695944830775" lat="46.6031129937619">
        <ele>730.7999877929688</ele>
        <time>2011-09-23T13:26:08.000Z</time>
      </trkpt>
      <trkpt lon="7.0980289578437805" lat="46.60314098931849">
        <ele>733.0</ele>
        <time>2011-09-23T13:26:15.000Z</time>
      </trkpt>
      <trkpt lon="7.098217969760299" lat="46.60317795351148">
        <ele>734.5999755859375</ele>
        <time>2011-09-23T13:26:19.000Z</time>
      </trkpt>
      <trkpt lon="7.098479988053441" lat="46.60322799347341">
        <ele>735.4000244140625</ele>
        <time>2011-09-23T13:26:24.000Z</time>
      </trkpt>
      <trkpt lon="7.099069990217686" lat="46.60329597070813">
        <ele>737.4000244140625</ele>
        <time>2011-09-23T13:26:34.000Z</time>
      </trkpt>
      <trkpt lon="7.0996419712901115" lat="46.60329496487975">
        <ele>738.4000244140625</ele>
        <time>2011-09-23T13:26:43.000Z</time>
      </trkpt>
      <trkpt lon="7.100076992064714" lat="46.60318398848176">
        <ele>739.0</ele>
        <time>2011-09-23T13:26:50.000Z</time>
      </trkpt>
      <trkpt lon="7.100362982600927" lat="46.60305599682033">
        <ele>739.2000122070312</ele>
        <time>2011-09-23T13:26:55.000Z</time>
      </trkpt>
      <trkpt lon="7.100728936493397" lat="46.6028399951756">
        <ele>739.7999877929688</ele>
        <time>2011-09-23T13:27:02.000Z</time>
      </trkpt>
      <trkpt lon="7.100965976715088" lat="46.60270898602903">
        <ele>740.2000122070312</ele>
        <time>2011-09-23T13:27:07.000Z</time>
      </trkpt>
      <trkpt lon="7.1012199483811855" lat="46.60264193080366">
        <ele>740.4000244140625</ele>
        <time>2011-09-23T13:27:13.000Z</time>
      </trkpt>
      <trkpt lon="7.10174691863358" lat="46.60258795134723">
        <ele>740.7999877929688</ele>
        <time>2011-09-23T13:27:22.000Z</time>
      </trkpt>
      <trkpt lon="7.101751947775483" lat="46.60180793143809">
        <ele>740.7999877929688</ele>
        <time>2011-09-23T13:27:26.000Z</time>
      </trkpt>
      <trkpt lon="7.101862924173474" lat="46.601668959483504">
        <ele>740.7999877929688</ele>
        <time>2011-09-23T13:27:30.000Z</time>
      </trkpt>
      <trkpt lon="7.1019229386001825" lat="46.60141599364579">
        <ele>741.2000122070312</ele>
        <time>2011-09-23T13:27:35.000Z</time>
      </trkpt>
      <trkpt lon="7.102156961336732" lat="46.601134948432446">
        <ele>740.5999755859375</ele>
        <time>2011-09-23T13:27:40.000Z</time>
      </trkpt>
      <trkpt lon="7.1025679260492325" lat="46.60083998925984">
        <ele>741.4000244140625</ele>
        <time>2011-09-23T13:27:49.000Z</time>
      </trkpt>
      <trkpt lon="7.102648979052901" lat="46.600771928206086">
        <ele>741.4000244140625</ele>
        <time>2011-09-23T13:27:51.000Z</time>
      </trkpt>
      <trkpt lon="7.102808989584446" lat="46.60056296736002">
        <ele>741.0</ele>
        <time>2011-09-23T13:27:57.000Z</time>
      </trkpt>
      <trkpt lon="7.1029979176819324" lat="46.60023498348892">
        <ele>740.5999755859375</ele>
        <time>2011-09-23T13:28:04.000Z</time>
      </trkpt>
      <trkpt lon="7.103274939581752" lat="46.599906999617815">
        <ele>740.7999877929688</ele>
        <time>2011-09-23T13:28:12.000Z</time>
      </trkpt>
      <trkpt lon="7.1032829862087965" lat="46.59976199269295">
        <ele>741.4000244140625</ele>
        <time>2011-09-23T13:28:16.000Z</time>
      </trkpt>
      <trkpt lon="7.103670984506607" lat="46.59956996329129">
        <ele>741.7999877929688</ele>
        <time>2011-09-23T13:28:24.000Z</time>
      </trkpt>
      <trkpt lon="7.1038369461894035" lat="46.59945395775139">
        <ele>742.0</ele>
        <time>2011-09-23T13:28:31.000Z</time>
      </trkpt>
      <trkpt lon="7.103920932859182" lat="46.599395954981446">
        <ele>742.0</ele>
        <time>2011-09-23T13:28:38.000Z</time>
      </trkpt>
      <trkpt lon="7.103920932859182" lat="46.599395954981446">
        <ele>742.2000122070312</ele>
        <time>2011-09-23T13:28:43.000Z</time>
      </trkpt>
      <trkpt lon="7.104055965319276" lat="46.5993429813534">
        <ele>742.4000244140625</ele>
        <time>2011-09-23T13:28:48.000Z</time>
      </trkpt>
      <trkpt lon="7.104098964482546" lat="46.599326971918344">
        <ele>742.5999755859375</ele>
        <time>2011-09-23T13:28:54.000Z</time>
      </trkpt>
      <trkpt lon="7.104508923366666" lat="46.5990649536252">
        <ele>742.5999755859375</ele>
        <time>2011-09-23T13:28:59.000Z</time>
      </trkpt>
      <trkpt lon="7.104759961366653" lat="46.59904492087662">
        <ele>743.2000122070312</ele>
        <time>2011-09-23T13:29:03.000Z</time>
      </trkpt>
      <trkpt lon="7.105331942439079" lat="46.5993239544332">
        <ele>744.4000244140625</ele>
        <time>2011-09-23T13:29:14.000Z</time>
      </trkpt>
      <trkpt lon="7.105771992355585" lat="46.59953392110765">
        <ele>745.2000122070312</ele>
        <time>2011-09-23T13:29:23.000Z</time>
      </trkpt>
      <trkpt lon="7.106136940419674" lat="46.599712958559394">
        <ele>746.0</ele>
        <time>2011-09-23T13:29:31.000Z</time>
      </trkpt>
      <trkpt lon="7.106136940419674" lat="46.599712958559394">
        <ele>746.0</ele>
        <time>2011-09-23T13:29:33.000Z</time>
      </trkpt>
      <trkpt lon="7.10629896260798" lat="46.60019894130528">
        <ele>746.5999755859375</ele>
        <time>2011-09-23T13:29:43.000Z</time>
      </trkpt>
      <trkpt lon="7.106308937072754" lat="46.60027094185352">
        <ele>747.0</ele>
        <time>2011-09-23T13:29:45.000Z</time>
      </trkpt>
      <trkpt lon="7.106151944026351" lat="46.6003929823637">
        <ele>747.2000122070312</ele>
        <time>2011-09-23T13:29:50.000Z</time>
      </trkpt>
      <trkpt lon="7.106317989528179" lat="46.6005779709667">
        <ele>747.2000122070312</ele>
        <time>2011-09-23T13:29:53.000Z</time>
      </trkpt>
      <trkpt lon="7.106807995587587" lat="46.600936967879534">
        <ele>748.0</ele>
        <time>2011-09-23T13:30:04.000Z</time>
      </trkpt>
      <trkpt lon="7.107157940044999" lat="46.601194962859154">
        <ele>748.5999755859375</ele>
        <time>2011-09-23T13:30:12.000Z</time>
      </trkpt>
      <trkpt lon="7.107243938371539" lat="46.601257994771004">
        <ele>748.7999877929688</ele>
        <time>2011-09-23T13:30:14.000Z</time>
      </trkpt>
      <trkpt lon="7.107605952769518" lat="46.601521940901875">
        <ele>749.4000244140625</ele>
        <time>2011-09-23T13:30:23.000Z</time>
      </trkpt>
      <trkpt lon="7.10788699798286" lat="46.60172092728317">
        <ele>749.7999877929688</ele>
        <time>2011-09-23T13:30:30.000Z</time>
      </trkpt>
      <trkpt lon="7.108149938285351" lat="46.60191899165511">
        <ele>750.4000244140625</ele>
        <time>2011-09-23T13:30:37.000Z</time>
      </trkpt>
      <trkpt lon="7.108182962983847" lat="46.601951932534575">
        <ele>750.4000244140625</ele>
        <time>2011-09-23T13:30:38.000Z</time>
      </trkpt>
      <trkpt lon="7.1083729807287455" lat="46.60193894058466">
        <ele>751.0</ele>
        <time>2011-09-23T13:30:42.000Z</time>
      </trkpt>
      <trkpt lon="7.108930964022875" lat="46.60176392644644">
        <ele>753.4000244140625</ele>
        <time>2011-09-23T13:30:53.000Z</time>
      </trkpt>
      <trkpt lon="7.109229946509004" lat="46.60166493616998">
        <ele>755.4000244140625</ele>
        <time>2011-09-23T13:31:00.000Z</time>
      </trkpt>
      <trkpt lon="7.109533958137035" lat="46.60157298669219">
        <ele>757.4000244140625</ele>
        <time>2011-09-23T13:31:08.000Z</time>
      </trkpt>
      <trkpt lon="7.109791953116655" lat="46.601538956165314">
        <ele>759.0</ele>
        <time>2011-09-23T13:31:15.000Z</time>
      </trkpt>
      <trkpt lon="7.110096970573068" lat="46.601516995579004">
        <ele>760.7999877929688</ele>
        <time>2011-09-23T13:31:23.000Z</time>
      </trkpt>
      <trkpt lon="7.110437946394086" lat="46.6015259642154">
        <ele>763.0</ele>
        <time>2011-09-23T13:31:32.000Z</time>
      </trkpt>
      <trkpt lon="7.110787974670529" lat="46.601538956165314">
        <ele>765.2000122070312</ele>
        <time>2011-09-23T13:31:42.000Z</time>
      </trkpt>
      <trkpt lon="7.1111139468848705" lat="46.60155496560037">
        <ele>767.4000244140625</ele>
        <time>2011-09-23T13:31:52.000Z</time>
      </trkpt>
      <trkpt lon="7.111368924379349" lat="46.60157097503543">
        <ele>769.5999755859375</ele>
        <time>2011-09-23T13:32:00.000Z</time>
      </trkpt>
      <trkpt lon="7.111700931563973" lat="46.60159293562174">
        <ele>772.0</ele>
        <time>2011-09-23T13:32:11.000Z</time>
      </trkpt>
      <trkpt lon="7.111983988434076" lat="46.60161196254194">
        <ele>774.4000244140625</ele>
        <time>2011-09-23T13:32:21.000Z</time>
      </trkpt>
      <trkpt lon="7.112205941230059" lat="46.60162294283509">
        <ele>776.2000122070312</ele>
        <time>2011-09-23T13:32:29.000Z</time>
      </trkpt>
      <trkpt lon="7.112389924004674" lat="46.601692931726575">
        <ele>778.2000122070312</ele>
        <time>2011-09-23T13:32:37.000Z</time>
      </trkpt>
      <trkpt lon="7.1125319972634315" lat="46.60175093449652">
        <ele>779.5999755859375</ele>
        <time>2011-09-23T13:32:44.000Z</time>
      </trkpt>
      <trkpt lon="7.11274397559464" lat="46.60184799693525">
        <ele>781.5999755859375</ele>
        <time>2011-09-23T13:32:52.000Z</time>
      </trkpt>
      <trkpt lon="7.113034995272756" lat="46.601972971111536">
        <ele>783.7999877929688</ele>
        <time>2011-09-23T13:33:02.000Z</time>
      </trkpt>
      <trkpt lon="7.113211937248707" lat="46.602038936689496">
        <ele>785.0</ele>
        <time>2011-09-23T13:33:08.000Z</time>
      </trkpt>
      <trkpt lon="7.113544950261712" lat="46.602142956107855">
        <ele>787.0</ele>
        <time>2011-09-23T13:33:18.000Z</time>
      </trkpt>
      <trkpt lon="7.11392791941762" lat="46.6022339835763">
        <ele>789.0</ele>
        <time>2011-09-23T13:33:28.000Z</time>
      </trkpt>
      <trkpt lon="7.1142259798944" lat="46.60237295553088">
        <ele>790.4000244140625</ele>
        <time>2011-09-23T13:33:37.000Z</time>
      </trkpt>
      <trkpt lon="7.114458996802568" lat="46.60251595079899">
        <ele>791.7999877929688</ele>
        <time>2011-09-23T13:33:45.000Z</time>
      </trkpt>
      <trkpt lon="7.114739958196878" lat="46.60266699269414">
        <ele>793.4000244140625</ele>
        <time>2011-09-23T13:33:54.000Z</time>
      </trkpt>
      <trkpt lon="7.115083951503038" lat="46.60273396410048">
        <ele>795.0</ele>
        <time>2011-09-23T13:34:03.000Z</time>
      </trkpt>
      <trkpt lon="7.1153719536960125" lat="46.602762965485454">
        <ele>796.4000244140625</ele>
        <time>2011-09-23T13:34:10.000Z</time>
      </trkpt>
      <trkpt lon="7.115736985579133" lat="46.602788949385285">
        <ele>798.2000122070312</ele>
        <time>2011-09-23T13:34:18.000Z</time>
      </trkpt>
      <trkpt lon="7.116151973605156" lat="46.60280294716358">
        <ele>799.7999877929688</ele>
        <time>2011-09-23T13:34:27.000Z</time>
      </trkpt>
      <trkpt lon="7.116540977731347" lat="46.60280294716358">
        <ele>801.5999755859375</ele>
        <time>2011-09-23T13:34:36.000Z</time>
      </trkpt>
      <trkpt lon="7.116880947723985" lat="46.602808982133865">
        <ele>803.0</ele>
        <time>2011-09-23T13:34:44.000Z</time>
      </trkpt>
      <trkpt lon="7.11723692715168" lat="46.60282297991216">
        <ele>805.0</ele>
        <time>2011-09-23T13:34:53.000Z</time>
      </trkpt>
      <trkpt lon="7.117539932951331" lat="46.6028349660337">
        <ele>806.4000244140625</ele>
        <time>2011-09-23T13:35:01.000Z</time>
      </trkpt>
      <trkpt lon="7.117877975106239" lat="46.60284594632685">
        <ele>807.5999755859375</ele>
        <time>2011-09-23T13:35:09.000Z</time>
      </trkpt>
      <trkpt lon="7.118262955918908" lat="46.60287897102535">
        <ele>809.0</ele>
        <time>2011-09-23T13:35:18.000Z</time>
      </trkpt>
      <trkpt lon="7.11861097253859" lat="46.602960946038365">
        <ele>810.4000244140625</ele>
        <time>2011-09-23T13:35:27.000Z</time>
      </trkpt>
      <trkpt lon="7.118943985551596" lat="46.60305197350681">
        <ele>812.2000122070312</ele>
        <time>2011-09-23T13:35:36.000Z</time>
      </trkpt>
      <trkpt lon="7.1192079316824675" lat="46.60311693325639">
        <ele>814.2000122070312</ele>
        <time>2011-09-23T13:35:44.000Z</time>
      </trkpt>
      <trkpt lon="7.119487971067429" lat="46.60317996516824">
        <ele>816.7999877929688</ele>
        <time>2011-09-23T13:35:54.000Z</time>
      </trkpt>
      <trkpt lon="7.119686957448721" lat="46.60318893380463">
        <ele>818.5999755859375</ele>
        <time>2011-09-23T13:36:01.000Z</time>
      </trkpt>
      <trkpt lon="7.119901953265071" lat="46.60319899208844">
        <ele>820.7999877929688</ele>
        <time>2011-09-23T13:36:09.000Z</time>
      </trkpt>
      <trkpt lon="7.12022197432816" lat="46.60320494323969">
        <ele>824.0</ele>
        <time>2011-09-23T13:36:21.000Z</time>
      </trkpt>
      <trkpt lon="7.12045893073082" lat="46.60318993963301">
        <ele>826.2000122070312</ele>
        <time>2011-09-23T13:36:30.000Z</time>
      </trkpt>
      <trkpt lon="7.120685996487737" lat="46.603175941854715">
        <ele>828.2000122070312</ele>
        <time>2011-09-23T13:36:40.000Z</time>
      </trkpt>
      <trkpt lon="7.120917923748493" lat="46.6031679790467">
        <ele>830.2000122070312</ele>
        <time>2011-09-23T13:36:51.000Z</time>
      </trkpt>
      <trkpt lon="7.120936950668693" lat="46.6031679790467">
        <ele>830.4000244140625</ele>
        <time>2011-09-23T13:36:52.000Z</time>
      </trkpt>
      <trkpt lon="7.12110391817987" lat="46.6031679790467">
        <ele>832.0</ele>
        <time>2011-09-23T13:37:01.000Z</time>
      </trkpt>
      <trkpt lon="7.121238950639963" lat="46.603176947683096">
        <ele>833.5999755859375</ele>
        <time>2011-09-23T13:37:08.000Z</time>
      </trkpt>
      <trkpt lon="7.121395943686366" lat="46.60319899208844">
        <ele>835.4000244140625</ele>
        <time>2011-09-23T13:37:17.000Z</time>
      </trkpt>
      <trkpt lon="7.121578920632601" lat="46.60324492491782">
        <ele>837.5999755859375</ele>
        <time>2011-09-23T13:37:27.000Z</time>
      </trkpt>
      <trkpt lon="7.121762987226248" lat="46.60333293490112">
        <ele>840.4000244140625</ele>
        <time>2011-09-23T13:37:38.000Z</time>
      </trkpt>
      <trkpt lon="7.121885949745774" lat="46.603428991511464">
        <ele>842.5999755859375</ele>
        <time>2011-09-23T13:37:47.000Z</time>
      </trkpt>
      <trkpt lon="7.1219969261437654" lat="46.60352194681764">
        <ele>844.2000122070312</ele>
        <time>2011-09-23T13:37:55.000Z</time>
      </trkpt>
      <trkpt lon="7.122092982754111" lat="46.603605933487415">
        <ele>846.4000244140625</ele>
        <time>2011-09-23T13:38:03.000Z</time>
      </trkpt>
      <trkpt lon="7.122182920575142" lat="46.60368396900594">
        <ele>848.2000122070312</ele>
        <time>2011-09-23T13:38:10.000Z</time>
      </trkpt>
      <trkpt lon="7.122352989390492" lat="46.60377197898924">
        <ele>849.5999755859375</ele>
        <time>2011-09-23T13:38:18.000Z</time>
      </trkpt>
      <trkpt lon="7.122550969943404" lat="46.60383392125368">
        <ele>851.4000244140625</ele>
        <time>2011-09-23T13:38:26.000Z</time>
      </trkpt>
      <trkpt lon="7.122761942446232" lat="46.60385395400226">
        <ele>853.0</ele>
        <time>2011-09-23T13:38:34.000Z</time>
      </trkpt>
      <trkpt lon="7.1229849848896265" lat="46.60385395400226">
        <ele>854.7999877929688</ele>
        <time>2011-09-23T13:38:43.000Z</time>
      </trkpt>
      <trkpt lon="7.123189922422171" lat="46.6038379445672">
        <ele>856.4000244140625</ele>
        <time>2011-09-23T13:38:51.000Z</time>
      </trkpt>
      <trkpt lon="7.1234099473804235" lat="46.6037689615041">
        <ele>858.4000244140625</ele>
        <time>2011-09-23T13:39:01.000Z</time>
      </trkpt>
      <trkpt lon="7.123517990112305" lat="46.60372093319893">
        <ele>859.7999877929688</ele>
        <time>2011-09-23T13:39:07.000Z</time>
      </trkpt>
      <trkpt lon="7.123674983158708" lat="46.60362194292247">
        <ele>861.7999877929688</ele>
        <time>2011-09-23T13:39:16.000Z</time>
      </trkpt>
      <trkpt lon="7.123786965385079" lat="46.60352999344468">
        <ele>863.5999755859375</ele>
        <time>2011-09-23T13:39:24.000Z</time>
      </trkpt>
      <trkpt lon="7.123885955661535" lat="46.60344399511814">
        <ele>865.4000244140625</ele>
        <time>2011-09-23T13:39:32.000Z</time>
      </trkpt>
      <trkpt lon="7.123978994786739" lat="46.60336093045771">
        <ele>866.7999877929688</ele>
        <time>2011-09-23T13:39:38.000Z</time>
      </trkpt>
      <trkpt lon="7.124109920114279" lat="46.6032459307462">
        <ele>868.5999755859375</ele>
        <time>2011-09-23T13:39:46.000Z</time>
      </trkpt>
      <trkpt lon="7.124221986159682" lat="46.60314694046974">
        <ele>870.2000122070312</ele>
        <time>2011-09-23T13:39:54.000Z</time>
      </trkpt>
      <trkpt lon="7.124316953122616" lat="46.60305599682033">
        <ele>871.5999755859375</ele>
        <time>2011-09-23T13:40:02.000Z</time>
      </trkpt>
      <trkpt lon="7.124338997527957" lat="46.603004951030016">
        <ele>873.0</ele>
        <time>2011-09-23T13:40:08.000Z</time>
      </trkpt>
      <trkpt lon="7.124479981139302" lat="46.60296899266541">
        <ele>874.0</ele>
        <time>2011-09-23T13:40:14.000Z</time>
      </trkpt>
      <trkpt lon="7.124479981139302" lat="46.60296899266541">
        <ele>874.0</ele>
        <time>2011-09-23T13:40:16.000Z</time>
      </trkpt>
      <trkpt lon="7.1245199628174305" lat="46.60295097157359">
        <ele>874.4000244140625</ele>
        <time>2011-09-23T13:40:59.000Z</time>
      </trkpt>
      <trkpt lon="7.124595986679196" lat="46.602916941046715">
        <ele>875.2000122070312</ele>
        <time>2011-09-23T13:41:03.000Z</time>
      </trkpt>
      <trkpt lon="7.124810982495546" lat="46.602851981297135">
        <ele>876.7999877929688</ele>
        <time>2011-09-23T13:41:12.000Z</time>
      </trkpt>
      <trkpt lon="7.125108959153295" lat="46.602764977142215">
        <ele>879.4000244140625</ele>
        <time>2011-09-23T13:41:24.000Z</time>
      </trkpt>
      <trkpt lon="7.125332923606038" lat="46.602696999907494">
        <ele>881.4000244140625</ele>
        <time>2011-09-23T13:41:34.000Z</time>
      </trkpt>
      <trkpt lon="7.125533921644092" lat="46.6026259213686">
        <ele>883.4000244140625</ele>
        <time>2011-09-23T13:41:43.000Z</time>
      </trkpt>
      <trkpt lon="7.125709941610694" lat="46.60256397910416">
        <ele>885.0</ele>
        <time>2011-09-23T13:41:51.000Z</time>
      </trkpt>
      <trkpt lon="7.125919992104173" lat="46.602488961070776">
        <ele>886.7999877929688</ele>
        <time>2011-09-23T13:41:59.000Z</time>
      </trkpt>
      <trkpt lon="7.126162983477116" lat="46.60245593637228">
        <ele>888.2000122070312</ele>
        <time>2011-09-23T13:42:07.000Z</time>
      </trkpt>
      <trkpt lon="7.12636892683804" lat="46.60243799909949">
        <ele>889.4000244140625</ele>
        <time>2011-09-23T13:42:13.000Z</time>
      </trkpt>
      <trkpt lon="7.126533966511488" lat="46.60243799909949">
        <ele>890.2000122070312</ele>
        <time>2011-09-23T13:42:18.000Z</time>
      </trkpt>
      <trkpt lon="7.126758936792612" lat="46.6024739574641">
        <ele>890.7999877929688</ele>
        <time>2011-09-23T13:42:24.000Z</time>
      </trkpt>
      <trkpt lon="7.127067977562547" lat="46.60254394635558">
        <ele>891.2000122070312</ele>
        <time>2011-09-23T13:42:31.000Z</time>
      </trkpt>
      <trkpt lon="7.127416916191578" lat="46.60261292941868">
        <ele>891.5999755859375</ele>
        <time>2011-09-23T13:42:38.000Z</time>
      </trkpt>
      <trkpt lon="7.127939946949482" lat="46.60269096493721">
        <ele>891.7999877929688</ele>
        <time>2011-09-23T13:42:47.000Z</time>
      </trkpt>
      <trkpt lon="7.128457948565483" lat="46.6028349660337">
        <ele>892.2000122070312</ele>
        <time>2011-09-23T13:42:56.000Z</time>
      </trkpt>
      <trkpt lon="7.128869919106364" lat="46.602959940209985">
        <ele>893.7999877929688</ele>
        <time>2011-09-23T13:43:04.000Z</time>
      </trkpt>
      <trkpt lon="7.129310974851251" lat="46.60309195518494">
        <ele>895.2000122070312</ele>
        <time>2011-09-23T13:43:14.000Z</time>
      </trkpt>
      <trkpt lon="7.129469979554415" lat="46.60312497988343">
        <ele>895.2000122070312</ele>
        <time>2011-09-23T13:43:17.000Z</time>
      </trkpt>
      <trkpt lon="7.129755970090628" lat="46.603108970448375">
        <ele>895.7999877929688</ele>
        <time>2011-09-23T13:43:22.000Z</time>
      </trkpt>
      <trkpt lon="7.130214963108301" lat="46.60305993631482">
        <ele>897.2000122070312</ele>
        <time>2011-09-23T13:43:30.000Z</time>
      </trkpt>
      <trkpt lon="7.130531966686249" lat="46.60313998349011">
        <ele>897.7999877929688</ele>
        <time>2011-09-23T13:43:36.000Z</time>
      </trkpt>
      <trkpt lon="7.130822986364365" lat="46.603323966264725">
        <ele>898.4000244140625</ele>
        <time>2011-09-23T13:43:43.000Z</time>
      </trkpt>
      <trkpt lon="7.131215929985046" lat="46.60359897650778">
        <ele>899.0</ele>
        <time>2011-09-23T13:43:52.000Z</time>
      </trkpt>
      <trkpt lon="7.131478954106569" lat="46.60372596234083">
        <ele>900.0</ele>
        <time>2011-09-23T13:43:58.000Z</time>
      </trkpt>
      <trkpt lon="7.131871981546283" lat="46.60379092209041">
        <ele>901.0</ele>
        <time>2011-09-23T13:44:05.000Z</time>
      </trkpt>
      <trkpt lon="7.132289987057447" lat="46.60392394289374">
        <ele>901.5999755859375</ele>
        <time>2011-09-23T13:44:12.000Z</time>
      </trkpt>
      <trkpt lon="7.13253297843039" lat="46.6039729770273">
        <ele>901.5999755859375</ele>
        <time>2011-09-23T13:44:16.000Z</time>
      </trkpt>
      <trkpt lon="7.132768929004669" lat="46.60401798784733">
        <ele>902.0</ele>
        <time>2011-09-23T13:44:20.000Z</time>
      </trkpt>
      <trkpt lon="7.1330659836530685" lat="46.60400399006903">
        <ele>902.5999755859375</ele>
        <time>2011-09-23T13:44:25.000Z</time>
      </trkpt>
      <trkpt lon="7.133257929235697" lat="46.60401899367571">
        <ele>902.7999877929688</ele>
        <time>2011-09-23T13:44:28.000Z</time>
      </trkpt>
      <trkpt lon="7.133677946403623" lat="46.60411496646702">
        <ele>902.4000244140625</ele>
        <time>2011-09-23T13:44:34.000Z</time>
      </trkpt>
      <trkpt lon="7.133828988298774" lat="46.604164922609925">
        <ele>902.5999755859375</ele>
        <time>2011-09-23T13:44:36.000Z</time>
      </trkpt>
      <trkpt lon="7.134238947182894" lat="46.60434798337519">
        <ele>903.7999877929688</ele>
        <time>2011-09-23T13:44:43.000Z</time>
      </trkpt>
      <trkpt lon="7.134489985182881" lat="46.604467928409576">
        <ele>905.4000244140625</ele>
        <time>2011-09-23T13:44:49.000Z</time>
      </trkpt>
      <trkpt lon="7.134614959359169" lat="46.604527942836285">
        <ele>906.2000122070312</ele>
        <time>2011-09-23T13:44:53.000Z</time>
      </trkpt>
      <trkpt lon="7.13485199958086" lat="46.60464193671942">
        <ele>906.5999755859375</ele>
        <time>2011-09-23T13:44:59.000Z</time>
      </trkpt>
      <trkpt lon="7.135099936276674" lat="46.60476095974445">
        <ele>906.4000244140625</ele>
        <time>2011-09-23T13:45:04.000Z</time>
      </trkpt>
      <trkpt lon="7.135673929005861" lat="46.605020966380835">
        <ele>907.0</ele>
        <time>2011-09-23T13:45:14.000Z</time>
      </trkpt>
      <trkpt lon="7.136123953387141" lat="46.60520193167031">
        <ele>906.7999877929688</ele>
        <time>2011-09-23T13:45:22.000Z</time>
      </trkpt>
      <trkpt lon="7.136438945308328" lat="46.60530695691705">
        <ele>907.0</ele>
        <time>2011-09-23T13:45:27.000Z</time>
      </trkpt>
      <trkpt lon="7.1369359921664" lat="46.60548498854041">
        <ele>907.7999877929688</ele>
        <time>2011-09-23T13:45:35.000Z</time>
      </trkpt>
      <trkpt lon="7.137340921908617" lat="46.605641981586814">
        <ele>908.7999877929688</ele>
        <time>2011-09-23T13:45:43.000Z</time>
      </trkpt>
      <trkpt lon="7.137722969055176" lat="46.60580098628998">
        <ele>908.5999755859375</ele>
        <time>2011-09-23T13:45:50.000Z</time>
      </trkpt>
      <trkpt lon="7.138160923495889" lat="46.60597499459982">
        <ele>908.5999755859375</ele>
        <time>2011-09-23T13:45:57.000Z</time>
      </trkpt>
      <trkpt lon="7.138670962303877" lat="46.60629493184388">
        <ele>909.4000244140625</ele>
        <time>2011-09-23T13:46:07.000Z</time>
      </trkpt>
      <trkpt lon="7.1390459686517715" lat="46.6065529268235">
        <ele>908.7999877929688</ele>
        <time>2011-09-23T13:46:14.000Z</time>
      </trkpt>
      <trkpt lon="7.139208996668458" lat="46.606674967333674">
        <ele>908.5999755859375</ele>
        <time>2011-09-23T13:46:17.000Z</time>
      </trkpt>
      <trkpt lon="7.1395109966397285" lat="46.60677194595337">
        <ele>908.4000244140625</ele>
        <time>2011-09-23T13:46:21.000Z</time>
      </trkpt>
      <trkpt lon="7.139597916975617" lat="46.60677194595337">
        <ele>908.4000244140625</ele>
        <time>2011-09-23T13:46:22.000Z</time>
      </trkpt>
      <trkpt lon="7.140040984377265" lat="46.606659963727">
        <ele>909.2000122070312</ele>
        <time>2011-09-23T13:46:28.000Z</time>
      </trkpt>
      <trkpt lon="7.140463935211301" lat="46.60656692460179">
        <ele>911.2000122070312</ele>
        <time>2011-09-23T13:46:36.000Z</time>
      </trkpt>
      <trkpt lon="7.140515986829996" lat="46.6065579559654">
        <ele>911.2000122070312</ele>
        <time>2011-09-23T13:46:37.000Z</time>
      </trkpt>
      <trkpt lon="7.141044968739152" lat="46.606637919321656">
        <ele>911.2000122070312</ele>
        <time>2011-09-23T13:46:45.000Z</time>
      </trkpt>
      <trkpt lon="7.141666989773512" lat="46.60675794817507">
        <ele>912.2000122070312</ele>
        <time>2011-09-23T13:46:54.000Z</time>
      </trkpt>
      <trkpt lon="7.1420269925147295" lat="46.606826931238174">
        <ele>913.7999877929688</ele>
        <time>2011-09-23T13:47:01.000Z</time>
      </trkpt>
      <trkpt lon="7.142274929210544" lat="46.606868924573064">
        <ele>915.2000122070312</ele>
        <time>2011-09-23T13:47:08.000Z</time>
      </trkpt>
      <trkpt lon="7.142530996352434" lat="46.60691091790795">
        <ele>915.7999877929688</ele>
        <time>2011-09-23T13:47:14.000Z</time>
      </trkpt>
      <trkpt lon="7.142773987725377" lat="46.60694696009159">
        <ele>917.0</ele>
        <time>2011-09-23T13:47:20.000Z</time>
      </trkpt>
      <trkpt lon="7.142991917207837" lat="46.60696598701179">
        <ele>918.0</ele>
        <time>2011-09-23T13:47:25.000Z</time>
      </trkpt>
      <trkpt lon="7.143181934952736" lat="46.60683891735971">
        <ele>920.2000122070312</ele>
        <time>2011-09-23T13:47:30.000Z</time>
      </trkpt>
      <trkpt lon="7.143334988504648" lat="46.60662199370563">
        <ele>921.2000122070312</ele>
        <time>2011-09-23T13:47:37.000Z</time>
      </trkpt>
      <trkpt lon="7.143373964354396" lat="46.60659592598677">
        <ele>921.0</ele>
        <time>2011-09-23T13:47:38.000Z</time>
      </trkpt>
      <trkpt lon="7.143459962680936" lat="46.60654295235872">
        <ele>920.4000244140625</ele>
        <time>2011-09-23T13:47:40.000Z</time>
      </trkpt>
      <trkpt lon="7.143649980425835" lat="46.60645494237542">
        <ele>919.4000244140625</ele>
        <time>2011-09-23T13:47:43.000Z</time>
      </trkpt>
      <trkpt lon="7.143951980397105" lat="46.60634798929095">
        <ele>918.2000122070312</ele>
        <time>2011-09-23T13:47:46.000Z</time>
      </trkpt>
      <trkpt lon="7.1442449279129505" lat="46.60614497959614">
        <ele>916.2000122070312</ele>
        <time>2011-09-23T13:47:50.000Z</time>
      </trkpt>
      <trkpt lon="7.144301924854517" lat="46.60606099292636">
        <ele>915.0</ele>
        <time>2011-09-23T13:47:52.000Z</time>
      </trkpt>
      <trkpt lon="7.144355988129973" lat="46.60595093853772">
        <ele>914.2000122070312</ele>
        <time>2011-09-23T13:47:54.000Z</time>
      </trkpt>
      <trkpt lon="7.144696963950992" lat="46.60580693744123">
        <ele>913.2000122070312</ele>
        <time>2011-09-23T13:47:57.000Z</time>
      </trkpt>
      <trkpt lon="7.145121926441789" lat="46.60582797601819">
        <ele>912.4000244140625</ele>
        <time>2011-09-23T13:48:02.000Z</time>
      </trkpt>
      <trkpt lon="7.145513948053122" lat="46.60578195936978">
        <ele>912.5999755859375</ele>
        <time>2011-09-23T13:48:06.000Z</time>
      </trkpt>
      <trkpt lon="7.145840926095843" lat="46.605686992406845">
        <ele>913.5999755859375</ele>
        <time>2011-09-23T13:48:11.000Z</time>
      </trkpt>
      <trkpt lon="7.145962966606021" lat="46.60563494078815">
        <ele>913.7999877929688</ele>
        <time>2011-09-23T13:48:16.000Z</time>
      </trkpt>
      <trkpt lon="7.14581293053925" lat="46.60569998435676">
        <ele>914.2000122070312</ele>
        <time>2011-09-23T13:48:19.000Z</time>
      </trkpt>
      <trkpt lon="7.146102944388986" lat="46.60553192719817">
        <ele>914.7999877929688</ele>
        <time>2011-09-23T13:48:22.000Z</time>
      </trkpt>
      <trkpt lon="7.146513992920518" lat="46.60533294081688">
        <ele>916.5999755859375</ele>
        <time>2011-09-23T13:48:27.000Z</time>
      </trkpt>
      <trkpt lon="7.146611977368593" lat="46.605320954695344">
        <ele>917.0</ele>
        <time>2011-09-23T13:48:29.000Z</time>
      </trkpt>
      <trkpt lon="7.146756984293461" lat="46.60531299188733">
        <ele>917.5999755859375</ele>
        <time>2011-09-23T13:48:32.000Z</time>
      </trkpt>
      <trkpt lon="7.146707950159907" lat="46.60531299188733">
        <ele>918.5999755859375</ele>
        <time>2011-09-23T13:48:36.000Z</time>
      </trkpt>
      <trkpt lon="7.146918922662735" lat="46.60531299188733">
        <ele>919.7999877929688</ele>
        <time>2011-09-23T13:48:41.000Z</time>
      </trkpt>
      <trkpt lon="7.147199967876077" lat="46.605384992435575">
        <ele>920.0</ele>
        <time>2011-09-23T13:48:46.000Z</time>
      </trkpt>
      <trkpt lon="7.147418987005949" lat="46.60557593218982">
        <ele>922.2000122070312</ele>
        <time>2011-09-23T13:48:51.000Z</time>
      </trkpt>
      <trkpt lon="7.147625936195254" lat="46.605643993243575">
        <ele>923.5999755859375</ele>
        <time>2011-09-23T13:48:56.000Z</time>
      </trkpt>
      <trkpt lon="7.147797932848334" lat="46.60565396770835">
        <ele>924.7999877929688</ele>
        <time>2011-09-23T13:49:00.000Z</time>
      </trkpt>
      <trkpt lon="7.1479059755802155" lat="46.60562697798014">
        <ele>925.4000244140625</ele>
        <time>2011-09-23T13:49:02.000Z</time>
      </trkpt>
      <trkpt lon="7.148053999990225" lat="46.60557593218982">
        <ele>926.0</ele>
        <time>2011-09-23T13:49:06.000Z</time>
      </trkpt>
      <trkpt lon="7.148099932819605" lat="46.60554793663323">
        <ele>926.2000122070312</ele>
        <time>2011-09-23T13:49:08.000Z</time>
      </trkpt>
      <trkpt lon="7.1483659744262695" lat="46.60552798770368">
        <ele>925.7999877929688</ele>
        <time>2011-09-23T13:49:13.000Z</time>
      </trkpt>
      <trkpt lon="7.148411991074681" lat="46.60552396439016">
        <ele>925.7999877929688</ele>
        <time>2011-09-23T13:49:14.000Z</time>
      </trkpt>
      <trkpt lon="7.148606954142451" lat="46.6055079549551">
        <ele>925.5999755859375</ele>
        <time>2011-09-23T13:49:17.000Z</time>
      </trkpt>
      <trkpt lon="7.148989923298359" lat="46.60541198216379">
        <ele>925.4000244140625</ele>
        <time>2011-09-23T13:49:22.000Z</time>
      </trkpt>
      <trkpt lon="7.149071982130408" lat="46.60538096912205">
        <ele>925.5999755859375</ele>
        <time>2011-09-23T13:49:23.000Z</time>
      </trkpt>
      <trkpt lon="7.149393931031227" lat="46.605259934440255">
        <ele>927.2000122070312</ele>
        <time>2011-09-23T13:49:28.000Z</time>
      </trkpt>
      <trkpt lon="7.149449922144413" lat="46.60517795942724">
        <ele>928.0</ele>
        <time>2011-09-23T13:49:31.000Z</time>
      </trkpt>
      <trkpt lon="7.1495069190859795" lat="46.60506899468601">
        <ele>929.4000244140625</ele>
        <time>2011-09-23T13:49:37.000Z</time>
      </trkpt>
      <trkpt lon="7.149566933512688" lat="46.604960951954126">
        <ele>929.5999755859375</ele>
        <time>2011-09-23T13:49:42.000Z</time>
      </trkpt>
      <trkpt lon="7.149641951546073" lat="46.604873947799206">
        <ele>929.5999755859375</ele>
        <time>2011-09-23T13:49:44.000Z</time>
      </trkpt>
      <trkpt lon="7.149925930425525" lat="46.604678984731436">
        <ele>929.5999755859375</ele>
        <time>2011-09-23T13:49:49.000Z</time>
      </trkpt>
      <trkpt lon="7.149995919317007" lat="46.6046289447695">
        <ele>929.5999755859375</ele>
        <time>2011-09-23T13:49:50.000Z</time>
      </trkpt>
      <trkpt lon="7.15032197535038" lat="46.60436592064798">
        <ele>929.0</ele>
        <time>2011-09-23T13:49:56.000Z</time>
      </trkpt>
      <trkpt lon="7.150367991998792" lat="46.6043199878186">
        <ele>928.7999877929688</ele>
        <time>2011-09-23T13:49:57.000Z</time>
      </trkpt>
      <trkpt lon="7.150567984208465" lat="46.604073978960514">
        <ele>927.5999755859375</ele>
        <time>2011-09-23T13:50:02.000Z</time>
      </trkpt>
      <trkpt lon="7.150721959769726" lat="46.603905921801925">
        <ele>926.5999755859375</ele>
        <time>2011-09-23T13:50:05.000Z</time>
      </trkpt>
      <trkpt lon="7.150873923674226" lat="46.60382696427405">
        <ele>924.7999877929688</ele>
        <time>2011-09-23T13:50:09.000Z</time>
      </trkpt>
      <trkpt lon="7.1515419613569975" lat="46.60362093709409">
        <ele>921.7999877929688</ele>
        <time>2011-09-23T13:50:14.000Z</time>
      </trkpt>
      <trkpt lon="7.1520729549229145" lat="46.60344491712749">
        <ele>917.4000244140625</ele>
        <time>2011-09-23T13:50:19.000Z</time>
      </trkpt>
      <trkpt lon="7.152572935447097" lat="46.60324894823134">
        <ele>913.2000122070312</ele>
        <time>2011-09-23T13:50:23.000Z</time>
      </trkpt>
      <trkpt lon="7.152866972610354" lat="46.60307292826474">
        <ele>911.2000122070312</ele>
        <time>2011-09-23T13:50:26.000Z</time>
      </trkpt>
      <trkpt lon="7.153173917904496" lat="46.602875953540206">
        <ele>908.0</ele>
        <time>2011-09-23T13:50:30.000Z</time>
      </trkpt>
      <trkpt lon="7.153227981179953" lat="46.60284192301333">
        <ele>907.5999755859375</ele>
        <time>2011-09-23T13:50:31.000Z</time>
      </trkpt>
      <trkpt lon="7.153251953423023" lat="46.60293093882501">
        <ele>906.7999877929688</ele>
        <time>2011-09-23T13:50:36.000Z</time>
      </trkpt>
      <trkpt lon="7.153236949816346" lat="46.60295298323035">
        <ele>906.0</ele>
        <time>2011-09-23T13:50:40.000Z</time>
      </trkpt>
      <trkpt lon="7.153107952326536" lat="46.60305993631482">
        <ele>905.5999755859375</ele>
        <time>2011-09-23T13:50:45.000Z</time>
      </trkpt>
      <trkpt lon="7.152844928205013" lat="46.603235956281424">
        <ele>904.7999877929688</ele>
        <time>2011-09-23T13:50:50.000Z</time>
      </trkpt>
      <trkpt lon="7.15255793184042" lat="46.60342396236956">
        <ele>903.0</ele>
        <time>2011-09-23T13:50:54.000Z</time>
      </trkpt>
      <trkpt lon="7.152366992086172" lat="46.60353292711079">
        <ele>901.4000244140625</ele>
        <time>2011-09-23T13:50:56.000Z</time>
      </trkpt>
      <trkpt lon="7.15182694606483" lat="46.603816989809275">
        <ele>897.4000244140625</ele>
        <time>2011-09-23T13:51:01.000Z</time>
      </trkpt>
      <trkpt lon="7.151387985795736" lat="46.60405092872679">
        <ele>893.2000122070312</ele>
        <time>2011-09-23T13:51:07.000Z</time>
      </trkpt>
      <trkpt lon="7.151195956394076" lat="46.604337925091386">
        <ele>890.7999877929688</ele>
        <time>2011-09-23T13:51:11.000Z</time>
      </trkpt>
      <trkpt lon="7.151155974715948" lat="46.60473799332976">
        <ele>886.7999877929688</ele>
        <time>2011-09-23T13:51:16.000Z</time>
      </trkpt>
      <trkpt lon="7.151155974715948" lat="46.60517091862857">
        <ele>884.5999755859375</ele>
        <time>2011-09-23T13:51:20.000Z</time>
      </trkpt>
      <trkpt lon="7.151168966665864" lat="46.60536294803023">
        <ele>884.2000122070312</ele>
        <time>2011-09-23T13:51:22.000Z</time>
      </trkpt>
      <trkpt lon="7.150942990556359" lat="46.60568296909332">
        <ele>884.2000122070312</ele>
        <time>2011-09-23T13:51:26.000Z</time>
      </trkpt>
      <trkpt lon="7.150876941159368" lat="46.60587198100984">
        <ele>884.2000122070312</ele>
        <time>2011-09-23T13:51:30.000Z</time>
      </trkpt>
      <trkpt lon="7.150907954201102" lat="46.60604992881417">
        <ele>884.4000244140625</ele>
        <time>2011-09-23T13:51:33.000Z</time>
      </trkpt>
      <trkpt lon="7.150977943092585" lat="46.60617892630398">
        <ele>884.7999877929688</ele>
        <time>2011-09-23T13:51:36.000Z</time>
      </trkpt>
      <trkpt lon="7.151059918105602" lat="46.60627892240882">
        <ele>884.5999755859375</ele>
        <time>2011-09-23T13:51:38.000Z</time>
      </trkpt>
      <trkpt lon="7.151050949469209" lat="46.60653498955071">
        <ele>884.4000244140625</ele>
        <time>2011-09-23T13:51:42.000Z</time>
      </trkpt>
      <trkpt lon="7.150886999443173" lat="46.60671394318342">
        <ele>884.5999755859375</ele>
        <time>2011-09-23T13:51:46.000Z</time>
      </trkpt>
      <trkpt lon="7.150633949786425" lat="46.6069829184562">
        <ele>885.4000244140625</ele>
        <time>2011-09-23T13:51:52.000Z</time>
      </trkpt>
      <trkpt lon="7.150443932041526" lat="46.607081992551684">
        <ele>886.5999755859375</ele>
        <time>2011-09-23T13:51:57.000Z</time>
      </trkpt>
      <trkpt lon="7.150295991450548" lat="46.60710194148123">
        <ele>888.2000122070312</ele>
        <time>2011-09-23T13:52:02.000Z</time>
      </trkpt>
      <trkpt lon="7.149953925982118" lat="46.607150975614786">
        <ele>890.4000244140625</ele>
        <time>2011-09-23T13:52:11.000Z</time>
      </trkpt>
      <trkpt lon="7.14963692240417" lat="46.60721794702113">
        <ele>892.4000244140625</ele>
        <time>2011-09-23T13:52:20.000Z</time>
      </trkpt>
      <trkpt lon="7.149384962394834" lat="46.60729296505451">
        <ele>894.2000122070312</ele>
        <time>2011-09-23T13:52:28.000Z</time>
      </trkpt>
      <trkpt lon="7.1492209285497665" lat="46.60735096782446">
        <ele>895.5999755859375</ele>
        <time>2011-09-23T13:52:34.000Z</time>
      </trkpt>
      <trkpt lon="7.149036945775151" lat="46.60740092396736">
        <ele>896.7999877929688</ele>
        <time>2011-09-23T13:52:40.000Z</time>
      </trkpt>
      <trkpt lon="7.148891938850284" lat="46.60743294283748">
        <ele>897.7999877929688</ele>
        <time>2011-09-23T13:52:45.000Z</time>
      </trkpt>
      <trkpt lon="7.148727988824248" lat="46.607469990849495">
        <ele>899.0</ele>
        <time>2011-09-23T13:52:51.000Z</time>
      </trkpt>
      <trkpt lon="7.148698987439275" lat="46.60747594200075">
        <ele>899.2000122070312</ele>
        <time>2011-09-23T13:52:52.000Z</time>
      </trkpt>
      <trkpt lon="7.148505952209234" lat="46.60752095282078">
        <ele>900.2000122070312</ele>
        <time>2011-09-23T13:52:58.000Z</time>
      </trkpt>
      <trkpt lon="7.148375948891044" lat="46.60755297169089">
        <ele>900.7999877929688</ele>
        <time>2011-09-23T13:53:02.000Z</time>
      </trkpt>
      <trkpt lon="7.1481939777731895" lat="46.607598988339305">
        <ele>901.5999755859375</ele>
        <time>2011-09-23T13:53:08.000Z</time>
      </trkpt>
      <trkpt lon="7.148010917007923" lat="46.607639975845814">
        <ele>902.7999877929688</ele>
        <time>2011-09-23T13:53:14.000Z</time>
      </trkpt>
      <trkpt lon="7.147882925346494" lat="46.60766093060374">
        <ele>903.4000244140625</ele>
        <time>2011-09-23T13:53:18.000Z</time>
      </trkpt>
      <trkpt lon="7.147655943408608" lat="46.60769697278738">
        <ele>904.5999755859375</ele>
        <time>2011-09-23T13:53:25.000Z</time>
      </trkpt>
      <trkpt lon="7.147469948977232" lat="46.60772496834397">
        <ele>905.4000244140625</ele>
        <time>2011-09-23T13:53:31.000Z</time>
      </trkpt>
      <trkpt lon="7.147267945110798" lat="46.60774399526417">
        <ele>906.7999877929688</ele>
        <time>2011-09-23T13:53:38.000Z</time>
      </trkpt>
      <trkpt lon="7.147234920412302" lat="46.60774491727352">
        <ele>907.0</ele>
        <time>2011-09-23T13:53:39.000Z</time>
      </trkpt>
      <trkpt lon="7.147046998143196" lat="46.60775497555733">
        <ele>907.7999877929688</ele>
        <time>2011-09-23T13:53:45.000Z</time>
      </trkpt>
      <trkpt lon="7.146723959594965" lat="46.60781096667051">
        <ele>909.0</ele>
        <time>2011-09-23T13:53:52.000Z</time>
      </trkpt>
      <trkpt lon="7.1464949660003185" lat="46.608072984963655">
        <ele>910.0</ele>
        <time>2011-09-23T13:53:59.000Z</time>
      </trkpt>
      <trkpt lon="7.146469987928867" lat="46.608161916956306">
        <ele>911.0</ele>
        <time>2011-09-23T13:54:05.000Z</time>
      </trkpt>
      <trkpt lon="7.146418942138553" lat="46.60825897939503">
        <ele>911.7999877929688</ele>
        <time>2011-09-23T13:54:10.000Z</time>
      </trkpt>
      <trkpt lon="7.146398993209004" lat="46.608285969123244">
        <ele>912.0</ele>
        <time>2011-09-23T13:54:12.000Z</time>
      </trkpt>
      <trkpt lon="7.1464169304817915" lat="46.608261996880174">
        <ele>912.7999877929688</ele>
        <time>2011-09-23T13:54:16.000Z</time>
      </trkpt>
      <trkpt lon="7.146294973790646" lat="46.60839292220771">
        <ele>914.0</ele>
        <time>2011-09-23T13:54:22.000Z</time>
      </trkpt>
      <trkpt lon="7.146200928837061" lat="46.6084869671613">
        <ele>914.5999755859375</ele>
        <time>2011-09-23T13:54:26.000Z</time>
      </trkpt>
      <trkpt lon="7.14608995243907" lat="46.60859199240804">
        <ele>915.4000244140625</ele>
        <time>2011-09-23T13:54:30.000Z</time>
      </trkpt>
      <trkpt lon="7.145902952179313" lat="46.60877496935427">
        <ele>916.7999877929688</ele>
        <time>2011-09-23T13:54:37.000Z</time>
      </trkpt>
      <trkpt lon="7.145815948024392" lat="46.608912935480475">
        <ele>917.7999877929688</ele>
        <time>2011-09-23T13:54:43.000Z</time>
      </trkpt>
      <trkpt lon="7.145731961354613" lat="46.609058948233724">
        <ele>918.4000244140625</ele>
        <time>2011-09-23T13:54:49.000Z</time>
      </trkpt>
      <trkpt lon="7.145633976906538" lat="46.609254917129874">
        <ele>919.0</ele>
        <time>2011-09-23T13:54:56.000Z</time>
      </trkpt>
      <trkpt lon="7.1455419436097145" lat="46.60947695374489">
        <ele>919.4000244140625</ele>
        <time>2011-09-23T13:55:04.000Z</time>
      </trkpt>
      <trkpt lon="7.145462986081839" lat="46.60967392846942">
        <ele>920.0</ele>
        <time>2011-09-23T13:55:11.000Z</time>
      </trkpt>
      <trkpt lon="7.145367935299873" lat="46.60991096869111">
        <ele>920.5999755859375</ele>
        <time>2011-09-23T13:55:20.000Z</time>
      </trkpt>
      <trkpt lon="7.145297946408391" lat="46.61009796895087">
        <ele>921.0</ele>
        <time>2011-09-23T13:55:27.000Z</time>
      </trkpt>
      <trkpt lon="7.145345974713564" lat="46.61023895256221">
        <ele>921.4000244140625</ele>
        <time>2011-09-23T13:55:32.000Z</time>
      </trkpt>
      <trkpt lon="7.145516965538263" lat="46.610349928960204">
        <ele>921.7999877929688</ele>
        <time>2011-09-23T13:55:37.000Z</time>
      </trkpt>
      <trkpt lon="7.1459289360791445" lat="46.61047398112714">
        <ele>922.0</ele>
        <time>2011-09-23T13:55:45.000Z</time>
      </trkpt>
      <trkpt lon="7.146420953795314" lat="46.61062695086002">
        <ele>921.4000244140625</ele>
        <time>2011-09-23T13:55:52.000Z</time>
      </trkpt>
      <trkpt lon="7.1470689587295055" lat="46.610825937241316">
        <ele>920.7999877929688</ele>
        <time>2011-09-23T13:55:59.000Z</time>
      </trkpt>
      <trkpt lon="7.1481359750032425" lat="46.61114294081926">
        <ele>919.4000244140625</ele>
        <time>2011-09-23T13:56:09.000Z</time>
      </trkpt>
      <trkpt lon="7.149147922173142" lat="46.61145994439721">
        <ele>919.5999755859375</ele>
        <time>2011-09-23T13:56:19.000Z</time>
      </trkpt>
      <trkpt lon="7.149992985650897" lat="46.61170897074044">
        <ele>919.7999877929688</ele>
        <time>2011-09-23T13:56:28.000Z</time>
      </trkpt>
      <trkpt lon="7.150647947564721" lat="46.611914997920394">
        <ele>921.0</ele>
        <time>2011-09-23T13:56:36.000Z</time>
      </trkpt>
      <trkpt lon="7.1511169988662004" lat="46.612050952389836">
        <ele>921.5999755859375</ele>
        <time>2011-09-23T13:56:42.000Z</time>
      </trkpt>
      <trkpt lon="7.15188997797668" lat="46.612219931557775">
        <ele>922.4000244140625</ele>
        <time>2011-09-23T13:56:52.000Z</time>
      </trkpt>
      <trkpt lon="7.152599925175309" lat="46.61233291961253">
        <ele>922.7999877929688</ele>
        <time>2011-09-23T13:57:01.000Z</time>
      </trkpt>
      <trkpt lon="7.152883987873793" lat="46.61237893626094">
        <ele>923.0</ele>
        <time>2011-09-23T13:57:05.000Z</time>
      </trkpt>
      <trkpt lon="7.153368964791298" lat="46.6124639287591">
        <ele>923.2000122070312</ele>
        <time>2011-09-23T13:57:13.000Z</time>
      </trkpt>
      <trkpt lon="7.153646992519498" lat="46.61251195706427">
        <ele>922.5999755859375</ele>
        <time>2011-09-23T13:57:17.000Z</time>
      </trkpt>
      <trkpt lon="7.15399693697691" lat="46.61249293014407">
        <ele>921.5999755859375</ele>
        <time>2011-09-23T13:57:21.000Z</time>
      </trkpt>
      <trkpt lon="7.154359957203269" lat="46.61244196817279">
        <ele>921.2000122070312</ele>
        <time>2011-09-23T13:57:25.000Z</time>
      </trkpt>
      <trkpt lon="7.1549829840660095" lat="46.612435933202505">
        <ele>919.5999755859375</ele>
        <time>2011-09-23T13:57:31.000Z</time>
      </trkpt>
      <trkpt lon="7.155495956540108" lat="46.612436939030886">
        <ele>917.5999755859375</ele>
        <time>2011-09-23T13:57:35.000Z</time>
      </trkpt>
      <trkpt lon="7.155619924888015" lat="46.612436939030886">
        <ele>917.0</ele>
        <time>2011-09-23T13:57:36.000Z</time>
      </trkpt>
      <trkpt lon="7.155915973708034" lat="46.612436939030886">
        <ele>915.5999755859375</ele>
        <time>2011-09-23T13:57:39.000Z</time>
      </trkpt>
      <trkpt lon="7.156407991424203" lat="46.61245898343623">
        <ele>913.2000122070312</ele>
        <time>2011-09-23T13:57:44.000Z</time>
      </trkpt>
      <trkpt lon="7.157009979709983" lat="46.61248697899282">
        <ele>910.5999755859375</ele>
        <time>2011-09-23T13:57:49.000Z</time>
      </trkpt>
      <trkpt lon="7.157132942229509" lat="46.612500976771116">
        <ele>910.0</ele>
        <time>2011-09-23T13:57:50.000Z</time>
      </trkpt>
      <trkpt lon="7.157471990212798" lat="46.61262393929064">
        <ele>908.4000244140625</ele>
        <time>2011-09-23T13:57:53.000Z</time>
      </trkpt>
      <trkpt lon="7.1575849782675505" lat="46.61267993040383">
        <ele>907.5999755859375</ele>
        <time>2011-09-23T13:57:54.000Z</time>
      </trkpt>
      <trkpt lon="7.15803693048656" lat="46.61289693787694">
        <ele>905.2000122070312</ele>
        <time>2011-09-23T13:57:58.000Z</time>
      </trkpt>
      <trkpt lon="7.158699939027429" lat="46.613248977810144">
        <ele>903.5999755859375</ele>
        <time>2011-09-23T13:58:04.000Z</time>
      </trkpt>
      <trkpt lon="7.159256916493177" lat="46.613445952534676">
        <ele>902.7999877929688</ele>
        <time>2011-09-23T13:58:09.000Z</time>
      </trkpt>
      <trkpt lon="7.159380968660116" lat="46.613445952534676">
        <ele>902.5999755859375</ele>
        <time>2011-09-23T13:58:10.000Z</time>
      </trkpt>
      <trkpt lon="7.160079935565591" lat="46.61333899945021">
        <ele>902.2000122070312</ele>
        <time>2011-09-23T13:58:16.000Z</time>
      </trkpt>
      <trkpt lon="7.1603989508003" lat="46.613316955044866">
        <ele>901.7999877929688</ele>
        <time>2011-09-23T13:58:19.000Z</time>
      </trkpt>
      <trkpt lon="7.160900942981243" lat="46.613273955881596">
        <ele>901.0</ele>
        <time>2011-09-23T13:58:24.000Z</time>
      </trkpt>
      <trkpt lon="7.161368988454342" lat="46.61323992535472">
        <ele>900.5999755859375</ele>
        <time>2011-09-23T13:58:29.000Z</time>
      </trkpt>
      <trkpt lon="7.161454986780882" lat="46.613230956718326">
        <ele>900.5999755859375</ele>
        <time>2011-09-23T13:58:30.000Z</time>
      </trkpt>
      <trkpt lon="7.1616709884256124" lat="46.61318091675639">
        <ele>900.0</ele>
        <time>2011-09-23T13:58:33.000Z</time>
      </trkpt>
      <trkpt lon="7.161744916811585" lat="46.613162979483604">
        <ele>899.7999877929688</ele>
        <time>2011-09-23T13:58:35.000Z</time>
      </trkpt>
      <trkpt lon="7.161962930113077" lat="46.613080920651555">
        <ele>899.4000244140625</ele>
        <time>2011-09-23T13:58:38.000Z</time>
      </trkpt>
      <trkpt lon="7.162484955042601" lat="46.613039933145046">
        <ele>898.7999877929688</ele>
        <time>2011-09-23T13:58:42.000Z</time>
      </trkpt>
      <trkpt lon="7.162729958072305" lat="46.61308494396508">
        <ele>898.5999755859375</ele>
        <time>2011-09-23T13:58:45.000Z</time>
      </trkpt>
      <trkpt lon="7.163166990503669" lat="46.613123919814825">
        <ele>898.2000122070312</ele>
        <time>2011-09-23T13:58:50.000Z</time>
      </trkpt>
      <trkpt lon="7.163312919437885" lat="46.613099947571754">
        <ele>897.7999877929688</ele>
        <time>2011-09-23T13:58:52.000Z</time>
      </trkpt>
      <trkpt lon="7.163466978818178" lat="46.61306499503553">
        <ele>897.5999755859375</ele>
        <time>2011-09-23T13:58:54.000Z</time>
      </trkpt>
      <trkpt lon="7.163729919120669" lat="46.612994922325015">
        <ele>897.0</ele>
        <time>2011-09-23T13:58:58.000Z</time>
      </trkpt>
      <trkpt lon="7.164093945175409" lat="46.61297497339547">
        <ele>896.4000244140625</ele>
        <time>2011-09-23T13:59:01.000Z</time>
      </trkpt>
      <trkpt lon="7.164182960987091" lat="46.61300699226558">
        <ele>896.2000122070312</ele>
        <time>2011-09-23T13:59:03.000Z</time>
      </trkpt>
      <trkpt lon="7.164592919871211" lat="46.61306298337877">
        <ele>896.0</ele>
        <time>2011-09-23T13:59:08.000Z</time>
      </trkpt>
      <trkpt lon="7.164749996736646" lat="46.61300992593169">
        <ele>895.5999755859375</ele>
        <time>2011-09-23T13:59:10.000Z</time>
      </trkpt>
      <trkpt lon="7.1649049781262875" lat="46.61295594647527">
        <ele>895.4000244140625</ele>
        <time>2011-09-23T13:59:12.000Z</time>
      </trkpt>
      <trkpt lon="7.165059959515929" lat="46.61290096119046">
        <ele>895.2000122070312</ele>
        <time>2011-09-23T13:59:14.000Z</time>
      </trkpt>
      <trkpt lon="7.165343938395381" lat="46.61278696730733">
        <ele>895.0</ele>
        <time>2011-09-23T13:59:18.000Z</time>
      </trkpt>
      <trkpt lon="7.165578966960311" lat="46.612727958709">
        <ele>894.7999877929688</ele>
        <time>2011-09-23T13:59:21.000Z</time>
      </trkpt>
      <trkpt lon="7.166102919727564" lat="46.612715972587466">
        <ele>894.2000122070312</ele>
        <time>2011-09-23T13:59:27.000Z</time>
      </trkpt>
      <trkpt lon="7.166445991024375" lat="46.61267397925258">
        <ele>893.7999877929688</ele>
        <time>2011-09-23T13:59:31.000Z</time>
      </trkpt>
      <trkpt lon="7.166862990707159" lat="46.612565936520696">
        <ele>893.0</ele>
        <time>2011-09-23T13:59:36.000Z</time>
      </trkpt>
      <trkpt lon="7.167474953457713" lat="46.61258798092604">
        <ele>892.2000122070312</ele>
        <time>2011-09-23T13:59:43.000Z</time>
      </trkpt>
      <trkpt lon="7.167547959834337" lat="46.6125899925828">
        <ele>892.2000122070312</ele>
        <time>2011-09-23T13:59:44.000Z</time>
      </trkpt>
      <trkpt lon="7.167901927605271" lat="46.612669955939054">
        <ele>892.0</ele>
        <time>2011-09-23T13:59:49.000Z</time>
      </trkpt>
      <trkpt lon="7.168043917044997" lat="46.61278294399381">
        <ele>891.4000244140625</ele>
        <time>2011-09-23T13:59:52.000Z</time>
      </trkpt>
      <trkpt lon="7.168257990851998" lat="46.613164991140366">
        <ele>891.5999755859375</ele>
        <time>2011-09-23T14:00:00.000Z</time>
      </trkpt>
      <trkpt lon="7.168372990563512" lat="46.613383926451206">
        <ele>892.7999877929688</ele>
        <time>2011-09-23T14:00:06.000Z</time>
      </trkpt>
      <trkpt lon="7.168441973626614" lat="46.61351694725454">
        <ele>893.7999877929688</ele>
        <time>2011-09-23T14:00:11.000Z</time>
      </trkpt>
      <trkpt lon="7.1686619985848665" lat="46.61347394809127">
        <ele>894.0</ele>
        <time>2011-09-23T14:00:15.000Z</time>
      </trkpt>
      <trkpt lon="7.168831983581185" lat="46.61326297558844">
        <ele>893.7999877929688</ele>
        <time>2011-09-23T14:00:21.000Z</time>
      </trkpt>
      <trkpt lon="7.168903984129429" lat="46.61319692619145">
        <ele>893.7999877929688</ele>
        <time>2011-09-23T14:00:23.000Z</time>
      </trkpt>
      <trkpt lon="7.1693649888038635" lat="46.61295896396041">
        <ele>894.2000122070312</ele>
        <time>2011-09-23T14:00:32.000Z</time>
      </trkpt>
      <trkpt lon="7.169896988198161" lat="46.61288092844188">
        <ele>894.2000122070312</ele>
        <time>2011-09-23T14:00:41.000Z</time>
      </trkpt>
      <trkpt lon="7.170375930145383" lat="46.61285393871367">
        <ele>894.4000244140625</ele>
        <time>2011-09-23T14:00:48.000Z</time>
      </trkpt>
      <trkpt lon="7.171240942552686" lat="46.612841952592134">
        <ele>895.2000122070312</ele>
        <time>2011-09-23T14:01:00.000Z</time>
      </trkpt>
      <trkpt lon="7.171823987737298" lat="46.612776992842555">
        <ele>895.2000122070312</ele>
        <time>2011-09-23T14:01:08.000Z</time>
      </trkpt>
      <trkpt lon="7.172425976023078" lat="46.61267699673772">
        <ele>895.5999755859375</ele>
        <time>2011-09-23T14:01:16.000Z</time>
      </trkpt>
      <trkpt lon="7.172909947112203" lat="46.61246099509299">
        <ele>895.5999755859375</ele>
        <time>2011-09-23T14:01:23.000Z</time>
      </trkpt>
      <trkpt lon="7.1733249351382256" lat="46.61224398761988">
        <ele>896.0</ele>
        <time>2011-09-23T14:01:29.000Z</time>
      </trkpt>
      <trkpt lon="7.173796920105815" lat="46.61210895515978">
        <ele>896.4000244140625</ele>
        <time>2011-09-23T14:01:35.000Z</time>
      </trkpt>
      <trkpt lon="7.174423970282078" lat="46.61194894462824">
        <ele>897.2000122070312</ele>
        <time>2011-09-23T14:01:43.000Z</time>
      </trkpt>
      <trkpt lon="7.1749229449778795" lat="46.61182195879519">
        <ele>897.5999755859375</ele>
        <time>2011-09-23T14:01:50.000Z</time>
      </trkpt>
      <trkpt lon="7.175123943015933" lat="46.61177099682391">
        <ele>897.5999755859375</ele>
        <time>2011-09-23T14:01:53.000Z</time>
      </trkpt>
      <trkpt lon="7.175799943506718" lat="46.611598916351795">
        <ele>898.4000244140625</ele>
        <time>2011-09-23T14:02:03.000Z</time>
      </trkpt>
      <trkpt lon="7.1763289254158735" lat="46.61148592829704">
        <ele>899.4000244140625</ele>
        <time>2011-09-23T14:02:11.000Z</time>
      </trkpt>
      <trkpt lon="7.1767129842191935" lat="46.61145893856883">
        <ele>900.5999755859375</ele>
        <time>2011-09-23T14:02:18.000Z</time>
      </trkpt>
      <trkpt lon="7.177029987797141" lat="46.61145298741758">
        <ele>902.0</ele>
        <time>2011-09-23T14:02:24.000Z</time>
      </trkpt>
      <trkpt lon="7.177332993596792" lat="46.61146095022559">
        <ele>903.0</ele>
        <time>2011-09-23T14:02:30.000Z</time>
      </trkpt>
      <trkpt lon="7.177719986066222" lat="46.611471930518746">
        <ele>904.5999755859375</ele>
        <time>2011-09-23T14:02:38.000Z</time>
      </trkpt>
      <trkpt lon="7.178011927753687" lat="46.61145298741758">
        <ele>905.0</ele>
        <time>2011-09-23T14:02:44.000Z</time>
      </trkpt>
      <trkpt lon="7.178196916356683" lat="46.61141694523394">
        <ele>906.7999877929688</ele>
        <time>2011-09-23T14:02:48.000Z</time>
      </trkpt>
      <trkpt lon="7.17842792160809" lat="46.611342933028936">
        <ele>908.0</ele>
        <time>2011-09-23T14:02:53.000Z</time>
      </trkpt>
      <trkpt lon="7.178789936006069" lat="46.6111409291625">
        <ele>909.0</ele>
        <time>2011-09-23T14:03:01.000Z</time>
      </trkpt>
      <trkpt lon="7.1792239509522915" lat="46.61092392168939">
        <ele>909.7999877929688</ele>
        <time>2011-09-23T14:03:09.000Z</time>
      </trkpt>
      <trkpt lon="7.17982292175293" lat="46.61072099581361">
        <ele>910.2000122070312</ele>
        <time>2011-09-23T14:03:18.000Z</time>
      </trkpt>
      <trkpt lon="7.1807279996573925" lat="46.610542964190245">
        <ele>910.5999755859375</ele>
        <time>2011-09-23T14:03:30.000Z</time>
      </trkpt>
      <trkpt lon="7.180784996598959" lat="46.61053097806871">
        <ele>910.7999877929688</ele>
        <time>2011-09-23T14:03:31.000Z</time>
      </trkpt>
      <trkpt lon="7.181523945182562" lat="46.61036795005202">
        <ele>911.4000244140625</ele>
        <time>2011-09-23T14:03:41.000Z</time>
      </trkpt>
      <trkpt lon="7.182209920138121" lat="46.610221937298775">
        <ele>911.7999877929688</ele>
        <time>2011-09-23T14:03:50.000Z</time>
      </trkpt>
      <trkpt lon="7.183132935315371" lat="46.61001892760396">
        <ele>912.4000244140625</ele>
        <time>2011-09-23T14:04:01.000Z</time>
      </trkpt>
      <trkpt lon="7.183793932199478" lat="46.609875932335854">
        <ele>912.2000122070312</ele>
        <time>2011-09-23T14:04:09.000Z</time>
      </trkpt>
      <trkpt lon="7.1842659171670675" lat="46.609772918745875">
        <ele>912.4000244140625</ele>
        <time>2011-09-23T14:04:15.000Z</time>
      </trkpt>
      <trkpt lon="7.184483930468559" lat="46.609726985916495">
        <ele>912.4000244140625</ele>
        <time>2011-09-23T14:04:18.000Z</time>
      </trkpt>
      <trkpt lon="7.184690963476896" lat="46.609682980924845">
        <ele>912.4000244140625</ele>
        <time>2011-09-23T14:04:21.000Z</time>
      </trkpt>
      <trkpt lon="7.185248946771026" lat="46.60956496372819">
        <ele>912.4000244140625</ele>
        <time>2011-09-23T14:04:30.000Z</time>
      </trkpt>
      <trkpt lon="7.185541978105903" lat="46.60950293764472">
        <ele>913.0</ele>
        <time>2011-09-23T14:04:36.000Z</time>
      </trkpt>
      <trkpt lon="7.185618923977017" lat="46.60948692820966">
        <ele>913.2000122070312</ele>
        <time>2011-09-23T14:04:40.000Z</time>
      </trkpt>
      <trkpt lon="7.185618923977017" lat="46.60948692820966">
        <ele>913.4000244140625</ele>
        <time>2011-09-23T14:05:07.000Z</time>
      </trkpt>
      <trkpt lon="7.185585983097553" lat="46.60949396900833">
        <ele>913.4000244140625</ele>
        <time>2011-09-23T14:05:39.000Z</time>
      </trkpt>
      <trkpt lon="7.185753956437111" lat="46.60945792682469">
        <ele>913.4000244140625</ele>
        <time>2011-09-23T14:05:45.000Z</time>
      </trkpt>
      <trkpt lon="7.186109935864806" lat="46.609382992610335">
        <ele>913.5999755859375</ele>
        <time>2011-09-23T14:05:53.000Z</time>
      </trkpt>
      <trkpt lon="7.18647999688983" lat="46.60930495709181">
        <ele>913.7999877929688</ele>
        <time>2011-09-23T14:06:01.000Z</time>
      </trkpt>
      <trkpt lon="7.186499945819378" lat="46.609299927949905">
        <ele>913.7999877929688</ele>
        <time>2011-09-23T14:06:04.000Z</time>
      </trkpt>
      <trkpt lon="7.186552919447422" lat="46.60928894765675">
        <ele>914.0</ele>
        <time>2011-09-23T14:06:53.000Z</time>
      </trkpt>
      <trkpt lon="7.186714941635728" lat="46.609254917129874">
        <ele>914.2000122070312</ele>
        <time>2011-09-23T14:06:57.000Z</time>
      </trkpt>
      <trkpt lon="7.187092965468764" lat="46.60917495377362">
        <ele>915.0</ele>
        <time>2011-09-23T14:07:02.000Z</time>
      </trkpt>
      <trkpt lon="7.1876489371061325" lat="46.60905693657696">
        <ele>915.5999755859375</ele>
        <time>2011-09-23T14:07:08.000Z</time>
      </trkpt>
      <trkpt lon="7.188889961689711" lat="46.608800953254104">
        <ele>916.4000244140625</ele>
        <time>2011-09-23T14:07:21.000Z</time>
      </trkpt>
      <trkpt lon="7.18992093577981" lat="46.60857992246747">
        <ele>917.0</ele>
        <time>2011-09-23T14:07:32.000Z</time>
      </trkpt>
      <trkpt lon="7.190997926518321" lat="46.608347995206714">
        <ele>917.5999755859375</ele>
        <time>2011-09-23T14:07:44.000Z</time>
      </trkpt>
      <trkpt lon="7.1923289727419615" lat="46.60806393250823">
        <ele>918.0</ele>
        <time>2011-09-23T14:07:59.000Z</time>
      </trkpt>
      <trkpt lon="7.1934189554303885" lat="46.60783996805549">
        <ele>919.2000122070312</ele>
        <time>2011-09-23T14:08:11.000Z</time>
      </trkpt>
      <trkpt lon="7.193882977589965" lat="46.60773896612227">
        <ele>919.5999755859375</ele>
        <time>2011-09-23T14:08:17.000Z</time>
      </trkpt>
      <trkpt lon="7.194273993372917" lat="46.60765296779573">
        <ele>919.7999877929688</ele>
        <time>2011-09-23T14:08:23.000Z</time>
      </trkpt>
      <trkpt lon="7.194608934223652" lat="46.607579961419106">
        <ele>920.2000122070312</ele>
        <time>2011-09-23T14:08:29.000Z</time>
      </trkpt>
      <trkpt lon="7.195013947784901" lat="46.607493963092566">
        <ele>920.5999755859375</ele>
        <time>2011-09-23T14:08:34.000Z</time>
      </trkpt>
      <trkpt lon="7.195969987660646" lat="46.60729095339775">
        <ele>921.2000122070312</ele>
        <time>2011-09-23T14:08:44.000Z</time>
      </trkpt>
      <trkpt lon="7.196842962875962" lat="46.60711493343115">
        <ele>921.7999877929688</ele>
        <time>2011-09-23T14:08:53.000Z</time>
      </trkpt>
      <trkpt lon="7.197506977245212" lat="46.60696498118341">
        <ele>922.5999755859375</ele>
        <time>2011-09-23T14:09:00.000Z</time>
      </trkpt>
      <trkpt lon="7.197995977476239" lat="46.60670598037541">
        <ele>923.0</ele>
        <time>2011-09-23T14:09:06.000Z</time>
      </trkpt>
      <trkpt lon="7.1980709955096245" lat="46.606657952070236">
        <ele>923.2000122070312</ele>
        <time>2011-09-23T14:09:07.000Z</time>
      </trkpt>
      <trkpt lon="7.198474919423461" lat="46.60625193268061">
        <ele>924.0</ele>
        <time>2011-09-23T14:09:14.000Z</time>
      </trkpt>
      <trkpt lon="7.198607940226793" lat="46.60606694407761">
        <ele>924.4000244140625</ele>
        <time>2011-09-23T14:09:17.000Z</time>
      </trkpt>
      <trkpt lon="7.198937935754657" lat="46.605496974661946">
        <ele>925.5999755859375</ele>
        <time>2011-09-23T14:09:26.000Z</time>
      </trkpt>
      <trkpt lon="7.199259968474507" lat="46.604940919205546">
        <ele>926.5999755859375</ele>
        <time>2011-09-23T14:09:35.000Z</time>
      </trkpt>
      <trkpt lon="7.199511928483844" lat="46.604635985568166">
        <ele>927.2000122070312</ele>
        <time>2011-09-23T14:09:40.000Z</time>
      </trkpt>
      <trkpt lon="7.20012498088181" lat="46.60402192734182">
        <ele>928.0</ele>
        <time>2011-09-23T14:09:48.000Z</time>
      </trkpt>
      <trkpt lon="7.200379958376288" lat="46.60376795567572">
        <ele>928.7999877929688</ele>
        <time>2011-09-23T14:09:54.000Z</time>
      </trkpt>
      <trkpt lon="7.200541980564594" lat="46.603604927659035">
        <ele>929.2000122070312</ele>
        <time>2011-09-23T14:09:59.000Z</time>
      </trkpt>
      <trkpt lon="7.200822941958904" lat="46.60331198014319">
        <ele>929.5999755859375</ele>
        <time>2011-09-23T14:10:06.000Z</time>
      </trkpt>
      <trkpt lon="7.201151931658387" lat="46.60300998017192">
        <ele>929.7999877929688</ele>
        <time>2011-09-23T14:10:16.000Z</time>
      </trkpt>
      <trkpt lon="7.2016009502112865" lat="46.6027189604938">
        <ele>930.7999877929688</ele>
        <time>2011-09-23T14:10:26.000Z</time>
      </trkpt>
      <trkpt lon="7.202113922685385" lat="46.60247093997896">
        <ele>931.7999877929688</ele>
        <time>2011-09-23T14:10:36.000Z</time>
      </trkpt>
      <trkpt lon="7.202696967869997" lat="46.60223599523306">
        <ele>932.2000122070312</ele>
        <time>2011-09-23T14:10:47.000Z</time>
      </trkpt>
      <trkpt lon="7.20289696007967" lat="46.60215594805777">
        <ele>932.4000244140625</ele>
        <time>2011-09-23T14:10:51.000Z</time>
      </trkpt>
      <trkpt lon="7.202894948422909" lat="46.601988980546594">
        <ele>932.4000244140625</ele>
        <time>2011-09-23T14:10:55.000Z</time>
      </trkpt>
      <trkpt lon="7.202841974794865" lat="46.60192091949284">
        <ele>932.2000122070312</ele>
        <time>2011-09-23T14:10:57.000Z</time>
      </trkpt>
      <trkpt lon="7.20250996761024" lat="46.60150391981006">
        <ele>932.2000122070312</ele>
        <time>2011-09-23T14:11:07.000Z</time>
      </trkpt>
      <trkpt lon="7.202264964580536" lat="46.60118599422276">
        <ele>932.5999755859375</ele>
        <time>2011-09-23T14:11:15.000Z</time>
      </trkpt>
      <trkpt lon="7.202097997069359" lat="46.600986924022436">
        <ele>933.2000122070312</ele>
        <time>2011-09-23T14:11:20.000Z</time>
      </trkpt>
      <trkpt lon="7.20173598267138" lat="46.60069799982011">
        <ele>934.0</ele>
        <time>2011-09-23T14:11:28.000Z</time>
      </trkpt>
      <trkpt lon="7.201588964089751" lat="46.600529942661524">
        <ele>934.4000244140625</ele>
        <time>2011-09-23T14:11:32.000Z</time>
      </trkpt>
      <trkpt lon="7.201334992423654" lat="46.60019592382014">
        <ele>935.5999755859375</ele>
        <time>2011-09-23T14:11:40.000Z</time>
      </trkpt>
      <trkpt lon="7.2011759877204895" lat="46.59996994771063">
        <ele>937.2000122070312</ele>
        <time>2011-09-23T14:11:47.000Z</time>
      </trkpt>
      <trkpt lon="7.201129971072078" lat="46.599841956049204">
        <ele>937.2000122070312</ele>
        <time>2011-09-23T14:11:51.000Z</time>
      </trkpt>
      <trkpt lon="7.201173976063728" lat="46.59978395327926">
        <ele>937.2000122070312</ele>
        <time>2011-09-23T14:11:53.000Z</time>
      </trkpt>
      <trkpt lon="7.20132895745337" lat="46.59959896467626">
        <ele>937.7999877929688</ele>
        <time>2011-09-23T14:11:59.000Z</time>
      </trkpt>
      <trkpt lon="7.201386960223317" lat="46.59952897578478">
        <ele>937.7999877929688</ele>
        <time>2011-09-23T14:12:01.000Z</time>
      </trkpt>
      <trkpt lon="7.201494919136167" lat="46.59916595555842">
        <ele>938.4000244140625</ele>
        <time>2011-09-23T14:12:09.000Z</time>
      </trkpt>
      <trkpt lon="7.201494919136167" lat="46.59899194724858">
        <ele>938.7999877929688</ele>
        <time>2011-09-23T14:12:15.000Z</time>
      </trkpt>
      <trkpt lon="7.201521992683411" lat="46.59865994006395">
        <ele>939.5999755859375</ele>
        <time>2011-09-23T14:12:24.000Z</time>
      </trkpt>
      <trkpt lon="7.201640931889415" lat="46.59823698922992">
        <ele>940.0</ele>
        <time>2011-09-23T14:12:32.000Z</time>
      </trkpt>
      <trkpt lon="7.2016919776797295" lat="46.598036997020245">
        <ele>940.5999755859375</ele>
        <time>2011-09-23T14:12:39.000Z</time>
      </trkpt>
      <trkpt lon="7.201705975458026" lat="46.59790397621691">
        <ele>940.5999755859375</ele>
        <time>2011-09-23T14:12:44.000Z</time>
      </trkpt>
      <trkpt lon="7.201637998223305" lat="46.597524946555495">
        <ele>941.2000122070312</ele>
        <time>2011-09-23T14:12:52.000Z</time>
      </trkpt>
      <trkpt lon="7.2014489863067865" lat="46.59714298322797">
        <ele>941.7999877929688</ele>
        <time>2011-09-23T14:12:59.000Z</time>
      </trkpt>
      <trkpt lon="7.201060988008976" lat="46.59663797356188">
        <ele>943.0</ele>
        <time>2011-09-23T14:13:08.000Z</time>
      </trkpt>
      <trkpt lon="7.200693944469094" lat="46.59617898054421">
        <ele>944.4000244140625</ele>
        <time>2011-09-23T14:13:17.000Z</time>
      </trkpt>
      <trkpt lon="7.200419940054417" lat="46.59573499113321">
        <ele>945.0</ele>
        <time>2011-09-23T14:13:23.000Z</time>
      </trkpt>
      <trkpt lon="7.200129926204681" lat="46.59532696008682">
        <ele>945.5999755859375</ele>
        <time>2011-09-23T14:13:29.000Z</time>
      </trkpt>
      <trkpt lon="7.199907973408699" lat="46.59603296779096">
        <ele>946.4000244140625</ele>
        <time>2011-09-23T14:13:35.000Z</time>
      </trkpt>
      <trkpt lon="7.199798924848437" lat="46.59578897058964">
        <ele>946.7999877929688</ele>
        <time>2011-09-23T14:13:41.000Z</time>
      </trkpt>
      <trkpt lon="7.199774952605367" lat="46.595696937292814">
        <ele>946.7999877929688</ele>
        <time>2011-09-23T14:13:43.000Z</time>
      </trkpt>
      <trkpt lon="7.199746957048774" lat="46.59553399309516">
        <ele>946.7999877929688</ele>
        <time>2011-09-23T14:13:46.000Z</time>
      </trkpt>
      <trkpt lon="7.199679985642433" lat="46.59524196758866">
        <ele>947.7999877929688</ele>
        <time>2011-09-23T14:13:52.000Z</time>
      </trkpt>
      <trkpt lon="7.1995349787175655" lat="46.594930998981">
        <ele>949.2000122070312</ele>
        <time>2011-09-23T14:13:59.000Z</time>
      </trkpt>
      <trkpt lon="7.1994489803910255" lat="46.594709968194366">
        <ele>949.7999877929688</ele>
        <time>2011-09-23T14:14:04.000Z</time>
      </trkpt>
      <trkpt lon="7.199427941814065" lat="46.594577953219414">
        <ele>950.2000122070312</ele>
        <time>2011-09-23T14:14:07.000Z</time>
      </trkpt>
      <trkpt lon="7.199420984834433" lat="46.594493966549635">
        <ele>950.4000244140625</ele>
        <time>2011-09-23T14:14:09.000Z</time>
      </trkpt>
      <trkpt lon="7.1994139440357685" lat="46.594254998490214">
        <ele>951.2000122070312</ele>
        <time>2011-09-23T14:14:15.000Z</time>
      </trkpt>
      <trkpt lon="7.1994139440357685" lat="46.594020975753665">
        <ele>952.0</ele>
        <time>2011-09-23T14:14:21.000Z</time>
      </trkpt>
      <trkpt lon="7.199302967637777" lat="46.593677988275886">
        <ele>952.7999877929688</ele>
        <time>2011-09-23T14:14:29.000Z</time>
      </trkpt>
      <trkpt lon="7.19917799346149" lat="46.5933389402926">
        <ele>953.5999755859375</ele>
        <time>2011-09-23T14:14:37.000Z</time>
      </trkpt>
      <trkpt lon="7.199082942679524" lat="46.593054961413145">
        <ele>954.5999755859375</ele>
        <time>2011-09-23T14:14:44.000Z</time>
      </trkpt>
      <trkpt lon="7.1990319807082415" lat="46.59289193339646">
        <ele>955.0</ele>
        <time>2011-09-23T14:14:48.000Z</time>
      </trkpt>
      <trkpt lon="7.19896299764514" lat="46.59257895313203">
        <ele>956.5999755859375</ele>
        <time>2011-09-23T14:14:56.000Z</time>
      </trkpt>
      <trkpt lon="7.19896299764514" lat="46.592540983110666">
        <ele>956.7999877929688</ele>
        <time>2011-09-23T14:14:57.000Z</time>
      </trkpt>
      <trkpt lon="7.199020916596055" lat="46.592279970645905">
        <ele>957.7999877929688</ele>
        <time>2011-09-23T14:15:04.000Z</time>
      </trkpt>
      <trkpt lon="7.199040949344635" lat="46.59208098426461">
        <ele>959.0</ele>
        <time>2011-09-23T14:15:09.000Z</time>
      </trkpt>
      <trkpt lon="7.198955956846476" lat="46.59191996790469">
        <ele>960.5999755859375</ele>
        <time>2011-09-23T14:15:15.000Z</time>
      </trkpt>
      <trkpt lon="7.198850931599736" lat="46.59171394072473">
        <ele>961.5999755859375</ele>
        <time>2011-09-23T14:15:22.000Z</time>
      </trkpt>
      <trkpt lon="7.19868597574532" lat="46.59140397794545">
        <ele>962.0</ele>
        <time>2011-09-23T14:15:30.000Z</time>
      </trkpt>
      <trkpt lon="7.1986049227416515" lat="46.59121295437217">
        <ele>962.0</ele>
        <time>2011-09-23T14:15:34.000Z</time>
      </trkpt>
      <trkpt lon="7.198588997125626" lat="46.59091397188604">
        <ele>962.4000244140625</ele>
        <time>2011-09-23T14:15:40.000Z</time>
      </trkpt>
      <trkpt lon="7.198636941611767" lat="46.5906329266727">
        <ele>963.4000244140625</ele>
        <time>2011-09-23T14:15:47.000Z</time>
      </trkpt>
      <trkpt lon="7.198633924126625" lat="46.590435951948166">
        <ele>964.4000244140625</ele>
        <time>2011-09-23T14:15:53.000Z</time>
      </trkpt>
      <trkpt lon="7.198567958548665" lat="46.59018499776721">
        <ele>964.5999755859375</ele>
        <time>2011-09-23T14:16:00.000Z</time>
      </trkpt>
      <trkpt lon="7.198401996865869" lat="46.58993094228208">
        <ele>965.4000244140625</ele>
        <time>2011-09-23T14:16:07.000Z</time>
      </trkpt>
      <trkpt lon="7.19823494553566" lat="46.5895879548043">
        <ele>966.7999877929688</ele>
        <time>2011-09-23T14:16:16.000Z</time>
      </trkpt>
      <trkpt lon="7.19814894720912" lat="46.58931897953153">
        <ele>967.4000244140625</ele>
        <time>2011-09-23T14:16:23.000Z</time>
      </trkpt>
      <trkpt lon="7.198087926954031" lat="46.58915092237294">
        <ele>967.7999877929688</ele>
        <time>2011-09-23T14:16:27.000Z</time>
      </trkpt>
      <trkpt lon="7.198018943890929" lat="46.588909942656755">
        <ele>968.4000244140625</ele>
        <time>2011-09-23T14:16:33.000Z</time>
      </trkpt>
      <trkpt lon="7.198091950267553" lat="46.58864691853523">
        <ele>969.2000122070312</ele>
        <time>2011-09-23T14:16:40.000Z</time>
      </trkpt>
      <trkpt lon="7.19812698662281" lat="46.588589921593666">
        <ele>969.4000244140625</ele>
        <time>2011-09-23T14:16:42.000Z</time>
      </trkpt>
      <trkpt lon="7.198183983564377" lat="46.58847098238766">
        <ele>970.2000122070312</ele>
        <time>2011-09-23T14:16:46.000Z</time>
      </trkpt>
      <trkpt lon="7.19829898327589" lat="46.588264955207705">
        <ele>971.2000122070312</ele>
        <time>2011-09-23T14:16:52.000Z</time>
      </trkpt>
      <trkpt lon="7.198418928310275" lat="46.58799597993493">
        <ele>972.5999755859375</ele>
        <time>2011-09-23T14:16:58.000Z</time>
      </trkpt>
      <trkpt lon="7.198442984372377" lat="46.5879559982568">
        <ele>974.0</ele>
        <time>2011-09-23T14:17:02.000Z</time>
      </trkpt>
      <trkpt lon="7.198447929695249" lat="46.58794694580138">
        <ele>975.7999877929688</ele>
        <time>2011-09-23T14:17:08.000Z</time>
      </trkpt>
      <trkpt lon="7.198491934686899" lat="46.58788894303143">
        <ele>977.2000122070312</ele>
        <time>2011-09-23T14:17:12.000Z</time>
      </trkpt>
      <trkpt lon="7.198501992970705" lat="46.58781794831157">
        <ele>978.2000122070312</ele>
        <time>2011-09-23T14:17:16.000Z</time>
      </trkpt>
      <trkpt lon="7.198396967723966" lat="46.587748965248466">
        <ele>980.2000122070312</ele>
        <time>2011-09-23T14:17:23.000Z</time>
      </trkpt>
      <trkpt lon="7.198293954133987" lat="46.587683921679854">
        <ele>981.7999877929688</ele>
        <time>2011-09-23T14:17:29.000Z</time>
      </trkpt>
      <trkpt lon="7.198120951652527" lat="46.58754997886717">
        <ele>984.4000244140625</ele>
        <time>2011-09-23T14:17:38.000Z</time>
      </trkpt>
      <trkpt lon="7.19808298163116" lat="46.58743891865015">
        <ele>986.4000244140625</ele>
        <time>2011-09-23T14:17:45.000Z</time>
      </trkpt>
      <trkpt lon="7.19804098829627" lat="46.58737496472895">
        <ele>988.0</ele>
        <time>2011-09-23T14:17:51.000Z</time>
      </trkpt>
      <trkpt lon="7.197997989133" lat="46.58730992116034">
        <ele>989.5999755859375</ele>
        <time>2011-09-23T14:17:58.000Z</time>
      </trkpt>
      <trkpt lon="7.1979069616645575" lat="46.587253930047154">
        <ele>991.2000122070312</ele>
        <time>2011-09-23T14:18:06.000Z</time>
      </trkpt>
      <trkpt lon="7.197810988873243" lat="46.5871929936111">
        <ele>992.4000244140625</ele>
        <time>2011-09-23T14:18:13.000Z</time>
      </trkpt>
      <trkpt lon="7.197725996375084" lat="46.58707095310092">
        <ele>993.0</ele>
        <time>2011-09-23T14:18:18.000Z</time>
      </trkpt>
      <trkpt lon="7.197697916999459" lat="46.586905997246504">
        <ele>994.0</ele>
        <time>2011-09-23T14:18:24.000Z</time>
      </trkpt>
      <trkpt lon="7.197637986391783" lat="46.58681899309158">
        <ele>995.2000122070312</ele>
        <time>2011-09-23T14:18:30.000Z</time>
      </trkpt>
      <trkpt lon="7.197559950873256" lat="46.586724948138">
        <ele>997.0</ele>
        <time>2011-09-23T14:18:36.000Z</time>
      </trkpt>
      <trkpt lon="7.197449980303645" lat="46.58662394620478">
        <ele>998.4000244140625</ele>
        <time>2011-09-23T14:18:44.000Z</time>
      </trkpt>
      <trkpt lon="7.197342943400145" lat="46.586504923179746">
        <ele>1000.0</ele>
        <time>2011-09-23T14:18:51.000Z</time>
      </trkpt>
      <trkpt lon="7.197260968387127" lat="46.5863689687103">
        <ele>1001.5999755859375</ele>
        <time>2011-09-23T14:18:59.000Z</time>
      </trkpt>
      <trkpt lon="7.197146974503994" lat="46.586223961785436">
        <ele>1003.2000122070312</ele>
        <time>2011-09-23T14:19:08.000Z</time>
      </trkpt>
      <trkpt lon="7.196984952315688" lat="46.58604199066758">
        <ele>1004.4000244140625</ele>
        <time>2011-09-23T14:19:17.000Z</time>
      </trkpt>
      <trkpt lon="7.196787977591157" lat="46.5858649648726">
        <ele>1005.5999755859375</ele>
        <time>2011-09-23T14:19:27.000Z</time>
      </trkpt>
      <trkpt lon="7.196599971503019" lat="46.585769997909665">
        <ele>1006.4000244140625</ele>
        <time>2011-09-23T14:19:34.000Z</time>
      </trkpt>
      <trkpt lon="7.19638598151505" lat="46.585705960169435">
        <ele>1008.0</ele>
        <time>2011-09-23T14:19:42.000Z</time>
      </trkpt>
      <trkpt lon="7.196203926578164" lat="46.58569497987628">
        <ele>1009.5999755859375</ele>
        <time>2011-09-23T14:19:51.000Z</time>
      </trkpt>
      <trkpt lon="7.196125974878669" lat="46.585685927420855">
        <ele>1010.5999755859375</ele>
        <time>2011-09-23T14:19:55.000Z</time>
      </trkpt>
      <trkpt lon="7.195957917720079" lat="46.585687939077616">
        <ele>1012.5999755859375</ele>
        <time>2011-09-23T14:20:04.000Z</time>
      </trkpt>
      <trkpt lon="7.195804947987199" lat="46.58569992519915">
        <ele>1014.2000122070312</ele>
        <time>2011-09-23T14:20:12.000Z</time>
      </trkpt>
      <trkpt lon="7.1956569235771894" lat="46.58570093102753">
        <ele>1016.2000122070312</ele>
        <time>2011-09-23T14:20:20.000Z</time>
      </trkpt>
      <trkpt lon="7.195622976869345" lat="46.58570093102753">
        <ele>1016.5999755859375</ele>
        <time>2011-09-23T14:20:22.000Z</time>
      </trkpt>
      <trkpt lon="7.195524992421269" lat="46.58570093102753">
        <ele>1018.0</ele>
        <time>2011-09-23T14:20:28.000Z</time>
      </trkpt>
      <trkpt lon="7.195507977157831" lat="46.58570093102753">
        <ele>1018.0</ele>
        <time>2011-09-23T14:20:29.000Z</time>
      </trkpt>
      <trkpt lon="7.195351989939809" lat="46.58570093102753">
        <ele>1020.2000122070312</ele>
        <time>2011-09-23T14:20:38.000Z</time>
      </trkpt>
      <trkpt lon="7.195200948044658" lat="46.58570093102753">
        <ele>1022.2000122070312</ele>
        <time>2011-09-23T14:20:46.000Z</time>
      </trkpt>
      <trkpt lon="7.195102963596582" lat="46.5856939740479">
        <ele>1023.4000244140625</ele>
        <time>2011-09-23T14:20:52.000Z</time>
      </trkpt>
      <trkpt lon="7.194948988035321" lat="46.585665978491306">
        <ele>1025.199951171875</ele>
        <time>2011-09-23T14:21:02.000Z</time>
      </trkpt>
      <trkpt lon="7.19484094530344" lat="46.58559096045792">
        <ele>1026.800048828125</ele>
        <time>2011-09-23T14:21:09.000Z</time>
      </trkpt>
      <trkpt lon="7.194769950583577" lat="46.58550295047462">
        <ele>1028.4000244140625</ele>
        <time>2011-09-23T14:21:16.000Z</time>
      </trkpt>
      <trkpt lon="7.194727957248688" lat="46.585446959361434">
        <ele>1029.800048828125</ele>
        <time>2011-09-23T14:21:22.000Z</time>
      </trkpt>
      <trkpt lon="7.194669954478741" lat="46.58535995520651">
        <ele>1031.4000244140625</ele>
        <time>2011-09-23T14:21:29.000Z</time>
      </trkpt>
      <trkpt lon="7.194621926173568" lat="46.585274962708354">
        <ele>1033.199951171875</ele>
        <time>2011-09-23T14:21:38.000Z</time>
      </trkpt>
      <trkpt lon="7.194561995565891" lat="46.585172954946756">
        <ele>1035.0</ele>
        <time>2011-09-23T14:21:47.000Z</time>
      </trkpt>
      <trkpt lon="7.194533916190267" lat="46.58526892773807">
        <ele>1035.5999755859375</ele>
        <time>2011-09-23T14:21:52.000Z</time>
      </trkpt>
      <trkpt lon="7.194533916190267" lat="46.58526892773807">
        <ele>1035.800048828125</ele>
        <time>2011-09-23T14:21:55.000Z</time>
      </trkpt>
      <trkpt lon="7.194533916190267" lat="46.58526892773807">
        <ele>1036.0</ele>
        <time>2011-09-23T14:22:04.000Z</time>
      </trkpt>
      <trkpt lon="7.194462921470404" lat="46.58494094386697">
        <ele>1036.5999755859375</ele>
        <time>2011-09-23T14:22:18.000Z</time>
      </trkpt>
      <trkpt lon="7.194426963105798" lat="46.58487397246063">
        <ele>1038.4000244140625</ele>
        <time>2011-09-23T14:22:26.000Z</time>
      </trkpt>
      <trkpt lon="7.194401985034347" lat="46.58482996746898">
        <ele>1039.800048828125</ele>
        <time>2011-09-23T14:22:33.000Z</time>
      </trkpt>
      <trkpt lon="7.194353956729174" lat="46.584741957485676">
        <ele>1041.4000244140625</ele>
        <time>2011-09-23T14:22:41.000Z</time>
      </trkpt>
      <trkpt lon="7.194290924817324" lat="46.584676997736096">
        <ele>1042.800048828125</ele>
        <time>2011-09-23T14:22:48.000Z</time>
      </trkpt>
      <trkpt lon="7.194213978946209" lat="46.58459996804595">
        <ele>1044.0</ele>
        <time>2011-09-23T14:22:54.000Z</time>
      </trkpt>
      <trkpt lon="7.194124963134527" lat="46.58450994640589">
        <ele>1045.4000244140625</ele>
        <time>2011-09-23T14:23:01.000Z</time>
      </trkpt>
      <trkpt lon="7.19397995620966" lat="46.584377931430936">
        <ele>1047.4000244140625</ele>
        <time>2011-09-23T14:23:12.000Z</time>
      </trkpt>
      <trkpt lon="7.193867973983288" lat="46.584285981953144">
        <ele>1049.0</ele>
        <time>2011-09-23T14:23:20.000Z</time>
      </trkpt>
      <trkpt lon="7.193736964836717" lat="46.584203923121095">
        <ele>1050.800048828125</ele>
        <time>2011-09-23T14:23:30.000Z</time>
      </trkpt>
      <trkpt lon="7.193627916276455" lat="46.58414793200791">
        <ele>1052.0</ele>
        <time>2011-09-23T14:23:37.000Z</time>
      </trkpt>
      <trkpt lon="7.1935279201716185" lat="46.58408992923796">
        <ele>1053.5999755859375</ele>
        <time>2011-09-23T14:23:44.000Z</time>
      </trkpt>
      <trkpt lon="7.193365981802344" lat="46.584053970873356">
        <ele>1055.199951171875</ele>
        <time>2011-09-23T14:23:53.000Z</time>
      </trkpt>
      <trkpt lon="7.193217957392335" lat="46.584007954224944">
        <ele>1056.800048828125</ele>
        <time>2011-09-23T14:24:03.000Z</time>
      </trkpt>
      <trkpt lon="7.193106980994344" lat="46.583921955898404">
        <ele>1058.199951171875</ele>
        <time>2011-09-23T14:24:11.000Z</time>
      </trkpt>
      <trkpt lon="7.193070938810706" lat="46.583794970065355">
        <ele>1060.199951171875</ele>
        <time>2011-09-23T14:24:21.000Z</time>
      </trkpt>
      <trkpt lon="7.193006984889507" lat="46.58371492289007">
        <ele>1061.5999755859375</ele>
        <time>2011-09-23T14:24:29.000Z</time>
      </trkpt>
      <trkpt lon="7.192919980734587" lat="46.58362791873515">
        <ele>1062.800048828125</ele>
        <time>2011-09-23T14:24:37.000Z</time>
      </trkpt>
      <trkpt lon="7.192834988236427" lat="46.58354192040861">
        <ele>1064.0</ele>
        <time>2011-09-23T14:24:44.000Z</time>
      </trkpt>
      <trkpt lon="7.192825935781002" lat="46.583411917090416">
        <ele>1065.199951171875</ele>
        <time>2011-09-23T14:24:52.000Z</time>
      </trkpt>
      <trkpt lon="7.192825935781002" lat="46.583275962620974">
        <ele>1066.800048828125</ele>
        <time>2011-09-23T14:25:00.000Z</time>
      </trkpt>
      <trkpt lon="7.1928169671446085" lat="46.58326297067106">
        <ele>1067.0</ele>
        <time>2011-09-23T14:25:01.000Z</time>
      </trkpt>
      <trkpt lon="7.192754941061139" lat="46.58321192488074">
        <ele>1067.800048828125</ele>
        <time>2011-09-23T14:25:06.000Z</time>
      </trkpt>
      <trkpt lon="7.19267095439136" lat="46.58323799259961">
        <ele>1068.5999755859375</ele>
        <time>2011-09-23T14:25:11.000Z</time>
      </trkpt>
      <trkpt lon="7.192576993256807" lat="46.583388950675726">
        <ele>1070.4000244140625</ele>
        <time>2011-09-23T14:25:19.000Z</time>
      </trkpt>
      <trkpt lon="7.1924959402531385" lat="46.58352993428707">
        <ele>1072.5999755859375</ele>
        <time>2011-09-23T14:25:28.000Z</time>
      </trkpt>
      <trkpt lon="7.1923949383199215" lat="46.583666978403926">
        <ele>1074.5999755859375</ele>
        <time>2011-09-23T14:25:37.000Z</time>
      </trkpt>
      <trkpt lon="7.192333918064833" lat="46.58378994092345">
        <ele>1076.199951171875</ele>
        <time>2011-09-23T14:25:45.000Z</time>
      </trkpt>
      <trkpt lon="7.192273987457156" lat="46.58392799086869">
        <ele>1078.199951171875</ele>
        <time>2011-09-23T14:25:55.000Z</time>
      </trkpt>
      <trkpt lon="7.19221699051559" lat="46.58401792868972">
        <ele>1079.5999755859375</ele>
        <time>2011-09-23T14:26:02.000Z</time>
      </trkpt>
      <trkpt lon="7.192141972482204" lat="46.58415195532143">
        <ele>1081.4000244140625</ele>
        <time>2011-09-23T14:26:12.000Z</time>
      </trkpt>
      <trkpt lon="7.192061925306916" lat="46.58423393033445">
        <ele>1082.800048828125</ele>
        <time>2011-09-23T14:26:19.000Z</time>
      </trkpt>
      <trkpt lon="7.191950948908925" lat="46.58427894115448">
        <ele>1083.5999755859375</ele>
        <time>2011-09-23T14:26:24.000Z</time>
      </trkpt>
      <trkpt lon="7.191860927268863" lat="46.58419093117118">
        <ele>1084.0</ele>
        <time>2011-09-23T14:26:29.000Z</time>
      </trkpt>
      <trkpt lon="7.191864950582385" lat="46.5840879175812">
        <ele>1085.4000244140625</ele>
        <time>2011-09-23T14:26:35.000Z</time>
      </trkpt>
      <trkpt lon="7.191887916997075" lat="46.583945928141475">
        <ele>1087.0</ele>
        <time>2011-09-23T14:26:45.000Z</time>
      </trkpt>
      <trkpt lon="7.191908955574036" lat="46.583838975057006">
        <ele>1088.4000244140625</ele>
        <time>2011-09-23T14:26:53.000Z</time>
      </trkpt>
      <trkpt lon="7.191945919767022" lat="46.58373596146703">
        <ele>1090.0</ele>
        <time>2011-09-23T14:27:01.000Z</time>
      </trkpt>
      <trkpt lon="7.191978944465518" lat="46.583644933998585">
        <ele>1091.199951171875</ele>
        <time>2011-09-23T14:27:08.000Z</time>
      </trkpt>
      <trkpt lon="7.1920129749923944" lat="46.58354192040861">
        <ele>1092.5999755859375</ele>
        <time>2011-09-23T14:27:17.000Z</time>
      </trkpt>
      <trkpt lon="7.192028984427452" lat="46.58345399424434">
        <ele>1093.800048828125</ele>
        <time>2011-09-23T14:27:25.000Z</time>
      </trkpt>
      <trkpt lon="7.192046921700239" lat="46.58335592597723">
        <ele>1095.199951171875</ele>
        <time>2011-09-23T14:27:33.000Z</time>
      </trkpt>
      <trkpt lon="7.192064942792058" lat="46.5832519903779">
        <ele>1096.5999755859375</ele>
        <time>2011-09-23T14:27:41.000Z</time>
      </trkpt>
      <trkpt lon="7.19206896610558" lat="46.58322491683066">
        <ele>1097.0</ele>
        <time>2011-09-23T14:27:43.000Z</time>
      </trkpt>
      <trkpt lon="7.192074917256832" lat="46.58315492793918">
        <ele>1098.0</ele>
        <time>2011-09-23T14:27:48.000Z</time>
      </trkpt>
      <trkpt lon="7.192074917256832" lat="46.58300799317658">
        <ele>1099.4000244140625</ele>
        <time>2011-09-23T14:27:57.000Z</time>
      </trkpt>
      <trkpt lon="7.192062931135297" lat="46.58287497237325">
        <ele>1100.800048828125</ele>
        <time>2011-09-23T14:28:05.000Z</time>
      </trkpt>
      <trkpt lon="7.192036947235465" lat="46.582761984318495">
        <ele>1102.199951171875</ele>
        <time>2011-09-23T14:28:12.000Z</time>
      </trkpt>
      <trkpt lon="7.192011969164014" lat="46.58272996544838">
        <ele>1103.199951171875</ele>
        <time>2011-09-23T14:28:18.000Z</time>
      </trkpt>
      <trkpt lon="7.191959917545319" lat="46.582717979326844">
        <ele>1104.199951171875</ele>
        <time>2011-09-23T14:28:24.000Z</time>
      </trkpt>
      <trkpt lon="7.19191893003881" lat="46.58274597488344">
        <ele>1105.0</ele>
        <time>2011-09-23T14:28:29.000Z</time>
      </trkpt>
      <trkpt lon="7.191903926432133" lat="46.58277296461165">
        <ele>1106.0</ele>
        <time>2011-09-23T14:28:35.000Z</time>
      </trkpt>
      <trkpt lon="7.191903926432133" lat="46.58280196599662">
        <ele>1107.800048828125</ele>
        <time>2011-09-23T14:28:42.000Z</time>
      </trkpt>
      <trkpt lon="7.1918969694525" lat="46.5828859526664">
        <ele>1109.199951171875</ele>
        <time>2011-09-23T14:28:49.000Z</time>
      </trkpt>
      <trkpt lon="7.191888922825456" lat="46.582957953214645">
        <ele>1110.0</ele>
        <time>2011-09-23T14:28:53.000Z</time>
      </trkpt>
      <trkpt lon="7.191866962239146" lat="46.58306599594653">
        <ele>1111.199951171875</ele>
        <time>2011-09-23T14:29:00.000Z</time>
      </trkpt>
      <trkpt lon="7.1918359491974115" lat="46.583153922110796">
        <ele>1112.199951171875</ele>
        <time>2011-09-23T14:29:06.000Z</time>
      </trkpt>
      <trkpt lon="7.191788926720619" lat="46.58323095180094">
        <ele>1113.199951171875</ele>
        <time>2011-09-23T14:29:11.000Z</time>
      </trkpt>
      <trkpt lon="7.191722961142659" lat="46.58329398371279">
        <ele>1114.0</ele>
        <time>2011-09-23T14:29:16.000Z</time>
      </trkpt>
      <trkpt lon="7.191615924239159" lat="46.58337797038257">
        <ele>1115.4000244140625</ele>
        <time>2011-09-23T14:29:24.000Z</time>
      </trkpt>
      <trkpt lon="7.191557921469212" lat="46.583424992859364">
        <ele>1116.4000244140625</ele>
        <time>2011-09-23T14:29:31.000Z</time>
      </trkpt>
      <trkpt lon="7.191557921469212" lat="46.583424992859364">
        <ele>1116.5999755859375</ele>
        <time>2011-09-23T14:29:32.000Z</time>
      </trkpt>
      <trkpt lon="7.191525986418128" lat="46.583450976759195">
        <ele>1117.199951171875</ele>
        <time>2011-09-23T14:29:36.000Z</time>
      </trkpt>
      <trkpt lon="7.1914619486778975" lat="46.58350495621562">
        <ele>1118.800048828125</ele>
        <time>2011-09-23T14:29:43.000Z</time>
      </trkpt>
      <trkpt lon="7.1913329511880875" lat="46.58362791873515">
        <ele>1120.5999755859375</ele>
        <time>2011-09-23T14:29:53.000Z</time>
      </trkpt>
      <trkpt lon="7.191190961748362" lat="46.58371492289007">
        <ele>1122.5999755859375</ele>
        <time>2011-09-23T14:30:01.000Z</time>
      </trkpt>
      <trkpt lon="7.191048972308636" lat="46.583769991993904">
        <ele>1124.0</ele>
        <time>2011-09-23T14:30:08.000Z</time>
      </trkpt>
      <trkpt lon="7.190901953727007" lat="46.58382799476385">
        <ele>1125.199951171875</ele>
        <time>2011-09-23T14:30:16.000Z</time>
      </trkpt>
      <trkpt lon="7.190761975944042" lat="46.58389496617019">
        <ele>1126.4000244140625</ele>
        <time>2011-09-23T14:30:23.000Z</time>
      </trkpt>
      <trkpt lon="7.1906529273837805" lat="46.583966966718435">
        <ele>1127.5999755859375</ele>
        <time>2011-09-23T14:30:30.000Z</time>
      </trkpt>
      <trkpt lon="7.190530970692635" lat="46.58404793590307">
        <ele>1129.199951171875</ele>
        <time>2011-09-23T14:30:38.000Z</time>
      </trkpt>
      <trkpt lon="7.190511943772435" lat="46.584053970873356">
        <ele>1129.4000244140625</ele>
        <time>2011-09-23T14:30:39.000Z</time>
      </trkpt>
      <trkpt lon="7.19043692573905" lat="46.584074925631285">
        <ele>1130.199951171875</ele>
        <time>2011-09-23T14:30:44.000Z</time>
      </trkpt>
      <trkpt lon="7.1902939304709435" lat="46.58409194089472">
        <ele>1131.800048828125</ele>
        <time>2011-09-23T14:30:52.000Z</time>
      </trkpt>
      <trkpt lon="7.1900989674031734" lat="46.58410593867302">
        <ele>1133.800048828125</ele>
        <time>2011-09-23T14:31:02.000Z</time>
      </trkpt>
      <trkpt lon="7.189873997122049" lat="46.584161929786205">
        <ele>1134.4000244140625</ele>
        <time>2011-09-23T14:31:14.000Z</time>
      </trkpt>
      <trkpt lon="7.189753968268633" lat="46.584225967526436">
        <ele>1137.199951171875</ele>
        <time>2011-09-23T14:31:22.000Z</time>
      </trkpt>
      <trkpt lon="7.189724966883659" lat="46.58424197696149">
        <ele>1138.0</ele>
        <time>2011-09-23T14:31:24.000Z</time>
      </trkpt>
      <trkpt lon="7.189634945243597" lat="46.58429293893278">
        <ele>1139.0</ele>
        <time>2011-09-23T14:31:30.000Z</time>
      </trkpt>
      <trkpt lon="7.189531931653619" lat="46.58434398472309">
        <ele>1140.5999755859375</ele>
        <time>2011-09-23T14:31:37.000Z</time>
      </trkpt>
      <trkpt lon="7.189414920285344" lat="46.58440299332142">
        <ele>1141.800048828125</ele>
        <time>2011-09-23T14:31:45.000Z</time>
      </trkpt>
      <trkpt lon="7.189313918352127" lat="46.58445294946432">
        <ele>1143.4000244140625</ele>
        <time>2011-09-23T14:31:52.000Z</time>
      </trkpt>
      <trkpt lon="7.189200930297375" lat="46.58451992087066">
        <ele>1144.199951171875</ele>
        <time>2011-09-23T14:31:59.000Z</time>
      </trkpt>
      <trkpt lon="7.189205959439278" lat="46.584611954167485">
        <ele>1144.5999755859375</ele>
        <time>2011-09-23T14:32:03.000Z</time>
      </trkpt>
      <trkpt lon="7.1892819833010435" lat="46.58468898385763">
        <ele>1145.800048828125</ele>
        <time>2011-09-23T14:32:09.000Z</time>
      </trkpt>
      <trkpt lon="7.189292963594198" lat="46.584698958322406">
        <ele>1146.199951171875</ele>
        <time>2011-09-23T14:32:10.000Z</time>
      </trkpt>
      <trkpt lon="7.189371921122074" lat="46.58477799966931">
        <ele>1148.199951171875</ele>
        <time>2011-09-23T14:32:20.000Z</time>
      </trkpt>
      <trkpt lon="7.189398994669318" lat="46.58483298495412">
        <ele>1149.199951171875</ele>
        <time>2011-09-23T14:32:26.000Z</time>
      </trkpt>
      <trkpt lon="7.189427996054292" lat="46.5848839469254">
        <ele>1150.199951171875</ele>
        <time>2011-09-23T14:32:31.000Z</time>
      </trkpt>
      <trkpt lon="7.18951097689569" lat="46.58496399410069">
        <ele>1152.0</ele>
        <time>2011-09-23T14:32:40.000Z</time>
      </trkpt>
      <trkpt lon="7.189528997987509" lat="46.584975980222225">
        <ele>1152.4000244140625</ele>
        <time>2011-09-23T14:32:42.000Z</time>
      </trkpt>
      <trkpt lon="7.189574930816889" lat="46.5850049816072">
        <ele>1153.4000244140625</ele>
        <time>2011-09-23T14:32:48.000Z</time>
      </trkpt>
      <trkpt lon="7.189695965498686" lat="46.585079999640584">
        <ele>1155.4000244140625</ele>
        <time>2011-09-23T14:32:58.000Z</time>
      </trkpt>
      <trkpt lon="7.189815994352102" lat="46.58515593968332">
        <ele>1157.199951171875</ele>
        <time>2011-09-23T14:33:07.000Z</time>
      </trkpt>
      <trkpt lon="7.189932921901345" lat="46.585232969373465">
        <ele>1158.5999755859375</ele>
        <time>2011-09-23T14:33:15.000Z</time>
      </trkpt>
      <trkpt lon="7.190054962411523" lat="46.58531595021486">
        <ele>1160.4000244140625</ele>
        <time>2011-09-23T14:33:23.000Z</time>
      </trkpt>
      <trkpt lon="7.1901569701731205" lat="46.585386944934726">
        <ele>1162.0</ele>
        <time>2011-09-23T14:33:30.000Z</time>
      </trkpt>
      <trkpt lon="7.190278926864266" lat="46.585470931604505">
        <ele>1163.4000244140625</ele>
        <time>2011-09-23T14:33:38.000Z</time>
      </trkpt>
      <trkpt lon="7.190366936847568" lat="46.58553094603121">
        <ele>1164.800048828125</ele>
        <time>2011-09-23T14:33:45.000Z</time>
      </trkpt>
      <trkpt lon="7.190451929345727" lat="46.58558894880116">
        <ele>1166.199951171875</ele>
        <time>2011-09-23T14:33:52.000Z</time>
      </trkpt>
      <trkpt lon="7.19047699123621" lat="46.58560696989298">
        <ele>1166.5999755859375</ele>
        <time>2011-09-23T14:33:54.000Z</time>
      </trkpt>
      <trkpt lon="7.1905639953911304" lat="46.58567293547094">
        <ele>1168.4000244140625</ele>
        <time>2011-09-23T14:34:04.000Z</time>
      </trkpt>
      <trkpt lon="7.190622920170426" lat="46.58574694767594">
        <ele>1169.5999755859375</ele>
        <time>2011-09-23T14:34:12.000Z</time>
      </trkpt>
      <trkpt lon="7.1906729601323605" lat="46.585811991244555">
        <ele>1170.800048828125</ele>
        <time>2011-09-23T14:34:20.000Z</time>
      </trkpt>
      <trkpt lon="7.190703973174095" lat="46.585853984579444">
        <ele>1171.800048828125</ele>
        <time>2011-09-23T14:34:26.000Z</time>
      </trkpt>
      <trkpt lon="7.1907309629023075" lat="46.58588994294405">
        <ele>1172.4000244140625</ele>
        <time>2011-09-23T14:34:31.000Z</time>
      </trkpt>
      <trkpt lon="7.190759964287281" lat="46.58592799678445">
        <ele>1173.199951171875</ele>
        <time>2011-09-23T14:34:35.000Z</time>
      </trkpt>
      <trkpt lon="7.190799945965409" lat="46.58597694709897">
        <ele>1174.0</ele>
        <time>2011-09-23T14:34:40.000Z</time>
      </trkpt>
      <trkpt lon="7.190861972048879" lat="46.586051965132356">
        <ele>1174.800048828125</ele>
        <time>2011-09-23T14:34:45.000Z</time>
      </trkpt>
      <trkpt lon="7.191026927903295" lat="46.58616595901549">
        <ele>1175.5999755859375</ele>
        <time>2011-09-23T14:34:52.000Z</time>
      </trkpt>
      <trkpt lon="7.191154919564724" lat="46.586264949291945">
        <ele>1176.5999755859375</ele>
        <time>2011-09-23T14:35:00.000Z</time>
      </trkpt>
      <trkpt lon="7.191265979781747" lat="46.58635698258877">
        <ele>1177.5999755859375</ele>
        <time>2011-09-23T14:35:07.000Z</time>
      </trkpt>
      <trkpt lon="7.1913709212094545" lat="46.58646997064352">
        <ele>1178.800048828125</ele>
        <time>2011-09-23T14:35:15.000Z</time>
      </trkpt>
      <trkpt lon="7.191431941464543" lat="46.586548928171396">
        <ele>1179.5999755859375</ele>
        <time>2011-09-23T14:35:21.000Z</time>
      </trkpt>
      <trkpt lon="7.191482987254858" lat="46.58662595786154">
        <ele>1180.5999755859375</ele>
        <time>2011-09-23T14:35:27.000Z</time>
      </trkpt>
      <trkpt lon="7.191557921469212" lat="46.586737940087914">
        <ele>1181.5999755859375</ele>
        <time>2011-09-23T14:35:34.000Z</time>
      </trkpt>
      <trkpt lon="7.19161793589592" lat="46.58682896755636">
        <ele>1182.5999755859375</ele>
        <time>2011-09-23T14:35:40.000Z</time>
      </trkpt>
      <trkpt lon="7.191672921180725" lat="46.586930975317955">
        <ele>1183.800048828125</ele>
        <time>2011-09-23T14:35:47.000Z</time>
      </trkpt>
      <trkpt lon="7.191693959757686" lat="46.58702996559441">
        <ele>1185.0</ele>
        <time>2011-09-23T14:35:54.000Z</time>
      </trkpt>
      <trkpt lon="7.19170494005084" lat="46.58713893033564">
        <ele>1186.5999755859375</ele>
        <time>2011-09-23T14:36:02.000Z</time>
      </trkpt>
      <trkpt lon="7.191687924787402" lat="46.587250996381044">
        <ele>1188.4000244140625</ele>
        <time>2011-09-23T14:36:12.000Z</time>
      </trkpt>
      <trkpt lon="7.191658923402429" lat="46.58739591948688">
        <ele>1190.4000244140625</ele>
        <time>2011-09-23T14:36:22.000Z</time>
      </trkpt>
      <trkpt lon="7.19163897447288" lat="46.58748694695532">
        <ele>1192.0</ele>
        <time>2011-09-23T14:36:31.000Z</time>
      </trkpt>
      <trkpt lon="7.191613996401429" lat="46.58757294528186">
        <ele>1193.199951171875</ele>
        <time>2011-09-23T14:36:38.000Z</time>
      </trkpt>
      <trkpt lon="7.191602932289243" lat="46.58761292695999">
        <ele>1194.0</ele>
        <time>2011-09-23T14:36:42.000Z</time>
      </trkpt>
      <trkpt lon="7.191606955602765" lat="46.587598929181695">
        <ele>1195.0</ele>
        <time>2011-09-23T14:36:48.000Z</time>
      </trkpt>
      <trkpt lon="7.189968964084983" lat="46.586246928200126">
        <ele>1170.4000244140625</ele>
        <time>2011-09-23T14:38:57.000Z</time>
      </trkpt>
      <trkpt lon="7.189968964084983" lat="46.586246928200126">
        <ele>1171.4000244140625</ele>
        <time>2011-09-23T14:38:58.000Z</time>
      </trkpt>
      <trkpt lon="7.189804930239916" lat="46.586199989542365">
        <ele>1172.199951171875</ele>
        <time>2011-09-23T14:39:24.000Z</time>
      </trkpt>
      <trkpt lon="7.189774923026562" lat="46.58619093708694">
        <ele>1172.5999755859375</ele>
        <time>2011-09-23T14:39:26.000Z</time>
      </trkpt>
      <trkpt lon="7.189611978828907" lat="46.58614492043853">
        <ele>1174.800048828125</ele>
        <time>2011-09-23T14:39:37.000Z</time>
      </trkpt>
      <trkpt lon="7.189521957188845" lat="46.5861099679023">
        <ele>1175.199951171875</ele>
        <time>2011-09-23T14:39:43.000Z</time>
      </trkpt>
      <trkpt lon="7.189434953033924" lat="46.58607694320381">
        <ele>1175.800048828125</ele>
        <time>2011-09-23T14:39:48.000Z</time>
      </trkpt>
      <trkpt lon="7.189366975799203" lat="46.586050959303975">
        <ele>1177.5999755859375</ele>
        <time>2011-09-23T14:39:52.000Z</time>
      </trkpt>
      <trkpt lon="7.189248958602548" lat="46.58599396236241">
        <ele>1178.199951171875</ele>
        <time>2011-09-23T14:40:00.000Z</time>
      </trkpt>
      <trkpt lon="7.189129935577512" lat="46.58593495376408">
        <ele>1178.199951171875</ele>
        <time>2011-09-23T14:40:08.000Z</time>
      </trkpt>
      <trkpt lon="7.189009990543127" lat="46.58589497208595">
        <ele>1178.199951171875</ele>
        <time>2011-09-23T14:40:16.000Z</time>
      </trkpt>
      <trkpt lon="7.188916951417923" lat="46.58586395904422">
        <ele>1183.800048828125</ele>
        <time>2011-09-23T14:40:22.000Z</time>
      </trkpt>
      <trkpt lon="7.188834976404905" lat="46.58584292046726">
        <ele>1184.800048828125</ele>
        <time>2011-09-23T14:40:27.000Z</time>
      </trkpt>
      <trkpt lon="7.188679995015264" lat="46.585811991244555">
        <ele>1186.5999755859375</ele>
        <time>2011-09-23T14:40:36.000Z</time>
      </trkpt>
      <trkpt lon="7.188552925363183" lat="46.58578097820282">
        <ele>1187.800048828125</ele>
        <time>2011-09-23T14:40:43.000Z</time>
      </trkpt>
      <trkpt lon="7.188390986993909" lat="46.58571492880583">
        <ele>1189.800048828125</ele>
        <time>2011-09-23T14:40:53.000Z</time>
      </trkpt>
      <trkpt lon="7.188255954533815" lat="46.585644939914346">
        <ele>1191.199951171875</ele>
        <time>2011-09-23T14:41:01.000Z</time>
      </trkpt>
      <trkpt lon="7.1881419606506824" lat="46.58557495102286">
        <ele>1191.800048828125</ele>
        <time>2011-09-23T14:41:09.000Z</time>
      </trkpt>
      <trkpt lon="7.188084963709116" lat="46.585509991273284">
        <ele>1193.800048828125</ele>
        <time>2011-09-23T14:41:14.000Z</time>
      </trkpt>
      <trkpt lon="7.188041964545846" lat="46.58543396741152">
        <ele>1194.800048828125</ele>
        <time>2011-09-23T14:41:20.000Z</time>
      </trkpt>
      <trkpt lon="7.187963929027319" lat="46.58535894937813">
        <ele>1196.4000244140625</ele>
        <time>2011-09-23T14:41:28.000Z</time>
      </trkpt>
      <trkpt lon="7.187952948734164" lat="46.58535098657012">
        <ele>1196.5999755859375</ele>
        <time>2011-09-23T14:41:29.000Z</time>
      </trkpt>
      <trkpt lon="7.187876924872398" lat="46.585301952436566">
        <ele>1197.800048828125</ele>
        <time>2011-09-23T14:41:36.000Z</time>
      </trkpt>
      <trkpt lon="7.187799979001284" lat="46.585255935788155">
        <ele>1199.0</ele>
        <time>2011-09-23T14:41:43.000Z</time>
      </trkpt>
      <trkpt lon="7.187740970402956" lat="46.58522098325193">
        <ele>1199.800048828125</ele>
        <time>2011-09-23T14:41:49.000Z</time>
      </trkpt>
      <trkpt lon="7.1876839734613895" lat="46.58519399352372">
        <ele>1200.4000244140625</ele>
        <time>2011-09-23T14:41:53.000Z</time>
      </trkpt>
      <trkpt lon="7.187610967084765" lat="46.58516691997647">
        <ele>1201.4000244140625</ele>
        <time>2011-09-23T14:41:59.000Z</time>
      </trkpt>
      <trkpt lon="7.187520945444703" lat="46.58513196744025">
        <ele>1202.4000244140625</ele>
        <time>2011-09-23T14:42:05.000Z</time>
      </trkpt>
      <trkpt lon="7.187376944348216" lat="46.58507195301354">
        <ele>1203.800048828125</ele>
        <time>2011-09-23T14:42:14.000Z</time>
      </trkpt>
      <trkpt lon="7.1872669737786055" lat="46.58502593636513">
        <ele>1205.0</ele>
        <time>2011-09-23T14:42:21.000Z</time>
      </trkpt>
      <trkpt lon="7.187189944088459" lat="46.58499592915177">
        <ele>1205.5999755859375</ele>
        <time>2011-09-23T14:42:26.000Z</time>
      </trkpt>
      <trkpt lon="7.187043931335211" lat="46.584937926381826">
        <ele>1207.4000244140625</ele>
        <time>2011-09-23T14:42:36.000Z</time>
      </trkpt>
      <trkpt lon="7.187001938000321" lat="46.58492191694677">
        <ele>1207.5999755859375</ele>
        <time>2011-09-23T14:42:39.000Z</time>
      </trkpt>
      <trkpt lon="7.186863971874118" lat="46.58486198633909">
        <ele>1209.4000244140625</ele>
        <time>2011-09-23T14:42:50.000Z</time>
      </trkpt>
      <trkpt lon="7.1867739502340555" lat="46.58479895442724">
        <ele>1210.800048828125</ele>
        <time>2011-09-23T14:42:59.000Z</time>
      </trkpt>
      <trkpt lon="7.186747966334224" lat="46.58477196469903">
        <ele>1211.4000244140625</ele>
        <time>2011-09-23T14:43:02.000Z</time>
      </trkpt>
      <trkpt lon="7.186696920543909" lat="46.58470398746431">
        <ele>1212.5999755859375</ele>
        <time>2011-09-23T14:43:10.000Z</time>
      </trkpt>
      <trkpt lon="7.1866219863295555" lat="46.584676997736096">
        <ele>1213.4000244140625</ele>
        <time>2011-09-23T14:43:17.000Z</time>
      </trkpt>
      <trkpt lon="7.186583932489157" lat="46.58468697220087">
        <ele>1213.800048828125</ele>
        <time>2011-09-23T14:43:19.000Z</time>
      </trkpt>
      <trkpt lon="7.186573958024383" lat="46.584741957485676">
        <ele>1214.4000244140625</ele>
        <time>2011-09-23T14:43:25.000Z</time>
      </trkpt>
      <trkpt lon="7.186657944694161" lat="46.584851928055286">
        <ele>1215.5999755859375</ele>
        <time>2011-09-23T14:43:33.000Z</time>
      </trkpt>
      <trkpt lon="7.186759952455759" lat="46.584955947473645">
        <ele>1217.199951171875</ele>
        <time>2011-09-23T14:43:42.000Z</time>
      </trkpt>
      <trkpt lon="7.186876963824034" lat="46.58505292609334">
        <ele>1219.0</ele>
        <time>2011-09-23T14:43:51.000Z</time>
      </trkpt>
      <trkpt lon="7.186987940222025" lat="46.58513498492539">
        <ele>1220.5999755859375</ele>
        <time>2011-09-23T14:43:59.000Z</time>
      </trkpt>
      <trkpt lon="7.187080979347229" lat="46.58519692718983">
        <ele>1221.800048828125</ele>
        <time>2011-09-23T14:44:06.000Z</time>
      </trkpt>
      <trkpt lon="7.18719195574522" lat="46.585276974365115">
        <ele>1223.800048828125</ele>
        <time>2011-09-23T14:44:15.000Z</time>
      </trkpt>
      <trkpt lon="7.187278959900141" lat="46.58535098657012">
        <ele>1225.199951171875</ele>
        <time>2011-09-23T14:44:23.000Z</time>
      </trkpt>
      <trkpt lon="7.1873099729418755" lat="46.58537797629833">
        <ele>1225.5999755859375</ele>
        <time>2011-09-23T14:44:26.000Z</time>
      </trkpt>
      <trkpt lon="7.18738691881299" lat="46.58545492216945">
        <ele>1227.0</ele>
        <time>2011-09-23T14:44:34.000Z</time>
      </trkpt>
      <trkpt lon="7.187397982925177" lat="46.58548895269632">
        <ele>1227.4000244140625</ele>
        <time>2011-09-23T14:44:37.000Z</time>
      </trkpt>
      <trkpt lon="7.187397982925177" lat="46.58558098599315">
        <ele>1228.800048828125</ele>
        <time>2011-09-23T14:44:46.000Z</time>
      </trkpt>
      <trkpt lon="7.187397982925177" lat="46.58559096045792">
        <ele>1228.800048828125</ele>
        <time>2011-09-23T14:44:47.000Z</time>
      </trkpt>
      <trkpt lon="7.187397982925177" lat="46.58569095656276">
        <ele>1228.800048828125</ele>
        <time>2011-09-23T14:44:54.000Z</time>
      </trkpt>
      <trkpt lon="7.187403934076428" lat="46.585707971826196">
        <ele>1228.800048828125</ele>
        <time>2011-09-23T14:44:55.000Z</time>
      </trkpt>
      <trkpt lon="7.18749194405973" lat="46.58576597459614">
        <ele>1230.4000244140625</ele>
        <time>2011-09-23T14:45:02.000Z</time>
      </trkpt>
      <trkpt lon="7.187624964863062" lat="46.58584292046726">
        <ele>1231.199951171875</ele>
        <time>2011-09-23T14:45:12.000Z</time>
      </trkpt>
      <trkpt lon="7.187702916562557" lat="46.585920955985785">
        <ele>1231.199951171875</ele>
        <time>2011-09-23T14:45:20.000Z</time>
      </trkpt>
      <trkpt lon="7.187807941809297" lat="46.586049953475595">
        <ele>1234.0</ele>
        <time>2011-09-23T14:45:30.000Z</time>
      </trkpt>
      <trkpt lon="7.187868962064385" lat="46.58617098815739">
        <ele>1235.0</ele>
        <time>2011-09-23T14:45:38.000Z</time>
      </trkpt>
      <trkpt lon="7.187953954562545" lat="46.58627391792834">
        <ele>1234.800048828125</ele>
        <time>2011-09-23T14:45:46.000Z</time>
      </trkpt>
      <trkpt lon="7.188056968152523" lat="46.58633594401181">
        <ele>1235.199951171875</ele>
        <time>2011-09-23T14:45:53.000Z</time>
      </trkpt>
      <trkpt lon="7.188231982290745" lat="46.58638698980212">
        <ele>1235.4000244140625</ele>
        <time>2011-09-23T14:46:00.000Z</time>
      </trkpt>
      <trkpt lon="7.1884579584002495" lat="46.58642898313701">
        <ele>1235.800048828125</ele>
        <time>2011-09-23T14:46:06.000Z</time>
      </trkpt>
      <trkpt lon="7.188719976693392" lat="46.58655496314168">
        <ele>1236.199951171875</ele>
        <time>2011-09-23T14:46:12.000Z</time>
      </trkpt>
      <trkpt lon="7.189072938635945" lat="46.586776999756694">
        <ele>1237.199951171875</ele>
        <time>2011-09-23T14:46:22.000Z</time>
      </trkpt>
      <trkpt lon="7.189156925305724" lat="46.58685998059809">
        <ele>1237.5999755859375</ele>
        <time>2011-09-23T14:46:28.000Z</time>
      </trkpt>
      <trkpt lon="7.189144939184189" lat="46.58687196671963">
        <ele>1237.800048828125</ele>
        <time>2011-09-23T14:46:32.000Z</time>
      </trkpt>
      <trkpt lon="7.189135970547795" lat="46.58688093535602">
        <ele>1238.199951171875</ele>
        <time>2011-09-23T14:47:58.000Z</time>
      </trkpt>
      <trkpt lon="7.1889609564095736" lat="46.58685092814267">
        <ele>1239.0</ele>
        <time>2011-09-23T14:48:03.000Z</time>
      </trkpt>
      <trkpt lon="7.188920974731445" lat="46.58667993731797">
        <ele>1240.800048828125</ele>
        <time>2011-09-23T14:48:11.000Z</time>
      </trkpt>
      <trkpt lon="7.188684940338135" lat="46.58666694536805">
        <ele>1242.800048828125</ele>
        <time>2011-09-23T14:48:19.000Z</time>
      </trkpt>
      <trkpt lon="7.188532976433635" lat="46.586609948426485">
        <ele>1244.4000244140625</ele>
        <time>2011-09-23T14:48:26.000Z</time>
      </trkpt>
      <trkpt lon="7.1882939245551825" lat="46.58657692372799">
        <ele>1247.0</ele>
        <time>2011-09-23T14:48:37.000Z</time>
      </trkpt>
      <trkpt lon="7.188142966479063" lat="46.586568960919976">
        <ele>1248.5999755859375</ele>
        <time>2011-09-23T14:48:44.000Z</time>
      </trkpt>
      <trkpt lon="7.187972981482744" lat="46.58655999228358">
        <ele>1250.199951171875</ele>
        <time>2011-09-23T14:48:52.000Z</time>
      </trkpt>
      <trkpt lon="7.187826968729496" lat="46.58653794787824">
        <ele>1251.5999755859375</ele>
        <time>2011-09-23T14:49:00.000Z</time>
      </trkpt>
      <trkpt lon="7.187669975683093" lat="46.58646393567324">
        <ele>1253.4000244140625</ele>
        <time>2011-09-23T14:49:09.000Z</time>
      </trkpt>
      <trkpt lon="7.187626976519823" lat="46.586436945945024">
        <ele>1253.800048828125</ele>
        <time>2011-09-23T14:49:12.000Z</time>
      </trkpt>
      <trkpt lon="7.187499990686774" lat="46.58635497093201">
        <ele>1255.5999755859375</ele>
        <time>2011-09-23T14:49:22.000Z</time>
      </trkpt>
      <trkpt lon="7.187404939904809" lat="46.586288921535015">
        <ele>1257.199951171875</ele>
        <time>2011-09-23T14:49:31.000Z</time>
      </trkpt>
      <trkpt lon="7.1873049437999725" lat="46.58621893264353">
        <ele>1258.800048828125</ele>
        <time>2011-09-23T14:49:40.000Z</time>
      </trkpt>
      <trkpt lon="7.187228919938207" lat="46.58616998232901">
        <ele>1260.199951171875</ele>
        <time>2011-09-23T14:49:47.000Z</time>
      </trkpt>
      <trkpt lon="7.187100928276777" lat="46.58608892932534">
        <ele>1262.0</ele>
        <time>2011-09-23T14:49:57.000Z</time>
      </trkpt>
      <trkpt lon="7.186900936067104" lat="46.586021957919">
        <ele>1264.0</ele>
        <time>2011-09-23T14:50:07.000Z</time>
      </trkpt>
      <trkpt lon="7.186754923313856" lat="46.58593797124922">
        <ele>1265.800048828125</ele>
        <time>2011-09-23T14:50:15.000Z</time>
      </trkpt>
      <trkpt lon="7.186726927757263" lat="46.58582297153771">
        <ele>1267.4000244140625</ele>
        <time>2011-09-23T14:50:23.000Z</time>
      </trkpt>
      <trkpt lon="7.18671795912087" lat="46.58574292436242">
        <ele>1268.199951171875</ele>
        <time>2011-09-23T14:50:29.000Z</time>
      </trkpt>
      <trkpt lon="7.186678983271122" lat="46.58561593852937">
        <ele>1269.800048828125</ele>
        <time>2011-09-23T14:50:37.000Z</time>
      </trkpt>
      <trkpt lon="7.186490977182984" lat="46.58546598628163">
        <ele>1270.5999755859375</ele>
        <time>2011-09-23T14:50:46.000Z</time>
      </trkpt>
      <trkpt lon="7.186290984973311" lat="46.5853279363364">
        <ele>1270.4000244140625</ele>
        <time>2011-09-23T14:50:52.000Z</time>
      </trkpt>
      <trkpt lon="7.1859699580818415" lat="46.58514093607664">
        <ele>1270.4000244140625</ele>
        <time>2011-09-23T14:50:59.000Z</time>
      </trkpt>
      <trkpt lon="7.185546923428774" lat="46.58488696441054">
        <ele>1270.4000244140625</ele>
        <time>2011-09-23T14:51:08.000Z</time>
      </trkpt>
      <trkpt lon="7.185247940942645" lat="46.58470692113042">
        <ele>1271.199951171875</ele>
        <time>2011-09-23T14:51:15.000Z</time>
      </trkpt>
      <trkpt lon="7.185067981481552" lat="46.58461899496615">
        <ele>1272.4000244140625</ele>
        <time>2011-09-23T14:51:21.000Z</time>
      </trkpt>
      <trkpt lon="7.184890955686569" lat="46.58454095944762">
        <ele>1274.0</ele>
        <time>2011-09-23T14:51:29.000Z</time>
      </trkpt>
      <trkpt lon="7.1847159415483475" lat="46.58447792753577">
        <ele>1275.5999755859375</ele>
        <time>2011-09-23T14:51:38.000Z</time>
      </trkpt>
      <trkpt lon="7.184559954330325" lat="46.58442595973611">
        <ele>1277.0</ele>
        <time>2011-09-23T14:51:46.000Z</time>
      </trkpt>
      <trkpt lon="7.184416959062219" lat="46.584377931430936">
        <ele>1278.5999755859375</ele>
        <time>2011-09-23T14:51:54.000Z</time>
      </trkpt>
      <trkpt lon="7.184288967400789" lat="46.58433794975281">
        <ele>1280.4000244140625</ele>
        <time>2011-09-23T14:52:02.000Z</time>
      </trkpt>
      <trkpt lon="7.184162987396121" lat="46.58429897390306">
        <ele>1282.0</ele>
        <time>2011-09-23T14:52:09.000Z</time>
      </trkpt>
      <trkpt lon="7.1839689463377" lat="46.58423795364797">
        <ele>1284.199951171875</ele>
        <time>2011-09-23T14:52:19.000Z</time>
      </trkpt>
      <trkpt lon="7.18375395052135" lat="46.58417098224163">
        <ele>1286.5999755859375</ele>
        <time>2011-09-23T14:52:30.000Z</time>
      </trkpt>
      <trkpt lon="7.183630988001823" lat="46.5841259714216">
        <ele>1288.199951171875</ele>
        <time>2011-09-23T14:52:37.000Z</time>
      </trkpt>
      <trkpt lon="7.183599974960089" lat="46.58411297947168">
        <ele>1288.4000244140625</ele>
        <time>2011-09-23T14:52:39.000Z</time>
      </trkpt>
      <trkpt lon="7.183441976085305" lat="46.58404491841793">
        <ele>1290.4000244140625</ele>
        <time>2011-09-23T14:52:49.000Z</time>
      </trkpt>
      <trkpt lon="7.183326976373792" lat="46.583987921476364">
        <ele>1292.0</ele>
        <time>2011-09-23T14:52:57.000Z</time>
      </trkpt>
      <trkpt lon="7.183205941691995" lat="46.58391592092812">
        <ele>1293.5999755859375</ele>
        <time>2011-09-23T14:53:06.000Z</time>
      </trkpt>
      <trkpt lon="7.183155985549092" lat="46.5838859975338">
        <ele>1294.199951171875</ele>
        <time>2011-09-23T14:53:10.000Z</time>
      </trkpt>
      <trkpt lon="7.183014918118715" lat="46.58378792926669">
        <ele>1295.5999755859375</ele>
        <time>2011-09-23T14:53:20.000Z</time>
      </trkpt>
      <trkpt lon="7.182890949770808" lat="46.583683993667364">
        <ele>1297.4000244140625</ele>
        <time>2011-09-23T14:53:29.000Z</time>
      </trkpt>
      <trkpt lon="7.182767987251282" lat="46.583560947328806">
        <ele>1298.5999755859375</ele>
        <time>2011-09-23T14:53:39.000Z</time>
      </trkpt>
      <trkpt lon="7.182665979489684" lat="46.583448965102434">
        <ele>1299.800048828125</ele>
        <time>2011-09-23T14:53:47.000Z</time>
      </trkpt>
      <trkpt lon="7.182567995041609" lat="46.58334092237055">
        <ele>1301.4000244140625</ele>
        <time>2011-09-23T14:53:56.000Z</time>
      </trkpt>
      <trkpt lon="7.182444948703051" lat="46.58319499343634">
        <ele>1303.199951171875</ele>
        <time>2011-09-23T14:54:07.000Z</time>
      </trkpt>
      <trkpt lon="7.182353921234608" lat="46.583086950704455">
        <ele>1304.5999755859375</ele>
        <time>2011-09-23T14:54:16.000Z</time>
      </trkpt>
      <trkpt lon="7.182279992848635" lat="46.58298997208476">
        <ele>1306.0</ele>
        <time>2011-09-23T14:54:24.000Z</time>
      </trkpt>
      <trkpt lon="7.182231964543462" lat="46.58292694017291">
        <ele>1306.800048828125</ele>
        <time>2011-09-23T14:54:30.000Z</time>
      </trkpt>
      <trkpt lon="7.182167926803231" lat="46.58279098570347">
        <ele>1308.4000244140625</ele>
        <time>2011-09-23T14:54:40.000Z</time>
      </trkpt>
      <trkpt lon="7.182144960388541" lat="46.58273197710514">
        <ele>1309.800048828125</ele>
        <time>2011-09-23T14:54:47.000Z</time>
      </trkpt>
      <trkpt lon="7.182084945961833" lat="46.58264396712184">
        <ele>1311.5999755859375</ele>
        <time>2011-09-23T14:54:56.000Z</time>
      </trkpt>
      <trkpt lon="7.182020992040634" lat="46.582591999322176">
        <ele>1312.5999755859375</ele>
        <time>2011-09-23T14:55:03.000Z</time>
      </trkpt>
      <trkpt lon="7.181933987885714" lat="46.58253994770348">
        <ele>1313.5999755859375</ele>
        <time>2011-09-23T14:55:10.000Z</time>
      </trkpt>
      <trkpt lon="7.181859975680709" lat="46.58251396380365">
        <ele>1314.4000244140625</ele>
        <time>2011-09-23T14:55:15.000Z</time>
      </trkpt>
      <trkpt lon="7.181647997349501" lat="46.582524944096804">
        <ele>1316.199951171875</ele>
        <time>2011-09-23T14:55:26.000Z</time>
      </trkpt>
      <trkpt lon="7.181483963504434" lat="46.58256199210882">
        <ele>1318.199951171875</ele>
        <time>2011-09-23T14:55:35.000Z</time>
      </trkpt>
      <trkpt lon="7.181340968236327" lat="46.58260096795857">
        <ele>1320.0</ele>
        <time>2011-09-23T14:55:43.000Z</time>
      </trkpt>
      <trkpt lon="7.181192943826318" lat="46.58264296129346">
        <ele>1321.5999755859375</ele>
        <time>2011-09-23T14:55:51.000Z</time>
      </trkpt>
      <trkpt lon="7.181029999628663" lat="46.58266592770815">
        <ele>1323.4000244140625</ele>
        <time>2011-09-23T14:56:00.000Z</time>
      </trkpt>
      <trkpt lon="7.180863954126835" lat="46.582675985991955">
        <ele>1325.0</ele>
        <time>2011-09-23T14:56:09.000Z</time>
      </trkpt>
      <trkpt lon="7.18074593693018" lat="46.58266299404204">
        <ele>1326.199951171875</ele>
        <time>2011-09-23T14:56:15.000Z</time>
      </trkpt>
      <trkpt lon="7.180668991059065" lat="46.58264698460698">
        <ele>1326.800048828125</ele>
        <time>2011-09-23T14:56:19.000Z</time>
      </trkpt>
      <trkpt lon="7.18050797469914" lat="46.58260599710047">
        <ele>1328.199951171875</ele>
        <time>2011-09-23T14:56:28.000Z</time>
      </trkpt>
      <trkpt lon="7.180332960560918" lat="46.582549922168255">
        <ele>1330.0</ele>
        <time>2011-09-23T14:56:38.000Z</time>
      </trkpt>
      <trkpt lon="7.180194994434714" lat="46.58249795436859">
        <ele>1331.5999755859375</ele>
        <time>2011-09-23T14:56:46.000Z</time>
      </trkpt>
      <trkpt lon="7.180062979459763" lat="46.58244892023504">
        <ele>1332.5999755859375</ele>
        <time>2011-09-23T14:56:53.000Z</time>
      </trkpt>
      <trkpt lon="7.179912943392992" lat="46.5824009757489">
        <ele>1334.0</ele>
        <time>2011-09-23T14:57:01.000Z</time>
      </trkpt>
      <trkpt lon="7.179747987538576" lat="46.582352947443724">
        <ele>1335.5999755859375</ele>
        <time>2011-09-23T14:57:09.000Z</time>
      </trkpt>
      <trkpt lon="7.179503990337253" lat="46.582331992685795">
        <ele>1337.199951171875</ele>
        <time>2011-09-23T14:57:18.000Z</time>
      </trkpt>
      <trkpt lon="7.179262926802039" lat="46.5823179949075">
        <ele>1338.199951171875</ele>
        <time>2011-09-23T14:57:26.000Z</time>
      </trkpt>
      <trkpt lon="7.178966961801052" lat="46.58225395716727">
        <ele>1339.4000244140625</ele>
        <time>2011-09-23T14:57:34.000Z</time>
      </trkpt>
      <trkpt lon="7.178756995126605" lat="46.582184974104166">
        <ele>1340.0</ele>
        <time>2011-09-23T14:57:41.000Z</time>
      </trkpt>
      <trkpt lon="7.1785719227045774" lat="46.582115991041064">
        <ele>1341.5999755859375</ele>
        <time>2011-09-23T14:57:50.000Z</time>
      </trkpt>
      <trkpt lon="7.1784499660134315" lat="46.582071986049414">
        <ele>1342.800048828125</ele>
        <time>2011-09-23T14:57:57.000Z</time>
      </trkpt>
      <trkpt lon="7.178435968235135" lat="46.58206595107913">
        <ele>1343.0</ele>
        <time>2011-09-23T14:57:58.000Z</time>
      </trkpt>
      <trkpt lon="7.178287943825126" lat="46.58201398327947">
        <ele>1344.800048828125</ele>
        <time>2011-09-23T14:58:08.000Z</time>
      </trkpt>
      <trkpt lon="7.178173949941993" lat="46.58197592943907">
        <ele>1346.0</ele>
        <time>2011-09-23T14:58:16.000Z</time>
      </trkpt>
      <trkpt lon="7.178011927753687" lat="46.58192194998264">
        <ele>1347.800048828125</ele>
        <time>2011-09-23T14:58:27.000Z</time>
      </trkpt>
      <trkpt lon="7.177947973832488" lat="46.581900995224714">
        <ele>1348.4000244140625</ele>
        <time>2011-09-23T14:58:31.000Z</time>
      </trkpt>
      <trkpt lon="7.17780196107924" lat="46.58186797052622">
        <ele>1349.5999755859375</ele>
        <time>2011-09-23T14:58:40.000Z</time>
      </trkpt>
      <trkpt lon="7.177682938054204" lat="46.581840980798006">
        <ele>1350.800048828125</ele>
        <time>2011-09-23T14:58:47.000Z</time>
      </trkpt>
      <trkpt lon="7.177534997463226" lat="46.58180695027113">
        <ele>1352.4000244140625</ele>
        <time>2011-09-23T14:58:57.000Z</time>
      </trkpt>
      <trkpt lon="7.177416980266571" lat="46.5817809663713">
        <ele>1353.5999755859375</ele>
        <time>2011-09-23T14:59:04.000Z</time>
      </trkpt>
      <trkpt lon="7.177263926714659" lat="46.58174593001604">
        <ele>1355.199951171875</ele>
        <time>2011-09-23T14:59:13.000Z</time>
      </trkpt>
      <trkpt lon="7.177125960588455" lat="46.58171399496496">
        <ele>1357.0</ele>
        <time>2011-09-23T14:59:21.000Z</time>
      </trkpt>
      <trkpt lon="7.176968967542052" lat="46.58167996443808">
        <ele>1358.4000244140625</ele>
        <time>2011-09-23T14:59:30.000Z</time>
      </trkpt>
      <trkpt lon="7.176815997809172" lat="46.58165096305311">
        <ele>1360.0</ele>
        <time>2011-09-23T14:59:39.000Z</time>
      </trkpt>
      <trkpt lon="7.176693957298994" lat="46.58162699081004">
        <ele>1360.800048828125</ele>
        <time>2011-09-23T14:59:46.000Z</time>
      </trkpt>
      <trkpt lon="7.1765439212322235" lat="46.581598995253444">
        <ele>1362.199951171875</ele>
        <time>2011-09-23T14:59:54.000Z</time>
      </trkpt>
      <trkpt lon="7.176321968436241" lat="46.58154794946313">
        <ele>1363.800048828125</ele>
        <time>2011-09-23T15:00:04.000Z</time>
      </trkpt>
      <trkpt lon="7.176163969561458" lat="46.58151492476463">
        <ele>1364.800048828125</ele>
        <time>2011-09-23T15:00:12.000Z</time>
      </trkpt>
      <trkpt lon="7.175986943766475" lat="46.58147896640003">
        <ele>1366.199951171875</ele>
        <time>2011-09-23T15:00:21.000Z</time>
      </trkpt>
      <trkpt lon="7.1757899690419436" lat="46.58143999055028">
        <ele>1367.4000244140625</ele>
        <time>2011-09-23T15:00:31.000Z</time>
      </trkpt>
      <trkpt lon="7.175616966560483" lat="46.58140495419502">
        <ele>1368.800048828125</ele>
        <time>2011-09-23T15:00:40.000Z</time>
      </trkpt>
      <trkpt lon="7.175465924665332" lat="46.58137494698167">
        <ele>1370.199951171875</ele>
        <time>2011-09-23T15:00:49.000Z</time>
      </trkpt>
      <trkpt lon="7.175334999337792" lat="46.581347957253456">
        <ele>1371.800048828125</ele>
        <time>2011-09-23T15:00:57.000Z</time>
      </trkpt>
      <trkpt lon="7.1752239391207695" lat="46.581324990838766">
        <ele>1372.5999755859375</ele>
        <time>2011-09-23T15:01:04.000Z</time>
      </trkpt>
      <trkpt lon="7.175075998529792" lat="46.58129297196865">
        <ele>1374.0</ele>
        <time>2011-09-23T15:01:13.000Z</time>
      </trkpt>
      <trkpt lon="7.174949934706092" lat="46.581280985847116">
        <ele>1375.4000244140625</ele>
        <time>2011-09-23T15:01:21.000Z</time>
      </trkpt>
      <trkpt lon="7.174797970801592" lat="46.581280985847116">
        <ele>1376.800048828125</ele>
        <time>2011-09-23T15:01:30.000Z</time>
      </trkpt>
      <trkpt lon="7.1746499463915825" lat="46.58131593838334">
        <ele>1378.0</ele>
        <time>2011-09-23T15:01:38.000Z</time>
      </trkpt>
      <trkpt lon="7.174538969993591" lat="46.58144191838801">
        <ele>1379.199951171875</ele>
        <time>2011-09-23T15:01:46.000Z</time>
      </trkpt>
      <trkpt lon="7.174523966386914" lat="46.58158399164677">
        <ele>1379.5999755859375</ele>
        <time>2011-09-23T15:01:53.000Z</time>
      </trkpt>
      <trkpt lon="7.174630919471383" lat="46.58174492418766">
        <ele>1380.0</ele>
        <time>2011-09-23T15:02:01.000Z</time>
      </trkpt>
      <trkpt lon="7.174812974408269" lat="46.58193494193256">
        <ele>1381.0</ele>
        <time>2011-09-23T15:02:11.000Z</time>
      </trkpt>
      <trkpt lon="7.17494398355484" lat="46.58208095468581">
        <ele>1382.4000244140625</ele>
        <time>2011-09-23T15:02:19.000Z</time>
      </trkpt>
      <trkpt lon="7.175087984651327" lat="46.58223199658096">
        <ele>1384.199951171875</ele>
        <time>2011-09-23T15:02:28.000Z</time>
      </trkpt>
      <trkpt lon="7.175189992412925" lat="46.58231698907912">
        <ele>1385.199951171875</ele>
        <time>2011-09-23T15:02:34.000Z</time>
      </trkpt>
      <trkpt lon="7.175311949104071" lat="46.58240793272853">
        <ele>1386.800048828125</ele>
        <time>2011-09-23T15:02:42.000Z</time>
      </trkpt>
      <trkpt lon="7.1754969377070665" lat="46.58252293244004">
        <ele>1389.199951171875</ele>
        <time>2011-09-23T15:02:53.000Z</time>
      </trkpt>
      <trkpt lon="7.175656948238611" lat="46.58260993659496">
        <ele>1390.5999755859375</ele>
        <time>2011-09-23T15:03:02.000Z</time>
      </trkpt>
      <trkpt lon="7.17578393407166" lat="46.58267296850681">
        <ele>1391.800048828125</ele>
        <time>2011-09-23T15:03:09.000Z</time>
      </trkpt>
      <trkpt lon="7.175958948209882" lat="46.58275293186307">
        <ele>1393.199951171875</ele>
        <time>2011-09-23T15:03:18.000Z</time>
      </trkpt>
      <trkpt lon="7.176122982054949" lat="46.58282392658293">
        <ele>1394.5999755859375</ele>
        <time>2011-09-23T15:03:26.000Z</time>
      </trkpt>
      <trkpt lon="7.176302941516042" lat="46.58290699124336">
        <ele>1396.199951171875</ele>
        <time>2011-09-23T15:03:35.000Z</time>
      </trkpt>
      <trkpt lon="7.1765009220689535" lat="46.582998940721154">
        <ele>1398.0</ele>
        <time>2011-09-23T15:03:45.000Z</time>
      </trkpt>
      <trkpt lon="7.176667973399162" lat="46.58308292739093">
        <ele>1399.4000244140625</ele>
        <time>2011-09-23T15:03:54.000Z</time>
      </trkpt>
      <trkpt lon="7.176814991980791" lat="46.583166997879744">
        <ele>1400.5999755859375</ele>
        <time>2011-09-23T15:04:02.000Z</time>
      </trkpt>
      <trkpt lon="7.177001992240548" lat="46.58330999314785">
        <ele>1402.4000244140625</ele>
        <time>2011-09-23T15:04:13.000Z</time>
      </trkpt>
      <trkpt lon="7.177143981680274" lat="46.58344695344567">
        <ele>1404.0</ele>
        <time>2011-09-23T15:04:22.000Z</time>
      </trkpt>
      <trkpt lon="7.1773099433630705" lat="46.58358793705702">
        <ele>1405.199951171875</ele>
        <time>2011-09-23T15:04:31.000Z</time>
      </trkpt>
      <trkpt lon="7.177446987479925" lat="46.58371995203197">
        <ele>1406.4000244140625</ele>
        <time>2011-09-23T15:04:39.000Z</time>
      </trkpt>
      <trkpt lon="7.1775599755346775" lat="46.58385397866368">
        <ele>1407.800048828125</ele>
        <time>2011-09-23T15:04:47.000Z</time>
      </trkpt>
      <trkpt lon="7.177650919184089" lat="46.58396193757653">
        <ele>1409.199951171875</ele>
        <time>2011-09-23T15:04:54.000Z</time>
      </trkpt>
      <trkpt lon="7.177763991057873" lat="46.58409898169339">
        <ele>1410.800048828125</ele>
        <time>2011-09-23T15:05:03.000Z</time>
      </trkpt>
      <trkpt lon="7.17786599881947" lat="46.584222950041294">
        <ele>1412.5999755859375</ele>
        <time>2011-09-23T15:05:12.000Z</time>
      </trkpt>
      <trkpt lon="7.17795392498374" lat="46.58432696945965">
        <ele>1415.0</ele>
        <time>2011-09-23T15:05:21.000Z</time>
      </trkpt>
      <trkpt lon="7.17804092913866" lat="46.584417996928096">
        <ele>1416.5999755859375</ele>
        <time>2011-09-23T15:05:30.000Z</time>
      </trkpt>
      <trkpt lon="7.178147966042161" lat="46.58453199081123">
        <ele>1418.5999755859375</ele>
        <time>2011-09-23T15:05:41.000Z</time>
      </trkpt>
      <trkpt lon="7.178244944661856" lat="46.584633998572826">
        <ele>1420.4000244140625</ele>
        <time>2011-09-23T15:05:50.000Z</time>
      </trkpt>
      <trkpt lon="7.178323986008763" lat="46.584717985242605">
        <ele>1422.0</ele>
        <time>2011-09-23T15:05:58.000Z</time>
      </trkpt>
      <trkpt lon="7.178419958800077" lat="46.58483591862023">
        <ele>1423.800048828125</ele>
        <time>2011-09-23T15:06:09.000Z</time>
      </trkpt>
      <trkpt lon="7.178491959348321" lat="46.58492392860353">
        <ele>1425.199951171875</ele>
        <time>2011-09-23T15:06:17.000Z</time>
      </trkpt>
      <trkpt lon="7.178551973775029" lat="46.58499592915177">
        <ele>1426.5999755859375</ele>
        <time>2011-09-23T15:06:25.000Z</time>
      </trkpt>
      <trkpt lon="7.178632942959666" lat="46.58509491942823">
        <ele>1428.0</ele>
        <time>2011-09-23T15:06:36.000Z</time>
      </trkpt>
      <trkpt lon="7.178695974871516" lat="46.585172954946756">
        <ele>1429.4000244140625</ele>
        <time>2011-09-23T15:06:44.000Z</time>
      </trkpt>
      <trkpt lon="7.178761940449476" lat="46.58525995910168">
        <ele>1430.800048828125</ele>
        <time>2011-09-23T15:06:53.000Z</time>
      </trkpt>
      <trkpt lon="7.178812986239791" lat="46.58532693050802">
        <ele>1431.5999755859375</ele>
        <time>2011-09-23T15:07:00.000Z</time>
      </trkpt>
      <trkpt lon="7.1788649540394545" lat="46.5853969193995">
        <ele>1432.5999755859375</ele>
        <time>2011-09-23T15:07:07.000Z</time>
      </trkpt>
      <trkpt lon="7.178915999829769" lat="46.58546498045325">
        <ele>1433.5999755859375</ele>
        <time>2011-09-23T15:07:14.000Z</time>
      </trkpt>
      <trkpt lon="7.1789309196174145" lat="46.58548392355442">
        <ele>1433.800048828125</ele>
        <time>2011-09-23T15:07:16.000Z</time>
      </trkpt>
      <trkpt lon="7.178999986499548" lat="46.585576962679625">
        <ele>1435.0</ele>
        <time>2011-09-23T15:07:26.000Z</time>
      </trkpt>
      <trkpt lon="7.179075926542282" lat="46.58567796461284">
        <ele>1436.5999755859375</ele>
        <time>2011-09-23T15:07:36.000Z</time>
      </trkpt>
      <trkpt lon="7.179136946797371" lat="46.58575499430299">
        <ele>1437.5999755859375</ele>
        <time>2011-09-23T15:07:43.000Z</time>
      </trkpt>
      <trkpt lon="7.179250940680504" lat="46.58589497208595">
        <ele>1439.4000244140625</ele>
        <time>2011-09-23T15:07:54.000Z</time>
      </trkpt>
      <trkpt lon="7.1793299820274115" lat="46.58599195070565">
        <ele>1441.199951171875</ele>
        <time>2011-09-23T15:08:02.000Z</time>
      </trkpt>
      <trkpt lon="7.17939293012023" lat="46.586068980395794">
        <ele>1442.4000244140625</ele>
        <time>2011-09-23T15:08:09.000Z</time>
      </trkpt>
      <trkpt lon="7.179454956203699" lat="46.58614492043853">
        <ele>1443.5999755859375</ele>
        <time>2011-09-23T15:08:16.000Z</time>
      </trkpt>
      <trkpt lon="7.179528968408704" lat="46.58623695373535">
        <ele>1445.199951171875</ele>
        <time>2011-09-23T15:08:25.000Z</time>
      </trkpt>
      <trkpt lon="7.1795829478651285" lat="46.58630291931331">
        <ele>1446.199951171875</ele>
        <time>2011-09-23T15:08:32.000Z</time>
      </trkpt>
      <trkpt lon="7.179656960070133" lat="46.586392940953374">
        <ele>1447.800048828125</ele>
        <time>2011-09-23T15:08:41.000Z</time>
      </trkpt>
      <trkpt lon="7.179744970053434" lat="46.586501989513636">
        <ele>1449.800048828125</ele>
        <time>2011-09-23T15:08:52.000Z</time>
      </trkpt>
      <trkpt lon="7.179783945903182" lat="46.58654993399978">
        <ele>1450.5999755859375</ele>
        <time>2011-09-23T15:08:57.000Z</time>
      </trkpt>
      <trkpt lon="7.1798559464514256" lat="46.5866369381547">
        <ele>1452.0</ele>
        <time>2011-09-23T15:09:06.000Z</time>
      </trkpt>
      <trkpt lon="7.179924929514527" lat="46.586713967844844">
        <ele>1453.4000244140625</ele>
        <time>2011-09-23T15:09:14.000Z</time>
      </trkpt>
      <trkpt lon="7.179993996396661" lat="46.58679099753499">
        <ele>1455.0</ele>
        <time>2011-09-23T15:09:22.000Z</time>
      </trkpt>
      <trkpt lon="7.180068930611014" lat="46.58687498420477">
        <ele>1456.4000244140625</ele>
        <time>2011-09-23T15:09:31.000Z</time>
      </trkpt>
      <trkpt lon="7.1801249217242" lat="46.58693692646921">
        <ele>1457.5999755859375</ele>
        <time>2011-09-23T15:09:38.000Z</time>
      </trkpt>
      <trkpt lon="7.180189965292811" lat="46.58700993284583">
        <ele>1458.800048828125</ele>
        <time>2011-09-23T15:09:46.000Z</time>
      </trkpt>
      <trkpt lon="7.180245956405997" lat="46.587078999727964">
        <ele>1460.0</ele>
        <time>2011-09-23T15:09:53.000Z</time>
      </trkpt>
      <trkpt lon="7.18031695112586" lat="46.587169943377376">
        <ele>1461.4000244140625</ele>
        <time>2011-09-23T15:10:02.000Z</time>
      </trkpt>
      <trkpt lon="7.180324997752905" lat="46.58718092367053">
        <ele>1461.5999755859375</ele>
        <time>2011-09-23T15:10:03.000Z</time>
      </trkpt>
      <trkpt lon="7.180428933352232" lat="46.587293995544314">
        <ele>1464.0</ele>
        <time>2011-09-23T15:10:14.000Z</time>
      </trkpt>
      <trkpt lon="7.180528929457068" lat="46.58739399164915">
        <ele>1466.0</ele>
        <time>2011-09-23T15:10:24.000Z</time>
      </trkpt>
      <trkpt lon="7.1806449349969625" lat="46.587508991360664">
        <ele>1467.800048828125</ele>
        <time>2011-09-23T15:10:33.000Z</time>
      </trkpt>
      <trkpt lon="7.180790947750211" lat="46.58762591890991">
        <ele>1470.0</ele>
        <time>2011-09-23T15:10:42.000Z</time>
      </trkpt>
      <trkpt lon="7.180913994088769" lat="46.587723987177014">
        <ele>1471.4000244140625</ele>
        <time>2011-09-23T15:10:51.000Z</time>
      </trkpt>
      <trkpt lon="7.1810089610517025" lat="46.587809985503554">
        <ele>1473.0</ele>
        <time>2011-09-23T15:11:00.000Z</time>
      </trkpt>
      <trkpt lon="7.181049948558211" lat="46.58785097301006">
        <ele>1473.5999755859375</ele>
        <time>2011-09-23T15:11:04.000Z</time>
      </trkpt>
      <trkpt lon="7.1811179257929325" lat="46.587917944416404">
        <ele>1474.5999755859375</ele>
        <time>2011-09-23T15:11:11.000Z</time>
      </trkpt>
      <trkpt lon="7.1812009904533625" lat="46.58800193108618">
        <ele>1476.0</ele>
        <time>2011-09-23T15:11:19.000Z</time>
      </trkpt>
      <trkpt lon="7.181270979344845" lat="46.588071919977665">
        <ele>1477.0</ele>
        <time>2011-09-23T15:11:26.000Z</time>
      </trkpt>
      <trkpt lon="7.1813249588012695" lat="46.58816395327449">
        <ele>1478.4000244140625</ele>
        <time>2011-09-23T15:11:35.000Z</time>
      </trkpt>
      <trkpt lon="7.1813249588012695" lat="46.58818599767983">
        <ele>1479.0</ele>
        <time>2011-09-23T15:11:39.000Z</time>
      </trkpt>
      <trkpt lon="7.1813249588012695" lat="46.58818599767983">
        <ele>1479.199951171875</ele>
        <time>2011-09-23T15:12:27.000Z</time>
      </trkpt>
      <trkpt lon="7.1813249588012695" lat="46.58818599767983">
        <ele>1479.199951171875</ele>
        <time>2011-09-23T15:12:28.000Z</time>
      </trkpt>
      <trkpt lon="7.180534964427352" lat="46.58808499574661">
        <ele>1484.800048828125</ele>
        <time>2011-09-23T15:13:47.000Z</time>
      </trkpt>
      <trkpt lon="7.18037897720933" lat="46.588047947734594">
        <ele>1486.4000244140625</ele>
        <time>2011-09-23T15:13:56.000Z</time>
      </trkpt>
      <trkpt lon="7.18024997971952" lat="46.58801592886448">
        <ele>1487.5999755859375</ele>
        <time>2011-09-23T15:14:03.000Z</time>
      </trkpt>
      <trkpt lon="7.180096926167607" lat="46.58797997049987">
        <ele>1488.800048828125</ele>
        <time>2011-09-23T15:14:11.000Z</time>
      </trkpt>
      <trkpt lon="7.1799469739198685" lat="46.587943928316236">
        <ele>1490.0</ele>
        <time>2011-09-23T15:14:18.000Z</time>
      </trkpt>
      <trkpt lon="7.17977698892355" lat="46.58790294080973">
        <ele>1491.4000244140625</ele>
        <time>2011-09-23T15:14:27.000Z</time>
      </trkpt>
      <trkpt lon="7.179654948413372" lat="46.58787393942475">
        <ele>1492.800048828125</ele>
        <time>2011-09-23T15:14:34.000Z</time>
      </trkpt>
      <trkpt lon="7.179532991722226" lat="46.58785097301006">
        <ele>1494.0</ele>
        <time>2011-09-23T15:14:41.000Z</time>
      </trkpt>
      <trkpt lon="7.179402988404036" lat="46.58782892860472">
        <ele>1495.5999755859375</ele>
        <time>2011-09-23T15:14:49.000Z</time>
      </trkpt>
      <trkpt lon="7.1792669501155615" lat="46.58780495636165">
        <ele>1497.0</ele>
        <time>2011-09-23T15:14:57.000Z</time>
      </trkpt>
      <trkpt lon="7.179081961512566" lat="46.587771931663156">
        <ele>1499.0</ele>
        <time>2011-09-23T15:15:07.000Z</time>
      </trkpt>
      <trkpt lon="7.178921950981021" lat="46.58774091862142">
        <ele>1500.800048828125</ele>
        <time>2011-09-23T15:15:15.000Z</time>
      </trkpt>
      <trkpt lon="7.178736962378025" lat="46.587705966085196">
        <ele>1502.800048828125</ele>
        <time>2011-09-23T15:15:25.000Z</time>
      </trkpt>
      <trkpt lon="7.178562954068184" lat="46.58767193555832">
        <ele>1504.800048828125</ele>
        <time>2011-09-23T15:15:34.000Z</time>
      </trkpt>
      <trkpt lon="7.178377965465188" lat="46.587639916688204">
        <ele>1506.5999755859375</ele>
        <time>2011-09-23T15:15:44.000Z</time>
      </trkpt>
      <trkpt lon="7.178244944661856" lat="46.587616950273514">
        <ele>1508.4000244140625</ele>
        <time>2011-09-23T15:15:52.000Z</time>
      </trkpt>
      <trkpt lon="7.178137991577387" lat="46.587598929181695">
        <ele>1509.800048828125</ele>
        <time>2011-09-23T15:15:59.000Z</time>
      </trkpt>
      <trkpt lon="7.178002959117293" lat="46.58756892196834">
        <ele>1511.4000244140625</ele>
        <time>2011-09-23T15:16:08.000Z</time>
      </trkpt>
      <trkpt lon="7.177851917222142" lat="46.587530951946974">
        <ele>1513.199951171875</ele>
        <time>2011-09-23T15:16:18.000Z</time>
      </trkpt>
      <trkpt lon="7.177718980237842" lat="46.5874969214201">
        <ele>1514.5999755859375</ele>
        <time>2011-09-23T15:16:27.000Z</time>
      </trkpt>
      <trkpt lon="7.17758696526289" lat="46.58745895139873">
        <ele>1516.199951171875</ele>
        <time>2011-09-23T15:16:36.000Z</time>
      </trkpt>
      <trkpt lon="7.177463918924332" lat="46.587423998862505">
        <ele>1517.800048828125</ele>
        <time>2011-09-23T15:16:45.000Z</time>
      </trkpt>
      <trkpt lon="7.177346991375089" lat="46.58738896250725">
        <ele>1519.4000244140625</ele>
        <time>2011-09-23T15:16:54.000Z</time>
      </trkpt>
      <trkpt lon="7.177271973341703" lat="46.58736599609256">
        <ele>1520.4000244140625</ele>
        <time>2011-09-23T15:17:00.000Z</time>
      </trkpt>
      <trkpt lon="7.177208941429853" lat="46.58734596334398">
        <ele>1521.4000244140625</ele>
        <time>2011-09-23T15:17:05.000Z</time>
      </trkpt>
      <trkpt lon="7.177119925618172" lat="46.58732492476702">
        <ele>1522.5999755859375</ele>
        <time>2011-09-23T15:17:12.000Z</time>
      </trkpt>
      <trkpt lon="7.176983971148729" lat="46.58730195835233">
        <ele>1524.4000244140625</ele>
        <time>2011-09-23T15:17:22.000Z</time>
      </trkpt>
      <trkpt lon="7.176850950345397" lat="46.58728192560375">
        <ele>1525.800048828125</ele>
        <time>2011-09-23T15:17:31.000Z</time>
      </trkpt>
      <trkpt lon="7.176732933148742" lat="46.58726692199707">
        <ele>1527.4000244140625</ele>
        <time>2011-09-23T15:17:39.000Z</time>
      </trkpt>
      <trkpt lon="7.176602929830551" lat="46.58726692199707">
        <ele>1528.5999755859375</ele>
        <time>2011-09-23T15:17:46.000Z</time>
      </trkpt>
      <trkpt lon="7.17662095092237" lat="46.58732995390892">
        <ele>1529.5999755859375</ele>
        <time>2011-09-23T15:17:53.000Z</time>
      </trkpt>
      <trkpt lon="7.176709966734052" lat="46.5874379966408">
        <ele>1531.4000244140625</ele>
        <time>2011-09-23T15:18:03.000Z</time>
      </trkpt>
      <trkpt lon="7.176803927868605" lat="46.58752399496734">
        <ele>1532.199951171875</ele>
        <time>2011-09-23T15:18:10.000Z</time>
      </trkpt>
      <trkpt lon="7.176925968378782" lat="46.58763195388019">
        <ele>1533.800048828125</ele>
        <time>2011-09-23T15:18:19.000Z</time>
      </trkpt>
      <trkpt lon="7.177038956433535" lat="46.58773194998503">
        <ele>1535.199951171875</ele>
        <time>2011-09-23T15:18:26.000Z</time>
      </trkpt>
      <trkpt lon="7.177168959751725" lat="46.58784099854529">
        <ele>1536.4000244140625</ele>
        <time>2011-09-23T15:18:33.000Z</time>
      </trkpt>
      <trkpt lon="7.177355960011482" lat="46.587981982156634">
        <ele>1537.4000244140625</ele>
        <time>2011-09-23T15:18:41.000Z</time>
      </trkpt>
      <trkpt lon="7.177725937217474" lat="46.58823695965111">
        <ele>1540.199951171875</ele>
        <time>2011-09-23T15:18:55.000Z</time>
      </trkpt>
      <trkpt lon="7.177955936640501" lat="46.588394958525896">
        <ele>1541.800048828125</ele>
        <time>2011-09-23T15:19:04.000Z</time>
      </trkpt>
      <trkpt lon="7.178172944113612" lat="46.588546922430396">
        <ele>1543.199951171875</ele>
        <time>2011-09-23T15:19:12.000Z</time>
      </trkpt>
      <trkpt lon="7.178419958800077" lat="46.58873995766044">
        <ele>1544.4000244140625</ele>
        <time>2011-09-23T15:19:21.000Z</time>
      </trkpt>
      <trkpt lon="7.17861894518137" lat="46.58893894404173">
        <ele>1544.0</ele>
        <time>2011-09-23T15:19:27.000Z</time>
      </trkpt>
      <trkpt lon="7.178726987913251" lat="46.58907196484506">
        <ele>1544.199951171875</ele>
        <time>2011-09-23T15:19:30.000Z</time>
      </trkpt>
      <trkpt lon="7.178852967917919" lat="46.58927698619664">
        <ele>1545.5999755859375</ele>
        <time>2011-09-23T15:19:36.000Z</time>
      </trkpt>
      <trkpt lon="7.1788999903947115" lat="46.589425932615995">
        <ele>1547.199951171875</ele>
        <time>2011-09-23T15:19:43.000Z</time>
      </trkpt>
      <trkpt lon="7.178863948211074" lat="46.58956398256123">
        <ele>1548.4000244140625</ele>
        <time>2011-09-23T15:19:50.000Z</time>
      </trkpt>
      <trkpt lon="7.178777949884534" lat="46.589700942859054">
        <ele>1548.800048828125</ele>
        <time>2011-09-23T15:19:56.000Z</time>
      </trkpt>
      <trkpt lon="7.178734950721264" lat="46.589918956160545">
        <ele>1549.0</ele>
        <time>2011-09-23T15:20:03.000Z</time>
      </trkpt>
      <trkpt lon="7.178781973198056" lat="46.5902129933238">
        <ele>1548.5999755859375</ele>
        <time>2011-09-23T15:20:11.000Z</time>
      </trkpt>
      <trkpt lon="7.178837964311242" lat="46.59053393639624">
        <ele>1547.5999755859375</ele>
        <time>2011-09-23T15:20:18.000Z</time>
      </trkpt>
      <trkpt lon="7.178981965407729" lat="46.59089494496584">
        <ele>1547.4000244140625</ele>
        <time>2011-09-23T15:20:25.000Z</time>
      </trkpt>
      <trkpt lon="7.179083973169327" lat="46.591166937723756">
        <ele>1549.199951171875</ele>
        <time>2011-09-23T15:20:32.000Z</time>
      </trkpt>
      <trkpt lon="7.1791529562324286" lat="46.591505985707045">
        <ele>1550.800048828125</ele>
        <time>2011-09-23T15:20:42.000Z</time>
      </trkpt>
      <trkpt lon="7.179106939584017" lat="46.59180094487965">
        <ele>1551.4000244140625</ele>
        <time>2011-09-23T15:20:52.000Z</time>
      </trkpt>
      <trkpt lon="7.179065952077508" lat="46.59203094430268">
        <ele>1550.5999755859375</ele>
        <time>2011-09-23T15:21:00.000Z</time>
      </trkpt>
      <trkpt lon="7.17898397706449" lat="46.592304948717356">
        <ele>1550.0</ele>
        <time>2011-09-23T15:21:09.000Z</time>
      </trkpt>
      <trkpt lon="7.178936954587698" lat="46.59242397174239">
        <ele>1550.199951171875</ele>
        <time>2011-09-23T15:21:14.000Z</time>
      </trkpt>
      <trkpt lon="7.178720952942967" lat="46.59259093925357">
        <ele>1549.4000244140625</ele>
        <time>2011-09-23T15:21:21.000Z</time>
      </trkpt>
      <trkpt lon="7.17859991826117" lat="46.59269697032869">
        <ele>1549.5999755859375</ele>
        <time>2011-09-23T15:21:28.000Z</time>
      </trkpt>
      <trkpt lon="7.178584998473525" lat="46.592774922028184">
        <ele>1550.0</ele>
        <time>2011-09-23T15:21:32.000Z</time>
      </trkpt>
      <trkpt lon="7.178511992096901" lat="46.59283292479813">
        <ele>1551.4000244140625</ele>
        <time>2011-09-23T15:21:39.000Z</time>
      </trkpt>
      <trkpt lon="7.178511992096901" lat="46.59283292479813">
        <ele>1551.5999755859375</ele>
        <time>2011-09-23T15:21:42.000Z</time>
      </trkpt>
      <trkpt lon="7.178401937708259" lat="46.59286896698177">
        <ele>1552.199951171875</ele>
        <time>2011-09-23T15:21:47.000Z</time>
      </trkpt>
      <trkpt lon="7.17808099463582" lat="46.59293593838811">
        <ele>1554.0</ele>
        <time>2011-09-23T15:21:58.000Z</time>
      </trkpt>
      <trkpt lon="7.177880918607116" lat="46.592968963086605">
        <ele>1555.5999755859375</ele>
        <time>2011-09-23T15:22:05.000Z</time>
      </trkpt>
      <trkpt lon="7.177628958597779" lat="46.592988995835185">
        <ele>1557.4000244140625</ele>
        <time>2011-09-23T15:22:14.000Z</time>
      </trkpt>
      <trkpt lon="7.177442964166403" lat="46.59300399944186">
        <ele>1558.5999755859375</ele>
        <time>2011-09-23T15:22:20.000Z</time>
      </trkpt>
      <trkpt lon="7.177227968350053" lat="46.59302193671465">
        <ele>1560.0</ele>
        <time>2011-09-23T15:22:28.000Z</time>
      </trkpt>
      <trkpt lon="7.176999980583787" lat="46.59304096363485">
        <ele>1561.199951171875</ele>
        <time>2011-09-23T15:22:37.000Z</time>
      </trkpt>
      <trkpt lon="7.176734944805503" lat="46.59306191839278">
        <ele>1563.0</ele>
        <time>2011-09-23T15:22:47.000Z</time>
      </trkpt>
      <trkpt lon="7.176503939554095" lat="46.59308094531298">
        <ele>1564.199951171875</ele>
        <time>2011-09-23T15:22:56.000Z</time>
      </trkpt>
      <trkpt lon="7.176279975101352" lat="46.593098966404796">
        <ele>1565.4000244140625</ele>
        <time>2011-09-23T15:23:05.000Z</time>
      </trkpt>
      <trkpt lon="7.176023991778493" lat="46.593119921162724">
        <ele>1566.800048828125</ele>
        <time>2011-09-23T15:23:15.000Z</time>
      </trkpt>
      <trkpt lon="7.175800949335098" lat="46.59313391894102">
        <ele>1566.800048828125</ele>
        <time>2011-09-23T15:23:23.000Z</time>
      </trkpt>
      <trkpt lon="7.175569944083691" lat="46.59314598888159">
        <ele>1567.0</ele>
        <time>2011-09-23T15:23:30.000Z</time>
      </trkpt>
      <trkpt lon="7.175274984911084" lat="46.593161998316646">
        <ele>1566.800048828125</ele>
        <time>2011-09-23T15:23:38.000Z</time>
      </trkpt>
      <trkpt lon="7.1749429777264595" lat="46.59317993558943">
        <ele>1566.0</ele>
        <time>2011-09-23T15:23:46.000Z</time>
      </trkpt>
      <trkpt lon="7.174661932513118" lat="46.59319896250963">
        <ele>1565.800048828125</ele>
        <time>2011-09-23T15:23:53.000Z</time>
      </trkpt>
      <trkpt lon="7.174420952796936" lat="46.59322394058108">
        <ele>1565.199951171875</ele>
        <time>2011-09-23T15:24:00.000Z</time>
      </trkpt>
      <trkpt lon="7.1741999220103025" lat="46.59327599219978">
        <ele>1564.5999755859375</ele>
        <time>2011-09-23T15:24:06.000Z</time>
      </trkpt>
      <trkpt lon="7.174053993076086" lat="46.5933249425143">
        <ele>1564.199951171875</ele>
        <time>2011-09-23T15:24:11.000Z</time>
      </trkpt>
      <trkpt lon="7.174034966155887" lat="46.593330977484584">
        <ele>1564.199951171875</ele>
        <time>2011-09-23T15:24:12.000Z</time>
      </trkpt>
      <trkpt lon="7.174007976427674" lat="46.593378921970725">
        <ele>1564.800048828125</ele>
        <time>2011-09-23T15:24:18.000Z</time>
      </trkpt>
      <trkpt lon="7.174007976427674" lat="46.59339199773967">
        <ele>1564.800048828125</ele>
        <time>2011-09-23T15:24:21.000Z</time>
      </trkpt>
      <trkpt lon="7.174015939235687" lat="46.59343399107456">
        <ele>1564.800048828125</ele>
        <time>2011-09-23T15:24:30.000Z</time>
      </trkpt>
      <trkpt lon="7.174046952277422" lat="46.593548990786076">
        <ele>1565.4000244140625</ele>
        <time>2011-09-23T15:24:40.000Z</time>
      </trkpt>
      <trkpt lon="7.174071930348873" lat="46.59364295192063">
        <ele>1566.0</ele>
        <time>2011-09-23T15:24:48.000Z</time>
      </trkpt>
      <trkpt lon="7.174071930348873" lat="46.59374797716737">
        <ele>1565.5999755859375</ele>
        <time>2011-09-23T15:24:57.000Z</time>
      </trkpt>
      <trkpt lon="7.174078971147537" lat="46.59382098354399">
        <ele>1565.4000244140625</ele>
        <time>2011-09-23T15:25:04.000Z</time>
      </trkpt>
      <trkpt lon="7.17408299446106" lat="46.59383799880743">
        <ele>1564.800048828125</ele>
        <time>2011-09-23T15:25:08.000Z</time>
      </trkpt>
      <trkpt lon="7.174123981967568" lat="46.594013934955">
        <ele>1563.800048828125</ele>
        <time>2011-09-23T15:25:47.000Z</time>
      </trkpt>
      <trkpt lon="7.174136973917484" lat="46.59407596103847">
        <ele>1564.4000244140625</ele>
        <time>2011-09-23T15:25:51.000Z</time>
      </trkpt>
      <trkpt lon="7.17414896003902" lat="46.594170928001404">
        <ele>1561.4000244140625</ele>
        <time>2011-09-23T15:25:57.000Z</time>
      </trkpt>
      <trkpt lon="7.174174943938851" lat="46.59427595324814">
        <ele>1558.800048828125</ele>
        <time>2011-09-23T15:26:01.000Z</time>
      </trkpt>
      <trkpt lon="7.174244932830334" lat="46.59441492520273">
        <ele>1557.800048828125</ele>
        <time>2011-09-23T15:26:07.000Z</time>
      </trkpt>
      <trkpt lon="7.17425599694252" lat="46.59443797543645">
        <ele>1557.4000244140625</ele>
        <time>2011-09-23T15:26:10.000Z</time>
      </trkpt>
      <trkpt lon="7.174279969185591" lat="46.594493966549635">
        <ele>1557.5999755859375</ele>
        <time>2011-09-23T15:26:14.000Z</time>
      </trkpt>
      <trkpt lon="7.17429899610579" lat="46.594538977369666">
        <ele>1559.0</ele>
        <time>2011-09-23T15:26:21.000Z</time>
      </trkpt>
      <trkpt lon="7.174342917278409" lat="46.594620952382684">
        <ele>1560.199951171875</ele>
        <time>2011-09-23T15:26:29.000Z</time>
      </trkpt>
      <trkpt lon="7.174342917278409" lat="46.594620952382684">
        <ele>1560.4000244140625</ele>
        <time>2011-09-23T15:26:30.000Z</time>
      </trkpt>
      <trkpt lon="7.174367979168892" lat="46.59466294571757">
        <ele>1562.0</ele>
        <time>2011-09-23T15:26:36.000Z</time>
      </trkpt>
      <trkpt lon="7.174388933926821" lat="46.59470493905246">
        <ele>1561.5999755859375</ele>
        <time>2011-09-23T15:26:49.000Z</time>
      </trkpt>
      <trkpt lon="7.174388933926821" lat="46.59470493905246">
        <ele>1561.5999755859375</ele>
        <time>2011-09-23T15:26:52.000Z</time>
      </trkpt>
      <trkpt lon="7.174440985545516" lat="46.594818932935596">
        <ele>1562.4000244140625</ele>
        <time>2011-09-23T15:27:10.000Z</time>
      </trkpt>
      <trkpt lon="7.174458922818303" lat="46.594855980947614">
        <ele>1562.4000244140625</ele>
        <time>2011-09-23T15:27:15.000Z</time>
      </trkpt>
      <trkpt lon="7.174483984708786" lat="46.5949119720608">
        <ele>1562.199951171875</ele>
        <time>2011-09-23T15:27:22.000Z</time>
      </trkpt>
      <trkpt lon="7.174529917538166" lat="46.59501498565078">
        <ele>1561.5999755859375</ele>
        <time>2011-09-23T15:27:26.000Z</time>
      </trkpt>
      <trkpt lon="7.174576940014958" lat="46.595180947333574">
        <ele>1562.0</ele>
        <time>2011-09-23T15:27:32.000Z</time>
      </trkpt>
      <trkpt lon="7.17462295666337" lat="46.595375994220376">
        <ele>1562.4000244140625</ele>
        <time>2011-09-23T15:27:39.000Z</time>
      </trkpt>
      <trkpt lon="7.174666961655021" lat="46.595546985045075">
        <ele>1563.199951171875</ele>
        <time>2011-09-23T15:27:46.000Z</time>
      </trkpt>
      <trkpt lon="7.174672996625304" lat="46.59559895284474">
        <ele>1563.4000244140625</ele>
        <time>2011-09-23T15:27:48.000Z</time>
      </trkpt>
      <trkpt lon="7.174672996625304" lat="46.59565796144307">
        <ele>1563.5999755859375</ele>
        <time>2011-09-23T15:27:53.000Z</time>
      </trkpt>
      <trkpt lon="7.1747129783034325" lat="46.595847979187965">
        <ele>1561.800048828125</ele>
        <time>2011-09-23T15:28:39.000Z</time>
      </trkpt>
      <trkpt lon="7.174869971349835" lat="46.59598192200065">
        <ele>1561.800048828125</ele>
        <time>2011-09-23T15:28:45.000Z</time>
      </trkpt>
      <trkpt lon="7.17498698271811" lat="46.596059957519174">
        <ele>1560.4000244140625</ele>
        <time>2011-09-23T15:28:50.000Z</time>
      </trkpt>
      <trkpt lon="7.175039956346154" lat="46.59609499387443">
        <ele>1559.800048828125</ele>
        <time>2011-09-23T15:28:54.000Z</time>
      </trkpt>
      <trkpt lon="7.175124948844314" lat="46.5961379930377">
        <ele>1559.199951171875</ele>
        <time>2011-09-23T15:29:01.000Z</time>
      </trkpt>
      <trkpt lon="7.175169959664345" lat="46.59615794196725">
        <ele>1557.4000244140625</ele>
        <time>2011-09-23T15:29:08.000Z</time>
      </trkpt>
      <trkpt lon="7.175169959664345" lat="46.59615794196725">
        <ele>1557.199951171875</ele>
        <time>2011-09-23T15:29:09.000Z</time>
      </trkpt>
      <trkpt lon="7.175282947719097" lat="46.596209993585944">
        <ele>1555.199951171875</ele>
        <time>2011-09-23T15:29:16.000Z</time>
      </trkpt>
      <trkpt lon="7.1753449738025665" lat="46.596231954172254">
        <ele>1553.800048828125</ele>
        <time>2011-09-23T15:29:21.000Z</time>
      </trkpt>
      <trkpt lon="7.175436923280358" lat="46.59626296721399">
        <ele>1551.199951171875</ele>
        <time>2011-09-23T15:29:29.000Z</time>
      </trkpt>
      <trkpt lon="7.1756539307534695" lat="46.59634594805539">
        <ele>1546.199951171875</ele>
        <time>2011-09-23T15:29:41.000Z</time>
      </trkpt>
      <trkpt lon="7.1759269293397665" lat="46.59643999300897">
        <ele>1540.0</ele>
        <time>2011-09-23T15:29:48.000Z</time>
      </trkpt>
      <trkpt lon="7.17612499371171" lat="46.59650595858693">
        <ele>1535.0</ele>
        <time>2011-09-23T15:29:54.000Z</time>
      </trkpt>
      <trkpt lon="7.176266983151436" lat="46.596556920558214">
        <ele>1531.0</ele>
        <time>2011-09-23T15:30:00.000Z</time>
      </trkpt>
      <trkpt lon="7.176266983151436" lat="46.596556920558214">
        <ele>1530.5999755859375</ele>
        <time>2011-09-23T15:30:01.000Z</time>
      </trkpt>
      <trkpt lon="7.176309982314706" lat="46.59657393582165">
        <ele>1529.199951171875</ele>
        <time>2011-09-23T15:30:05.000Z</time>
      </trkpt>
      <trkpt lon="7.176389945670962" lat="46.59660595469177">
        <ele>1526.5999755859375</ele>
        <time>2011-09-23T15:30:13.000Z</time>
      </trkpt>
      <trkpt lon="7.176455995067954" lat="46.596638979390264">
        <ele>1524.800048828125</ele>
        <time>2011-09-23T15:30:20.000Z</time>
      </trkpt>
      <trkpt lon="7.1765129920095205" lat="46.59667493775487">
        <ele>1522.199951171875</ele>
        <time>2011-09-23T15:30:29.000Z</time>
      </trkpt>
      <trkpt lon="7.176602929830551" lat="46.596725983545184">
        <ele>1520.4000244140625</ele>
        <time>2011-09-23T15:30:35.000Z</time>
      </trkpt>
      <trkpt lon="7.176743997260928" lat="46.59682899713516">
        <ele>1516.800048828125</ele>
        <time>2011-09-23T15:30:40.000Z</time>
      </trkpt>
      <trkpt lon="7.177003920078278" lat="46.59691097214818">
        <ele>1512.800048828125</ele>
        <time>2011-09-23T15:30:47.000Z</time>
      </trkpt>
      <trkpt lon="7.17715697363019" lat="46.59698297269642">
        <ele>1510.5999755859375</ele>
        <time>2011-09-23T15:30:53.000Z</time>
      </trkpt>
      <trkpt lon="7.1771959494799376" lat="46.59704592078924">
        <ele>1508.800048828125</ele>
        <time>2011-09-23T15:30:57.000Z</time>
      </trkpt>
      <trkpt lon="7.17719997279346" lat="46.59705991856754">
        <ele>1507.800048828125</ele>
        <time>2011-09-23T15:30:59.000Z</time>
      </trkpt>
      <trkpt lon="7.1772159822285175" lat="46.59707894548774">
        <ele>1507.199951171875</ele>
        <time>2011-09-23T15:31:03.000Z</time>
      </trkpt>
      <trkpt lon="7.1772159822285175" lat="46.59707894548774">
        <ele>1506.4000244140625</ele>
        <time>2011-09-23T15:31:06.000Z</time>
      </trkpt>
      <trkpt lon="7.177257975563407" lat="46.59710199572146">
        <ele>1505.800048828125</ele>
        <time>2011-09-23T15:31:09.000Z</time>
      </trkpt>
      <trkpt lon="7.177321929484606" lat="46.59714298322797">
        <ele>1504.0</ele>
        <time>2011-09-23T15:31:16.000Z</time>
      </trkpt>
      <trkpt lon="7.177355960011482" lat="46.597161926329136">
        <ele>1502.5999755859375</ele>
        <time>2011-09-23T15:31:19.000Z</time>
      </trkpt>
      <trkpt lon="7.177440952509642" lat="46.59720794297755">
        <ele>1500.199951171875</ele>
        <time>2011-09-23T15:31:26.000Z</time>
      </trkpt>
      <trkpt lon="7.177469953894615" lat="46.597223952412605">
        <ele>1498.5999755859375</ele>
        <time>2011-09-23T15:31:30.000Z</time>
      </trkpt>
      <trkpt lon="7.177519993856549" lat="46.59725094214082">
        <ele>1498.0</ele>
        <time>2011-09-23T15:31:34.000Z</time>
      </trkpt>
      <trkpt lon="7.177535919472575" lat="46.5973399579525">
        <ele>1495.199951171875</ele>
        <time>2011-09-23T15:31:39.000Z</time>
      </trkpt>
      <trkpt lon="7.177693918347359" lat="46.59745495766401">
        <ele>1490.199951171875</ele>
        <time>2011-09-23T15:31:45.000Z</time>
      </trkpt>
      <trkpt lon="7.177900951355696" lat="46.59755696542561">
        <ele>1485.4000244140625</ele>
        <time>2011-09-23T15:31:51.000Z</time>
      </trkpt>
      <trkpt lon="7.177939927205443" lat="46.59770197235048">
        <ele>1482.800048828125</ele>
        <time>2011-09-23T15:31:58.000Z</time>
      </trkpt>
      <trkpt lon="7.178024919703603" lat="46.59782895818353">
        <ele>1481.0</ele>
        <time>2011-09-23T15:32:04.000Z</time>
      </trkpt>
      <trkpt lon="7.178048975765705" lat="46.59785393625498">
        <ele>1480.4000244140625</ele>
        <time>2011-09-23T15:32:07.000Z</time>
      </trkpt>
      <trkpt lon="7.178072948008776" lat="46.5978769864887">
        <ele>1480.0</ele>
        <time>2011-09-23T15:32:16.000Z</time>
      </trkpt>
      <trkpt lon="7.178127933293581" lat="46.597931971773505">
        <ele>1478.4000244140625</ele>
        <time>2011-09-23T15:32:21.000Z</time>
      </trkpt>
      <trkpt lon="7.178127933293581" lat="46.597931971773505">
        <ele>1478.199951171875</ele>
        <time>2011-09-23T15:32:23.000Z</time>
      </trkpt>
      <trkpt lon="7.1781419310718775" lat="46.59796692430973">
        <ele>1476.199951171875</ele>
        <time>2011-09-23T15:32:30.000Z</time>
      </trkpt>
      <trkpt lon="7.1781459543854" lat="46.59797798842192">
        <ele>1474.0</ele>
        <time>2011-09-23T15:32:37.000Z</time>
      </trkpt>
      <trkpt lon="7.1781459543854" lat="46.59797798842192">
        <ele>1473.4000244140625</ele>
        <time>2011-09-23T15:32:39.000Z</time>
      </trkpt>
      <trkpt lon="7.178151989355683" lat="46.59799198620021">
        <ele>1472.0</ele>
        <time>2011-09-23T15:32:43.000Z</time>
      </trkpt>
      <trkpt lon="7.17816892080009" lat="46.598035991191864">
        <ele>1470.199951171875</ele>
        <time>2011-09-23T15:32:48.000Z</time>
      </trkpt>
      <trkpt lon="7.17816892080009" lat="46.598035991191864">
        <ele>1469.5999755859375</ele>
        <time>2011-09-23T15:32:49.000Z</time>
      </trkpt>
      <trkpt lon="7.178187947720289" lat="46.59811796620488">
        <ele>1467.199951171875</ele>
        <time>2011-09-23T15:32:56.000Z</time>
      </trkpt>
      <trkpt lon="7.178177973255515" lat="46.598145961761475">
        <ele>1464.800048828125</ele>
        <time>2011-09-23T15:33:02.000Z</time>
      </trkpt>
      <trkpt lon="7.178224995732307" lat="46.59815694205463">
        <ele>1464.199951171875</ele>
        <time>2011-09-23T15:33:05.000Z</time>
      </trkpt>
      <trkpt lon="7.178162969648838" lat="46.598171945661306">
        <ele>1463.800048828125</ele>
        <time>2011-09-23T15:33:09.000Z</time>
      </trkpt>
      <trkpt lon="7.178005976602435" lat="46.598210921511054">
        <ele>1462.0</ele>
        <time>2011-09-23T15:33:16.000Z</time>
      </trkpt>
      <trkpt lon="7.177853928878903" lat="46.598169934004545">
        <ele>1459.4000244140625</ele>
        <time>2011-09-23T15:33:22.000Z</time>
      </trkpt>
      <trkpt lon="7.177722919732332" lat="46.59815392456949">
        <ele>1456.800048828125</ele>
        <time>2011-09-23T15:33:28.000Z</time>
      </trkpt>
      <trkpt lon="7.177680926397443" lat="46.59815895371139">
        <ele>1456.0</ele>
        <time>2011-09-23T15:33:30.000Z</time>
      </trkpt>
      <trkpt lon="7.177655948325992" lat="46.59816297702491">
        <ele>1453.800048828125</ele>
        <time>2011-09-23T15:33:35.000Z</time>
      </trkpt>
      <trkpt lon="7.177572967484593" lat="46.598167922347784">
        <ele>1452.800048828125</ele>
        <time>2011-09-23T15:33:41.000Z</time>
      </trkpt>
      <trkpt lon="7.177444975823164" lat="46.598167922347784">
        <ele>1449.199951171875</ele>
        <time>2011-09-23T15:33:50.000Z</time>
      </trkpt>
      <trkpt lon="7.177444975823164" lat="46.598167922347784">
        <ele>1446.0</ele>
        <time>2011-09-23T15:33:59.000Z</time>
      </trkpt>
      <trkpt lon="7.177444975823164" lat="46.598167922347784">
        <ele>1445.199951171875</ele>
        <time>2011-09-23T15:34:01.000Z</time>
      </trkpt>
      <trkpt lon="7.177295945584774" lat="46.59815593622625">
        <ele>1442.5999755859375</ele>
        <time>2011-09-23T15:34:08.000Z</time>
      </trkpt>
      <trkpt lon="7.177198966965079" lat="46.598127940669656">
        <ele>1441.5999755859375</ele>
        <time>2011-09-23T15:34:11.000Z</time>
      </trkpt>
      <trkpt lon="7.177059995010495" lat="46.59807697869837">
        <ele>1437.800048828125</ele>
        <time>2011-09-23T15:34:20.000Z</time>
      </trkpt>
      <trkpt lon="7.177011966705322" lat="46.598061975091696">
        <ele>1433.800048828125</ele>
        <time>2011-09-23T15:34:30.000Z</time>
      </trkpt>
      <trkpt lon="7.177011966705322" lat="46.598061975091696">
        <ele>1432.0</ele>
        <time>2011-09-23T15:34:35.000Z</time>
      </trkpt>
      <trkpt lon="7.177011966705322" lat="46.598061975091696">
        <ele>1430.800048828125</ele>
        <time>2011-09-23T15:34:38.000Z</time>
      </trkpt>
      <trkpt lon="7.1768139861524105" lat="46.59800196066499">
        <ele>1428.0</ele>
        <time>2011-09-23T15:34:47.000Z</time>
      </trkpt>
      <trkpt lon="7.1768139861524105" lat="46.59800196066499">
        <ele>1426.199951171875</ele>
        <time>2011-09-23T15:34:53.000Z</time>
      </trkpt>
      <trkpt lon="7.1768139861524105" lat="46.59800196066499">
        <ele>1423.800048828125</ele>
        <time>2011-09-23T15:35:00.000Z</time>
      </trkpt>
      <trkpt lon="7.1768139861524105" lat="46.59800196066499">
        <ele>1422.0</ele>
        <time>2011-09-23T15:35:06.000Z</time>
      </trkpt>
      <trkpt lon="7.1768139861524105" lat="46.59800196066499">
        <ele>1420.800048828125</ele>
        <time>2011-09-23T15:35:10.000Z</time>
      </trkpt>
      <trkpt lon="7.176439985632896" lat="46.597956949844956">
        <ele>1418.0</ele>
        <time>2011-09-23T15:35:20.000Z</time>
      </trkpt>
      <trkpt lon="7.176228929311037" lat="46.597974970936775">
        <ele>1415.800048828125</ele>
        <time>2011-09-23T15:35:31.000Z</time>
      </trkpt>
      <trkpt lon="7.176045952364802" lat="46.59796692430973">
        <ele>1413.5999755859375</ele>
        <time>2011-09-23T15:35:35.000Z</time>
      </trkpt>
      <trkpt lon="7.175701959058642" lat="46.59796399064362">
        <ele>1410.800048828125</ele>
        <time>2011-09-23T15:35:42.000Z</time>
      </trkpt>
      <trkpt lon="7.175538931041956" lat="46.597974970936775">
        <ele>1408.4000244140625</ele>
        <time>2011-09-23T15:35:48.000Z</time>
      </trkpt>
      <trkpt lon="7.175405994057655" lat="46.597974970936775">
        <ele>1406.0</ele>
        <time>2011-09-23T15:35:53.000Z</time>
      </trkpt>
      <trkpt lon="7.175365928560495" lat="46.597974970936775">
        <ele>1405.5999755859375</ele>
        <time>2011-09-23T15:35:54.000Z</time>
      </trkpt>
      <trkpt lon="7.1752669382840395" lat="46.597979916259646">
        <ele>1404.0</ele>
        <time>2011-09-23T15:35:58.000Z</time>
      </trkpt>
      <trkpt lon="7.1752669382840395" lat="46.597979916259646">
        <ele>1401.800048828125</ele>
        <time>2011-09-23T15:36:04.000Z</time>
      </trkpt>
      <trkpt lon="7.1752669382840395" lat="46.597979916259646">
        <ele>1401.5999755859375</ele>
        <time>2011-09-23T15:36:05.000Z</time>
      </trkpt>
      <trkpt lon="7.175057977437973" lat="46.597995925694704">
        <ele>1399.800048828125</ele>
        <time>2011-09-23T15:36:12.000Z</time>
      </trkpt>
      <trkpt lon="7.174898972734809" lat="46.598018975928426">
        <ele>1397.5999755859375</ele>
        <time>2011-09-23T15:36:20.000Z</time>
      </trkpt>
      <trkpt lon="7.174742985516787" lat="46.598040936514735">
        <ele>1395.800048828125</ele>
        <time>2011-09-23T15:36:27.000Z</time>
      </trkpt>
      <trkpt lon="7.17460191808641" lat="46.598061975091696">
        <ele>1394.199951171875</ele>
        <time>2011-09-23T15:36:33.000Z</time>
      </trkpt>
      <trkpt lon="7.17440796084702" lat="46.59808695316315">
        <ele>1391.5999755859375</ele>
        <time>2011-09-23T15:36:39.000Z</time>
      </trkpt>
      <trkpt lon="7.174246944487095" lat="46.59810698591173">
        <ele>1390.4000244140625</ele>
        <time>2011-09-23T15:36:43.000Z</time>
      </trkpt>
      <trkpt lon="7.1740429289639" lat="46.59812098369002">
        <ele>1388.4000244140625</ele>
        <time>2011-09-23T15:36:48.000Z</time>
      </trkpt>
      <trkpt lon="7.174003953114152" lat="46.59812391735613">
        <ele>1388.0</ele>
        <time>2011-09-23T15:36:49.000Z</time>
      </trkpt>
      <trkpt lon="7.173701953142881" lat="46.598144955933094">
        <ele>1384.4000244140625</ele>
        <time>2011-09-23T15:36:56.000Z</time>
      </trkpt>
      <trkpt lon="7.1735879592597485" lat="46.59817596897483">
        <ele>1383.199951171875</ele>
        <time>2011-09-23T15:36:59.000Z</time>
      </trkpt>
      <trkpt lon="7.17341898009181" lat="46.598210921511054">
        <ele>1382.199951171875</ele>
        <time>2011-09-23T15:37:04.000Z</time>
      </trkpt>
      <trkpt lon="7.1731729712337255" lat="46.59821997396648">
        <ele>1384.0</ele>
        <time>2011-09-23T15:37:10.000Z</time>
      </trkpt>
      <trkpt lon="7.173014972358942" lat="46.59831091761589">
        <ele>1385.5999755859375</ele>
        <time>2011-09-23T15:37:16.000Z</time>
      </trkpt>
      <trkpt lon="7.172935931012034" lat="46.59841795451939">
        <ele>1386.800048828125</ele>
        <time>2011-09-23T15:37:21.000Z</time>
      </trkpt>
      <trkpt lon="7.172728981822729" lat="46.598491966724396">
        <ele>1387.5999755859375</ele>
        <time>2011-09-23T15:37:27.000Z</time>
      </trkpt>
      <trkpt lon="7.172536952421069" lat="46.59865197725594">
        <ele>1387.800048828125</ele>
        <time>2011-09-23T15:37:35.000Z</time>
      </trkpt>
      <trkpt lon="7.172493953257799" lat="46.59869497641921">
        <ele>1388.0</ele>
        <time>2011-09-23T15:37:39.000Z</time>
      </trkpt>
      <trkpt lon="7.172493953257799" lat="46.59869497641921">
        <ele>1387.800048828125</ele>
        <time>2011-09-23T15:37:53.000Z</time>
      </trkpt>
      <trkpt lon="7.172493953257799" lat="46.59869497641921">
        <ele>1387.5999755859375</ele>
        <time>2011-09-23T15:37:54.000Z</time>
      </trkpt>
      <trkpt lon="7.172403931617737" lat="46.598750967532396">
        <ele>1386.800048828125</ele>
        <time>2011-09-23T15:38:04.000Z</time>
      </trkpt>
      <trkpt lon="7.172314999625087" lat="46.59882196225226">
        <ele>1384.5999755859375</ele>
        <time>2011-09-23T15:38:08.000Z</time>
      </trkpt>
      <trkpt lon="7.172314999625087" lat="46.59882196225226">
        <ele>1384.0</ele>
        <time>2011-09-23T15:38:10.000Z</time>
      </trkpt>
      <trkpt lon="7.17228096909821" lat="46.598878959193826">
        <ele>1383.0</ele>
        <time>2011-09-23T15:38:24.000Z</time>
      </trkpt>
      <trkpt lon="7.172278957441449" lat="46.598962945863605">
        <ele>1382.0</ele>
        <time>2011-09-23T15:38:27.000Z</time>
      </trkpt>
      <trkpt lon="7.172334948554635" lat="46.59914994612336">
        <ele>1378.800048828125</ele>
        <time>2011-09-23T15:38:33.000Z</time>
      </trkpt>
      <trkpt lon="7.172367973253131" lat="46.59922798164189">
        <ele>1377.4000244140625</ele>
        <time>2011-09-23T15:38:36.000Z</time>
      </trkpt>
      <trkpt lon="7.172392951324582" lat="46.599283972755075">
        <ele>1375.800048828125</ele>
        <time>2011-09-23T15:38:40.000Z</time>
      </trkpt>
      <trkpt lon="7.172392951324582" lat="46.599283972755075">
        <ele>1374.5999755859375</ele>
        <time>2011-09-23T15:38:52.000Z</time>
      </trkpt>
      <trkpt lon="7.172392951324582" lat="46.599283972755075">
        <ele>1374.4000244140625</ele>
        <time>2011-09-23T15:38:57.000Z</time>
      </trkpt>
      <trkpt lon="7.172392951324582" lat="46.599283972755075">
        <ele>1374.800048828125</ele>
        <time>2011-09-23T15:39:15.000Z</time>
      </trkpt>
      <trkpt lon="7.172448942437768" lat="46.599395954981446">
        <ele>1373.0</ele>
        <time>2011-09-23T15:39:24.000Z</time>
      </trkpt>
      <trkpt lon="7.172522954642773" lat="46.599522940814495">
        <ele>1369.199951171875</ele>
        <time>2011-09-23T15:39:30.000Z</time>
      </trkpt>
      <trkpt lon="7.172569977119565" lat="46.59966694191098">
        <ele>1363.5999755859375</ele>
        <time>2011-09-23T15:39:38.000Z</time>
      </trkpt>
      <trkpt lon="7.172536952421069" lat="46.59981094300747">
        <ele>1357.800048828125</ele>
        <time>2011-09-23T15:39:44.000Z</time>
      </trkpt>
      <trkpt lon="7.17251792550087" lat="46.599842961877584">
        <ele>1356.4000244140625</ele>
        <time>2011-09-23T15:39:45.000Z</time>
      </trkpt>
      <trkpt lon="7.172524966299534" lat="46.600119983777404">
        <ele>1350.800048828125</ele>
        <time>2011-09-23T15:39:51.000Z</time>
      </trkpt>
      <trkpt lon="7.172510968521237" lat="46.600205982103944">
        <ele>1349.0</ele>
        <time>2011-09-23T15:39:53.000Z</time>
      </trkpt>
      <trkpt lon="7.172373924404383" lat="46.60049792379141">
        <ele>1344.800048828125</ele>
        <time>2011-09-23T15:40:00.000Z</time>
      </trkpt>
      <trkpt lon="7.1722909435629845" lat="46.60067494958639">
        <ele>1342.800048828125</ele>
        <time>2011-09-23T15:40:05.000Z</time>
      </trkpt>
      <trkpt lon="7.172266971319914" lat="46.60071996040642">
        <ele>1342.4000244140625</ele>
        <time>2011-09-23T15:40:09.000Z</time>
      </trkpt>
      <trkpt lon="7.172155994921923" lat="46.60067293792963">
        <ele>1342.199951171875</ele>
        <time>2011-09-23T15:40:17.000Z</time>
      </trkpt>
      <trkpt lon="7.171897999942303" lat="46.60054595209658">
        <ele>1338.800048828125</ele>
        <time>2011-09-23T15:40:26.000Z</time>
      </trkpt>
      <trkpt lon="7.171649979427457" lat="46.60043698735535">
        <ele>1333.800048828125</ele>
        <time>2011-09-23T15:40:34.000Z</time>
      </trkpt>
      <trkpt lon="7.171590970829129" lat="46.600335985422134">
        <ele>1332.199951171875</ele>
        <time>2011-09-23T15:40:39.000Z</time>
      </trkpt>
      <trkpt lon="7.171574961394072" lat="46.60031192936003">
        <ele>1331.800048828125</ele>
        <time>2011-09-23T15:40:40.000Z</time>
      </trkpt>
      <trkpt lon="7.17148695141077" lat="46.600272953510284">
        <ele>1329.4000244140625</ele>
        <time>2011-09-23T15:40:44.000Z</time>
      </trkpt>
      <trkpt lon="7.1712089236825705" lat="46.600340930745006">
        <ele>1324.4000244140625</ele>
        <time>2011-09-23T15:40:50.000Z</time>
      </trkpt>
      <trkpt lon="7.171107921749353" lat="46.60036699846387">
        <ele>1323.199951171875</ele>
        <time>2011-09-23T15:40:52.000Z</time>
      </trkpt>
      <trkpt lon="7.170963920652866" lat="46.60034696571529">
        <ele>1321.0</ele>
        <time>2011-09-23T15:40:56.000Z</time>
      </trkpt>
      <trkpt lon="7.170981941744685" lat="46.600274965167046">
        <ele>1318.800048828125</ele>
        <time>2011-09-23T15:41:01.000Z</time>
      </trkpt>
      <trkpt lon="7.170981941744685" lat="46.60023892298341">
        <ele>1318.0</ele>
        <time>2011-09-23T15:41:03.000Z</time>
      </trkpt>
      <trkpt lon="7.170981941744685" lat="46.60017597489059">
        <ele>1316.0</ele>
        <time>2011-09-23T15:41:07.000Z</time>
      </trkpt>
      <trkpt lon="7.17090399004519" lat="46.60014194436371">
        <ele>1313.800048828125</ele>
        <time>2011-09-23T15:41:11.000Z</time>
      </trkpt>
      <trkpt lon="7.170681953430176" lat="46.60012794658542">
        <ele>1309.199951171875</ele>
        <time>2011-09-23T15:41:18.000Z</time>
      </trkpt>
      <trkpt lon="7.170628979802132" lat="46.600121995434165">
        <ele>1307.800048828125</ele>
        <time>2011-09-23T15:41:21.000Z</time>
      </trkpt>
      <trkpt lon="7.170590925961733" lat="46.60011093132198">
        <ele>1307.0</ele>
        <time>2011-09-23T15:41:23.000Z</time>
      </trkpt>
      <trkpt lon="7.170518925413489" lat="46.600083941593766">
        <ele>1305.4000244140625</ele>
        <time>2011-09-23T15:41:29.000Z</time>
      </trkpt>
      <trkpt lon="7.170518925413489" lat="46.600083941593766">
        <ele>1304.5999755859375</ele>
        <time>2011-09-23T15:42:01.000Z</time>
      </trkpt>
      <trkpt lon="7.170375930145383" lat="46.60003297962248">
        <ele>1303.4000244140625</ele>
        <time>2011-09-23T15:42:07.000Z</time>
      </trkpt>
      <trkpt lon="7.170179961249232" lat="46.599954944103956">
        <ele>1298.4000244140625</ele>
        <time>2011-09-23T15:42:15.000Z</time>
      </trkpt>
      <trkpt lon="7.1700959745794535" lat="46.59987799823284">
        <ele>1295.0</ele>
        <time>2011-09-23T15:42:21.000Z</time>
      </trkpt>
      <trkpt lon="7.169936969876289" lat="46.599739948287606">
        <ele>1289.0</ele>
        <time>2011-09-23T15:42:29.000Z</time>
      </trkpt>
      <trkpt lon="7.169767990708351" lat="46.599692925810814">
        <ele>1284.800048828125</ele>
        <time>2011-09-23T15:42:35.000Z</time>
      </trkpt>
      <trkpt lon="7.169615942984819" lat="46.599670965224504">
        <ele>1281.0</ele>
        <time>2011-09-23T15:42:41.000Z</time>
      </trkpt>
      <trkpt lon="7.169601945206523" lat="46.59965596161783">
        <ele>1280.800048828125</ele>
        <time>2011-09-23T15:42:42.000Z</time>
      </trkpt>
      <trkpt lon="7.169574955478311" lat="46.599590918049216">
        <ele>1278.199951171875</ele>
        <time>2011-09-23T15:42:48.000Z</time>
      </trkpt>
      <trkpt lon="7.169558946043253" lat="46.599540961906314">
        <ele>1276.4000244140625</ele>
        <time>2011-09-23T15:42:52.000Z</time>
      </trkpt>
      <trkpt lon="7.169517958536744" lat="46.59947197884321">
        <ele>1274.0</ele>
        <time>2011-09-23T15:42:58.000Z</time>
      </trkpt>
      <trkpt lon="7.169465990737081" lat="46.599435936659575">
        <ele>1271.800048828125</ele>
        <time>2011-09-23T15:43:04.000Z</time>
      </trkpt>
      <trkpt lon="7.1693449560552835" lat="46.599457981064916">
        <ele>1269.4000244140625</ele>
        <time>2011-09-23T15:43:09.000Z</time>
      </trkpt>
      <trkpt lon="7.169317966327071" lat="46.59946896135807">
        <ele>1269.199951171875</ele>
        <time>2011-09-23T15:43:10.000Z</time>
      </trkpt>
      <trkpt lon="7.16929298825562" lat="46.599478935822845">
        <ele>1268.5999755859375</ele>
        <time>2011-09-23T15:43:11.000Z</time>
      </trkpt>
      <trkpt lon="7.1692089177668095" lat="46.59944197162986">
        <ele>1266.800048828125</ele>
        <time>2011-09-23T15:43:16.000Z</time>
      </trkpt>
      <trkpt lon="7.1691579557955265" lat="46.59936795942485">
        <ele>1264.199951171875</ele>
        <time>2011-09-23T15:43:22.000Z</time>
      </trkpt>
      <trkpt lon="7.168978918343782" lat="46.59935396164656">
        <ele>1260.5999755859375</ele>
        <time>2011-09-23T15:43:28.000Z</time>
      </trkpt>
      <trkpt lon="7.168859979137778" lat="46.599306939169765">
        <ele>1258.0</ele>
        <time>2011-09-23T15:43:33.000Z</time>
      </trkpt>
      <trkpt lon="7.168829971924424" lat="46.599246924743056">
        <ele>1256.0</ele>
        <time>2011-09-23T15:43:37.000Z</time>
      </trkpt>
      <trkpt lon="7.168889986351132" lat="46.599092949181795">
        <ele>1254.0</ele>
        <time>2011-09-23T15:43:43.000Z</time>
      </trkpt>
      <trkpt lon="7.168806921690702" lat="46.598985996097326">
        <ele>1252.4000244140625</ele>
        <time>2011-09-23T15:43:48.000Z</time>
      </trkpt>
      <trkpt lon="7.168740956112742" lat="46.598944924771786">
        <ele>1250.4000244140625</ele>
        <time>2011-09-23T15:43:52.000Z</time>
      </trkpt>
      <trkpt lon="7.168566947802901" lat="46.59884098917246">
        <ele>1246.0</ele>
        <time>2011-09-23T15:44:01.000Z</time>
      </trkpt>
      <trkpt lon="7.168385982513428" lat="46.598730934783816">
        <ele>1240.4000244140625</ele>
        <time>2011-09-23T15:44:10.000Z</time>
      </trkpt>
      <trkpt lon="7.168169980868697" lat="46.598576959222555">
        <ele>1234.4000244140625</ele>
        <time>2011-09-23T15:44:17.000Z</time>
      </trkpt>
      <trkpt lon="7.167994966730475" lat="46.59840194508433">
        <ele>1228.4000244140625</ele>
        <time>2011-09-23T15:44:25.000Z</time>
      </trkpt>
      <trkpt lon="7.1679239720106125" lat="46.59836598671973">
        <ele>1226.0</ele>
        <time>2011-09-23T15:44:28.000Z</time>
      </trkpt>
      <trkpt lon="7.1678809728473425" lat="46.59839398227632">
        <ele>1224.0</ele>
        <time>2011-09-23T15:44:33.000Z</time>
      </trkpt>
      <trkpt lon="7.167793968692422" lat="46.59857293590903">
        <ele>1219.800048828125</ele>
        <time>2011-09-23T15:44:40.000Z</time>
      </trkpt>
      <trkpt lon="7.167604956775904" lat="46.59866698086262">
        <ele>1217.0</ele>
        <time>2011-09-23T15:44:46.000Z</time>
      </trkpt>
      <trkpt lon="7.167565980926156" lat="46.59867192618549">
        <ele>1216.800048828125</ele>
        <time>2011-09-23T15:44:47.000Z</time>
      </trkpt>
      <trkpt lon="7.167417956516147" lat="46.598667986691">
        <ele>1214.800048828125</ele>
        <time>2011-09-23T15:44:52.000Z</time>
      </trkpt>
      <trkpt lon="7.167300945147872" lat="46.59862792119384">
        <ele>1212.199951171875</ele>
        <time>2011-09-23T15:44:57.000Z</time>
      </trkpt>
      <trkpt lon="7.1672209817916155" lat="46.598599925637245">
        <ele>1209.800048828125</ele>
        <time>2011-09-23T15:45:01.000Z</time>
      </trkpt>
      <trkpt lon="7.167116962373257" lat="46.59856195561588">
        <ele>1207.199951171875</ele>
        <time>2011-09-23T15:45:06.000Z</time>
      </trkpt>
      <trkpt lon="7.167072957381606" lat="46.5985469520092">
        <ele>1204.5999755859375</ele>
        <time>2011-09-23T15:45:11.000Z</time>
      </trkpt>
      <trkpt lon="7.166981929913163" lat="46.59852197393775">
        <ele>1203.0</ele>
        <time>2011-09-23T15:45:16.000Z</time>
      </trkpt>
      <trkpt lon="7.166964998468757" lat="46.59851795062423">
        <ele>1201.5999755859375</ele>
        <time>2011-09-23T15:45:20.000Z</time>
      </trkpt>
      <trkpt lon="7.166903978213668" lat="46.59850596450269">
        <ele>1201.0</ele>
        <time>2011-09-23T15:45:28.000Z</time>
      </trkpt>
      <trkpt lon="7.166789984330535" lat="46.59848199225962">
        <ele>1199.0</ele>
        <time>2011-09-23T15:45:34.000Z</time>
      </trkpt>
      <trkpt lon="7.166670961305499" lat="46.59845693036914">
        <ele>1196.4000244140625</ele>
        <time>2011-09-23T15:45:40.000Z</time>
      </trkpt>
      <trkpt lon="7.16643794439733" lat="46.598408985883">
        <ele>1191.199951171875</ele>
        <time>2011-09-23T15:45:47.000Z</time>
      </trkpt>
      <trkpt lon="7.166236946359277" lat="46.59835391677916">
        <ele>1186.5999755859375</ele>
        <time>2011-09-23T15:45:54.000Z</time>
      </trkpt>
      <trkpt lon="7.166076935827732" lat="46.59830295480788">
        <ele>1183.800048828125</ele>
        <time>2011-09-23T15:46:00.000Z</time>
      </trkpt>
      <trkpt lon="7.166057992726564" lat="46.598293986171484">
        <ele>1183.5999755859375</ele>
        <time>2011-09-23T15:46:01.000Z</time>
      </trkpt>
      <trkpt lon="7.166057992726564" lat="46.598293986171484">
        <ele>1182.800048828125</ele>
        <time>2011-09-23T15:46:02.000Z</time>
      </trkpt>
      <trkpt lon="7.166057992726564" lat="46.598293986171484">
        <ele>1182.199951171875</ele>
        <time>2011-09-23T15:46:08.000Z</time>
      </trkpt>
      <trkpt lon="7.16596495360136" lat="46.598252998664975">
        <ele>1181.0</ele>
        <time>2011-09-23T15:46:16.000Z</time>
      </trkpt>
      <trkpt lon="7.165870992466807" lat="46.59821695648134">
        <ele>1178.800048828125</ele>
        <time>2011-09-23T15:46:20.000Z</time>
      </trkpt>
      <trkpt lon="7.16564392670989" lat="46.59814093261957">
        <ele>1173.800048828125</ele>
        <time>2011-09-23T15:46:28.000Z</time>
      </trkpt>
      <trkpt lon="7.1656229719519615" lat="46.59813397563994">
        <ele>1173.5999755859375</ele>
        <time>2011-09-23T15:46:29.000Z</time>
      </trkpt>
      <trkpt lon="7.165500931441784" lat="46.59804697148502">
        <ele>1170.199951171875</ele>
        <time>2011-09-23T15:46:35.000Z</time>
      </trkpt>
      <trkpt lon="7.1655019372701645" lat="46.59804697148502">
        <ele>1169.800048828125</ele>
        <time>2011-09-23T15:46:36.000Z</time>
      </trkpt>
      <trkpt lon="7.165635963901877" lat="46.59802995622158">
        <ele>1169.4000244140625</ele>
        <time>2011-09-23T15:46:49.000Z</time>
      </trkpt>
      <trkpt lon="7.165743922814727" lat="46.597975976765156">
        <ele>1167.5999755859375</ele>
        <time>2011-09-23T15:46:52.000Z</time>
      </trkpt>
      <trkpt lon="7.165770996361971" lat="46.59789199009538">
        <ele>1165.4000244140625</ele>
        <time>2011-09-23T15:46:56.000Z</time>
      </trkpt>
      <trkpt lon="7.165612997487187" lat="46.597741954028606">
        <ele>1162.4000244140625</ele>
        <time>2011-09-23T15:47:03.000Z</time>
      </trkpt>
      <trkpt lon="7.165472935885191" lat="46.59763692878187">
        <ele>1158.0</ele>
        <time>2011-09-23T15:47:10.000Z</time>
      </trkpt>
      <trkpt lon="7.16529599390924" lat="46.59755595959723">
        <ele>1154.0</ele>
        <time>2011-09-23T15:47:17.000Z</time>
      </trkpt>
      <trkpt lon="7.16525299474597" lat="46.59753492102027">
        <ele>1152.199951171875</ele>
        <time>2011-09-23T15:47:22.000Z</time>
      </trkpt>
      <trkpt lon="7.16525299474597" lat="46.59753492102027">
        <ele>1151.4000244140625</ele>
        <time>2011-09-23T15:47:34.000Z</time>
      </trkpt>
      <trkpt lon="7.165107987821102" lat="46.59747096709907">
        <ele>1149.800048828125</ele>
        <time>2011-09-23T15:47:51.000Z</time>
      </trkpt>
      <trkpt lon="7.164921993389726" lat="46.597395949065685">
        <ele>1146.800048828125</ele>
        <time>2011-09-23T15:47:57.000Z</time>
      </trkpt>
      <trkpt lon="7.16478293761611" lat="46.59734993241727">
        <ele>1144.199951171875</ele>
        <time>2011-09-23T15:48:02.000Z</time>
      </trkpt>
      <trkpt lon="7.164691993966699" lat="46.59732394851744">
        <ele>1142.199951171875</ele>
        <time>2011-09-23T15:48:06.000Z</time>
      </trkpt>
      <trkpt lon="7.164521925151348" lat="46.59725798293948">
        <ele>1138.5999755859375</ele>
        <time>2011-09-23T15:48:12.000Z</time>
      </trkpt>
      <trkpt lon="7.164326962083578" lat="46.59710593521595">
        <ele>1133.199951171875</ele>
        <time>2011-09-23T15:48:20.000Z</time>
      </trkpt>
      <trkpt lon="7.1641109604388475" lat="46.59687593579292">
        <ele>1128.199951171875</ele>
        <time>2011-09-23T15:48:28.000Z</time>
      </trkpt>
      <trkpt lon="7.163964947685599" lat="46.59674199298024">
        <ele>1124.5999755859375</ele>
        <time>2011-09-23T15:48:33.000Z</time>
      </trkpt>
      <trkpt lon="7.163792951032519" lat="46.59654191695154">
        <ele>1121.4000244140625</ele>
        <time>2011-09-23T15:48:37.000Z</time>
      </trkpt>
      <trkpt lon="7.163547948002815" lat="46.59624192863703">
        <ele>1118.800048828125</ele>
        <time>2011-09-23T15:48:42.000Z</time>
      </trkpt>
      <trkpt lon="7.163434959948063" lat="46.59605291672051">
        <ele>1117.199951171875</ele>
        <time>2011-09-23T15:48:45.000Z</time>
      </trkpt>
      <trkpt lon="7.163369916379452" lat="46.59592593088746">
        <ele>1116.5999755859375</ele>
        <time>2011-09-23T15:48:47.000Z</time>
      </trkpt>
      <trkpt lon="7.16334393247962" lat="46.59574999473989">
        <ele>1116.199951171875</ele>
        <time>2011-09-23T15:48:50.000Z</time>
      </trkpt>
      <trkpt lon="7.163210995495319" lat="46.59544799476862">
        <ele>1114.5999755859375</ele>
        <time>2011-09-23T15:48:56.000Z</time>
      </trkpt>
      <trkpt lon="7.163012931123376" lat="46.595180947333574">
        <ele>1111.0</ele>
        <time>2011-09-23T15:49:02.000Z</time>
      </trkpt>
      <trkpt lon="7.162911929190159" lat="46.59505798481405">
        <ele>1107.199951171875</ele>
        <time>2011-09-23T15:49:07.000Z</time>
      </trkpt>
      <trkpt lon="7.162892986088991" lat="46.594901997596025">
        <ele>1104.0</ele>
        <time>2011-09-23T15:49:12.000Z</time>
      </trkpt>
      <trkpt lon="7.162840934470296" lat="46.59478096291423">
        <ele>1101.5999755859375</ele>
        <time>2011-09-23T15:49:16.000Z</time>
      </trkpt>
      <trkpt lon="7.16276197694242" lat="46.59470493905246">
        <ele>1099.199951171875</ele>
        <time>2011-09-23T15:49:21.000Z</time>
      </trkpt>
      <trkpt lon="7.162750996649265" lat="46.59466294571757">
        <ele>1097.4000244140625</ele>
        <time>2011-09-23T15:49:25.000Z</time>
      </trkpt>
      <trkpt lon="7.162743955850601" lat="46.59463595598936">
        <ele>1096.4000244140625</ele>
        <time>2011-09-23T15:49:34.000Z</time>
      </trkpt>
      <trkpt lon="7.162731969729066" lat="46.59459195099771">
        <ele>1095.199951171875</ele>
        <time>2011-09-23T15:49:39.000Z</time>
      </trkpt>
      <trkpt lon="7.162696933373809" lat="46.59445893019438">
        <ele>1090.5999755859375</ele>
        <time>2011-09-23T15:49:47.000Z</time>
      </trkpt>
      <trkpt lon="7.162659969180822" lat="46.59431794658303">
        <ele>1085.800048828125</ele>
        <time>2011-09-23T15:49:55.000Z</time>
      </trkpt>
      <trkpt lon="7.162619987502694" lat="46.59417595714331">
        <ele>1081.800048828125</ele>
        <time>2011-09-23T15:50:02.000Z</time>
      </trkpt>
      <trkpt lon="7.162547986954451" lat="46.594088952988386">
        <ele>1078.800048828125</ele>
        <time>2011-09-23T15:50:07.000Z</time>
      </trkpt>
      <trkpt lon="7.162447990849614" lat="46.59396992996335">
        <ele>1075.5999755859375</ele>
        <time>2011-09-23T15:50:13.000Z</time>
      </trkpt>
      <trkpt lon="7.162425946444273" lat="46.593850990757346">
        <ele>1072.4000244140625</ele>
        <time>2011-09-23T15:50:18.000Z</time>
      </trkpt>
      <trkpt lon="7.16242091730237" lat="46.59378091804683">
        <ele>1070.800048828125</ele>
        <time>2011-09-23T15:50:21.000Z</time>
      </trkpt>
      <trkpt lon="7.162409937009215" lat="46.59356592223048">
        <ele>1065.5999755859375</ele>
        <time>2011-09-23T15:50:30.000Z</time>
      </trkpt>
      <trkpt lon="7.162398956716061" lat="46.59336593002081">
        <ele>1060.199951171875</ele>
        <time>2011-09-23T15:50:38.000Z</time>
      </trkpt>
      <trkpt lon="7.162398956716061" lat="46.593313962221146">
        <ele>1059.199951171875</ele>
        <time>2011-09-23T15:50:40.000Z</time>
      </trkpt>
      <trkpt lon="7.162390993908048" lat="46.59317599609494">
        <ele>1054.800048828125</ele>
        <time>2011-09-23T15:50:47.000Z</time>
      </trkpt>
      <trkpt lon="7.16231195256114" lat="46.59302495419979">
        <ele>1050.0</ele>
        <time>2011-09-23T15:50:55.000Z</time>
      </trkpt>
      <trkpt lon="7.162256967276335" lat="46.59288799390197">
        <ele>1045.199951171875</ele>
        <time>2011-09-23T15:51:02.000Z</time>
      </trkpt>
      <trkpt lon="7.1622019819915295" lat="46.59274499863386">
        <ele>1040.199951171875</ele>
        <time>2011-09-23T15:51:10.000Z</time>
      </trkpt>
      <trkpt lon="7.162141967564821" lat="46.592562943696976">
        <ele>1033.800048828125</ele>
        <time>2011-09-23T15:51:20.000Z</time>
      </trkpt>
      <trkpt lon="7.162092933431268" lat="46.59239396452904">
        <ele>1029.199951171875</ele>
        <time>2011-09-23T15:51:27.000Z</time>
      </trkpt>
      <trkpt lon="7.1620529517531395" lat="46.59224493429065">
        <ele>1024.800048828125</ele>
        <time>2011-09-23T15:51:32.000Z</time>
      </trkpt>
      <trkpt lon="7.162021938711405" lat="46.592110991477966">
        <ele>1021.5999755859375</ele>
        <time>2011-09-23T15:51:36.000Z</time>
      </trkpt>
      <trkpt lon="7.162036942318082" lat="46.59195399843156">
        <ele>1019.2000122070312</ele>
        <time>2011-09-23T15:51:40.000Z</time>
      </trkpt>
      <trkpt lon="7.162055969238281" lat="46.59174797125161">
        <ele>1015.5999755859375</ele>
        <time>2011-09-23T15:51:45.000Z</time>
      </trkpt>
      <trkpt lon="7.1620299853384495" lat="46.591571951285005">
        <ele>1011.2000122070312</ele>
        <time>2011-09-23T15:51:50.000Z</time>
      </trkpt>
      <trkpt lon="7.161778947338462" lat="46.59140699543059">
        <ele>1010.4000244140625</ele>
        <time>2011-09-23T15:51:52.000Z</time>
      </trkpt>
      <trkpt lon="7.161790933459997" lat="46.59139794297516">
        <ele>1010.0</ele>
        <time>2011-09-23T15:51:53.000Z</time>
      </trkpt>
      <trkpt lon="7.161926971748471" lat="46.59155895933509">
        <ele>1007.2000122070312</ele>
        <time>2011-09-23T15:51:58.000Z</time>
      </trkpt>
      <trkpt lon="7.161874920129776" lat="46.59161997959018">
        <ele>1004.2000122070312</ele>
        <time>2011-09-23T15:52:03.000Z</time>
      </trkpt>
      <trkpt lon="7.1617599204182625" lat="46.591746965423226">
        <ele>1000.2000122070312</ele>
        <time>2011-09-23T15:52:08.000Z</time>
      </trkpt>
      <trkpt lon="7.161657996475697" lat="46.591849979013205">
        <ele>997.2000122070312</ele>
        <time>2011-09-23T15:52:12.000Z</time>
      </trkpt>
      <trkpt lon="7.161500919610262" lat="46.59200697205961">
        <ele>992.4000244140625</ele>
        <time>2011-09-23T15:52:18.000Z</time>
      </trkpt>
      <trkpt lon="7.161332946270704" lat="46.59209598787129">
        <ele>990.4000244140625</ele>
        <time>2011-09-23T15:52:21.000Z</time>
      </trkpt>
      <trkpt lon="7.161332946270704" lat="46.59209598787129">
        <ele>989.7999877929688</ele>
        <time>2011-09-23T15:52:22.000Z</time>
      </trkpt>
      <trkpt lon="7.161256922408938" lat="46.59210495650768">
        <ele>988.5999755859375</ele>
        <time>2011-09-23T15:52:58.000Z</time>
      </trkpt>
      <trkpt lon="7.161125997081399" lat="46.59226697869599">
        <ele>987.2000122070312</ele>
        <time>2011-09-23T15:53:03.000Z</time>
      </trkpt>
      <trkpt lon="7.161089954897761" lat="46.592432940378785">
        <ele>986.7999877929688</ele>
        <time>2011-09-23T15:53:07.000Z</time>
      </trkpt>
      <trkpt lon="7.160984929651022" lat="46.592731922864914">
        <ele>985.7999877929688</ele>
        <time>2011-09-23T15:53:12.000Z</time>
      </trkpt>
      <trkpt lon="7.160846963524818" lat="46.592924958094954">
        <ele>984.5999755859375</ele>
        <time>2011-09-23T15:53:15.000Z</time>
      </trkpt>
      <trkpt lon="7.160754930227995" lat="46.59307197667658">
        <ele>983.7999877929688</ele>
        <time>2011-09-23T15:53:17.000Z</time>
      </trkpt>
      <trkpt lon="7.160468939691782" lat="46.59334195777774">
        <ele>982.0</ele>
        <time>2011-09-23T15:53:21.000Z</time>
      </trkpt>
      <trkpt lon="7.160067949444056" lat="46.59370397217572">
        <ele>979.4000244140625</ele>
        <time>2011-09-23T15:53:26.000Z</time>
      </trkpt>
      <trkpt lon="7.15975496917963" lat="46.59400999546051">
        <ele>976.5999755859375</ele>
        <time>2011-09-23T15:53:30.000Z</time>
      </trkpt>
      <trkpt lon="7.159594958648086" lat="46.59416497685015">
        <ele>974.7999877929688</ele>
        <time>2011-09-23T15:53:34.000Z</time>
      </trkpt>
      <trkpt lon="7.159448945894837" lat="46.59420697018504">
        <ele>974.0</ele>
        <time>2011-09-23T15:53:39.000Z</time>
      </trkpt>
      <trkpt lon="7.159340986981988" lat="46.59429598599672">
        <ele>973.5999755859375</ele>
        <time>2011-09-23T15:53:42.000Z</time>
      </trkpt>
      <trkpt lon="7.159259933978319" lat="46.59437594935298">
        <ele>973.0</ele>
        <time>2011-09-23T15:53:44.000Z</time>
      </trkpt>
      <trkpt lon="7.15917594730854" lat="46.59448097459972">
        <ele>972.2000122070312</ele>
        <time>2011-09-23T15:53:46.000Z</time>
      </trkpt>
      <trkpt lon="7.15904694981873" lat="46.594667974859476">
        <ele>971.0</ele>
        <time>2011-09-23T15:53:49.000Z</time>
      </trkpt>
      <trkpt lon="7.158945947885513" lat="46.594818932935596">
        <ele>970.0</ele>
        <time>2011-09-23T15:53:51.000Z</time>
      </trkpt>
      <trkpt lon="7.158727934584022" lat="46.59506293013692">
        <ele>968.5999755859375</ele>
        <time>2011-09-23T15:53:54.000Z</time>
      </trkpt>
      <trkpt lon="7.158501958474517" lat="46.59514398314059">
        <ele>968.0</ele>
        <time>2011-09-23T15:53:56.000Z</time>
      </trkpt>
      <trkpt lon="7.158089987933636" lat="46.595265939831734">
        <ele>967.0</ele>
        <time>2011-09-23T15:54:00.000Z</time>
      </trkpt>
      <trkpt lon="7.157917991280556" lat="46.59533995203674">
        <ele>965.7999877929688</ele>
        <time>2011-09-23T15:54:02.000Z</time>
      </trkpt>
      <trkpt lon="7.15764993801713" lat="46.595501974225044">
        <ele>963.4000244140625</ele>
        <time>2011-09-23T15:54:06.000Z</time>
      </trkpt>
      <trkpt lon="7.157314997166395" lat="46.595784947276115">
        <ele>959.2000122070312</ele>
        <time>2011-09-23T15:54:11.000Z</time>
      </trkpt>
      <trkpt lon="7.157144928351045" lat="46.595937917008996">
        <ele>956.4000244140625</ele>
        <time>2011-09-23T15:54:14.000Z</time>
      </trkpt>
      <trkpt lon="7.1570059563964605" lat="46.59612198360264">
        <ele>954.2000122070312</ele>
        <time>2011-09-23T15:54:17.000Z</time>
      </trkpt>
      <trkpt lon="7.15694191865623" lat="46.59630998969078">
        <ele>952.0</ele>
        <time>2011-09-23T15:54:19.000Z</time>
      </trkpt>
      <trkpt lon="7.156750978901982" lat="46.59672397188842">
        <ele>946.5999755859375</ele>
        <time>2011-09-23T15:54:23.000Z</time>
      </trkpt>
      <trkpt lon="7.156655928120017" lat="46.59681097604334">
        <ele>945.0</ele>
        <time>2011-09-23T15:54:24.000Z</time>
      </trkpt>
      <trkpt lon="7.1563309617340565" lat="46.597373988479376">
        <ele>937.5999755859375</ele>
        <time>2011-09-23T15:54:29.000Z</time>
      </trkpt>
      <trkpt lon="7.156215962022543" lat="46.59770691767335">
        <ele>934.4000244140625</ele>
        <time>2011-09-23T15:54:32.000Z</time>
      </trkpt>
      <trkpt lon="7.156245969235897" lat="46.598085947334766">
        <ele>931.0</ele>
        <time>2011-09-23T15:54:36.000Z</time>
      </trkpt>
      <trkpt lon="7.156328950077295" lat="46.59815199673176">
        <ele>930.2000122070312</ele>
        <time>2011-09-23T15:54:37.000Z</time>
      </trkpt>
      <trkpt lon="7.156607983633876" lat="46.598408985883">
        <ele>927.7999877929688</ele>
        <time>2011-09-23T15:54:41.000Z</time>
      </trkpt>
      <trkpt lon="7.156573953106999" lat="46.598639991134405">
        <ele>925.7999877929688</ele>
        <time>2011-09-23T15:54:44.000Z</time>
      </trkpt>
      <trkpt lon="7.156301960349083" lat="46.59885196946561">
        <ele>923.7999877929688</ele>
        <time>2011-09-23T15:54:47.000Z</time>
      </trkpt>
      <trkpt lon="7.156200958415866" lat="46.59890594892204">
        <ele>922.7999877929688</ele>
        <time>2011-09-23T15:54:48.000Z</time>
      </trkpt>
      <trkpt lon="7.156027955934405" lat="46.59900192171335">
        <ele>921.4000244140625</ele>
        <time>2011-09-23T15:54:50.000Z</time>
      </trkpt>
      <trkpt lon="7.1559239365160465" lat="46.599239967763424">
        <ele>919.4000244140625</ele>
        <time>2011-09-23T15:54:54.000Z</time>
      </trkpt>
      <trkpt lon="7.155939945951104" lat="46.59931397996843">
        <ele>918.7999877929688</ele>
        <time>2011-09-23T15:54:55.000Z</time>
      </trkpt>
      <trkpt lon="7.1559729706496" lat="46.599455969408154">
        <ele>918.2000122070312</ele>
        <time>2011-09-23T15:54:57.000Z</time>
      </trkpt>
      <trkpt lon="7.156022926792502" lat="46.5997179877013">
        <ele>917.2000122070312</ele>
        <time>2011-09-23T15:55:01.000Z</time>
      </trkpt>
      <trkpt lon="7.155868951231241" lat="46.59991295076907">
        <ele>915.7999877929688</ele>
        <time>2011-09-23T15:55:04.000Z</time>
      </trkpt>
      <trkpt lon="7.155583966523409" lat="46.6002029646188">
        <ele>913.5999755859375</ele>
        <time>2011-09-23T15:55:08.000Z</time>
      </trkpt>
      <trkpt lon="7.155523952096701" lat="46.60028695128858">
        <ele>912.7999877929688</ele>
        <time>2011-09-23T15:55:09.000Z</time>
      </trkpt>
      <trkpt lon="7.155253970995545" lat="46.60065298900008">
        <ele>909.0</ele>
        <time>2011-09-23T15:55:13.000Z</time>
      </trkpt>
      <trkpt lon="7.155117932707071" lat="46.60081995651126">
        <ele>906.4000244140625</ele>
        <time>2011-09-23T15:55:15.000Z</time>
      </trkpt>
      <trkpt lon="7.154953982681036" lat="46.601128997281194">
        <ele>903.4000244140625</ele>
        <time>2011-09-23T15:55:20.000Z</time>
      </trkpt>
      <trkpt lon="7.154523991048336" lat="46.60140794701874">
        <ele>900.4000244140625</ele>
        <time>2011-09-23T15:55:24.000Z</time>
      </trkpt>
      <trkpt lon="7.1544169541448355" lat="46.60149394534528">
        <ele>898.0</ele>
        <time>2011-09-23T15:55:27.000Z</time>
      </trkpt>
      <trkpt lon="7.154402956366539" lat="46.601670971140265">
        <ele>895.0</ele>
        <time>2011-09-23T15:55:30.000Z</time>
      </trkpt>
      <trkpt lon="7.154180919751525" lat="46.602099956944585">
        <ele>890.7999877929688</ele>
        <time>2011-09-23T15:55:34.000Z</time>
      </trkpt>
      <trkpt lon="7.15391194447875" lat="46.60242794081569">
        <ele>887.5999755859375</ele>
        <time>2011-09-23T15:55:37.000Z</time>
      </trkpt>
      <trkpt lon="7.153674988076091" lat="46.60262793302536">
        <ele>885.2000122070312</ele>
        <time>2011-09-23T15:55:39.000Z</time>
      </trkpt>
      <trkpt lon="7.153194956481457" lat="46.60286296159029">
        <ele>883.7999877929688</ele>
        <time>2011-09-23T15:55:43.000Z</time>
      </trkpt>
      <trkpt lon="7.152748955413699" lat="46.60314593464136">
        <ele>886.0</ele>
        <time>2011-09-23T15:55:48.000Z</time>
      </trkpt>
      <trkpt lon="7.15260193683207" lat="46.6032319329679">
        <ele>886.5999755859375</ele>
        <time>2011-09-23T15:55:50.000Z</time>
      </trkpt>
      <trkpt lon="7.15246899984777" lat="46.603301921859384">
        <ele>887.5999755859375</ele>
        <time>2011-09-23T15:55:52.000Z</time>
      </trkpt>
      <trkpt lon="7.152334973216057" lat="46.60336294211447">
        <ele>888.4000244140625</ele>
        <time>2011-09-23T15:55:54.000Z</time>
      </trkpt>
      <trkpt lon="7.152045965194702" lat="46.603452963754535">
        <ele>891.0</ele>
        <time>2011-09-23T15:55:59.000Z</time>
      </trkpt>
      <trkpt lon="7.151777995750308" lat="46.603538962081075">
        <ele>893.4000244140625</ele>
        <time>2011-09-23T15:56:06.000Z</time>
      </trkpt>
      <trkpt lon="7.1515619941055775" lat="46.60361398011446">
        <ele>894.7999877929688</ele>
        <time>2011-09-23T15:56:12.000Z</time>
      </trkpt>
      <trkpt lon="7.151351943612099" lat="46.603688998147845">
        <ele>896.4000244140625</ele>
        <time>2011-09-23T15:56:19.000Z</time>
      </trkpt>
      <trkpt lon="7.151152957230806" lat="46.603754963725805">
        <ele>897.7999877929688</ele>
        <time>2011-09-23T15:56:25.000Z</time>
      </trkpt>
      <trkpt lon="7.150969980284572" lat="46.60379997454584">
        <ele>899.2000122070312</ele>
        <time>2011-09-23T15:56:32.000Z</time>
      </trkpt>
      <trkpt lon="7.150799995288253" lat="46.60385093651712">
        <ele>900.5999755859375</ele>
        <time>2011-09-23T15:56:39.000Z</time>
      </trkpt>
      <trkpt lon="7.150718942284584" lat="46.603907933458686">
        <ele>901.4000244140625</ele>
        <time>2011-09-23T15:56:43.000Z</time>
      </trkpt>
      <trkpt lon="7.150661945343018" lat="46.60396199673414">
        <ele>902.4000244140625</ele>
        <time>2011-09-23T15:56:47.000Z</time>
      </trkpt>
      <trkpt lon="7.150528924539685" lat="46.60412896424532">
        <ele>903.5999755859375</ele>
        <time>2011-09-23T15:56:55.000Z</time>
      </trkpt>
      <trkpt lon="7.150390958413482" lat="46.60429693758488">
        <ele>904.5999755859375</ele>
        <time>2011-09-23T15:57:02.000Z</time>
      </trkpt>
      <trkpt lon="7.150275958701968" lat="46.60441193729639">
        <ele>905.5999755859375</ele>
        <time>2011-09-23T15:57:08.000Z</time>
      </trkpt>
      <trkpt lon="7.150156935676932" lat="46.60451595671475">
        <ele>906.2000122070312</ele>
        <time>2011-09-23T15:57:13.000Z</time>
      </trkpt>
      <trkpt lon="7.149992985650897" lat="46.60463196225464">
        <ele>906.7999877929688</ele>
        <time>2011-09-23T15:57:19.000Z</time>
      </trkpt>
      <trkpt lon="7.1497769840061665" lat="46.60477696917951">
        <ele>907.2000122070312</ele>
        <time>2011-09-23T15:57:26.000Z</time>
      </trkpt>
      <trkpt lon="7.149628959596157" lat="46.6048879455775">
        <ele>907.2000122070312</ele>
        <time>2011-09-23T15:57:31.000Z</time>
      </trkpt>
      <trkpt lon="7.149535920470953" lat="46.60501099191606">
        <ele>906.7999877929688</ele>
        <time>2011-09-23T15:57:35.000Z</time>
      </trkpt>
      <trkpt lon="7.149399966001511" lat="46.60525096580386">
        <ele>905.4000244140625</ele>
        <time>2011-09-23T15:57:40.000Z</time>
      </trkpt>
      <trkpt lon="7.149113975465298" lat="46.605365965515375">
        <ele>904.0</ele>
        <time>2011-09-23T15:57:43.000Z</time>
      </trkpt>
      <trkpt lon="7.148910965770483" lat="46.60543796606362">
        <ele>903.0</ele>
        <time>2011-09-23T15:57:45.000Z</time>
      </trkpt>
      <trkpt lon="7.148613994941115" lat="46.60550694912672">
        <ele>902.7999877929688</ele>
        <time>2011-09-23T15:57:48.000Z</time>
      </trkpt>
      <trkpt lon="7.14819791726768" lat="46.60552798770368">
        <ele>903.5999755859375</ele>
        <time>2011-09-23T15:57:53.000Z</time>
      </trkpt>
      <trkpt lon="7.14789398945868" lat="46.60562999546528">
        <ele>903.4000244140625</ele>
        <time>2011-09-23T15:57:58.000Z</time>
      </trkpt>
      <trkpt lon="7.147450922057033" lat="46.60559495911002">
        <ele>901.0</ele>
        <time>2011-09-23T15:58:03.000Z</time>
      </trkpt>
      <trkpt lon="7.147243972867727" lat="46.605406953021884">
        <ele>899.0</ele>
        <time>2011-09-23T15:58:06.000Z</time>
      </trkpt>
      <trkpt lon="7.1470619179308414" lat="46.60533294081688">
        <ele>897.5999755859375</ele>
        <time>2011-09-23T15:58:08.000Z</time>
      </trkpt>
      <trkpt lon="7.14639195241034" lat="46.6053559910506">
        <ele>895.2000122070312</ele>
        <time>2011-09-23T15:58:14.000Z</time>
      </trkpt>
      <trkpt lon="7.146146949380636" lat="46.60549999214709">
        <ele>893.0</ele>
        <time>2011-09-23T15:58:17.000Z</time>
      </trkpt>
      <trkpt lon="7.146056927740574" lat="46.60556595772505">
        <ele>892.7999877929688</ele>
        <time>2011-09-23T15:58:18.000Z</time>
      </trkpt>
      <trkpt lon="7.145655937492847" lat="46.605751952156425">
        <ele>892.2000122070312</ele>
        <time>2011-09-23T15:58:22.000Z</time>
      </trkpt>
      <trkpt lon="7.145321918651462" lat="46.60581096075475">
        <ele>891.4000244140625</ele>
        <time>2011-09-23T15:58:25.000Z</time>
      </trkpt>
      <trkpt lon="7.144660921767354" lat="46.60581297241151">
        <ele>891.4000244140625</ele>
        <time>2011-09-23T15:58:31.000Z</time>
      </trkpt>
      <trkpt lon="7.144551957026124" lat="46.60583493299782">
        <ele>891.4000244140625</ele>
        <time>2011-09-23T15:58:32.000Z</time>
      </trkpt>
      <trkpt lon="7.144323969259858" lat="46.60601598210633">
        <ele>892.4000244140625</ele>
        <time>2011-09-23T15:58:37.000Z</time>
      </trkpt>
      <trkpt lon="7.144303936511278" lat="46.60605696961284">
        <ele>892.7999877929688</ele>
        <time>2011-09-23T15:58:38.000Z</time>
      </trkpt>
      <trkpt lon="7.144101932644844" lat="46.60627892240882">
        <ele>894.4000244140625</ele>
        <time>2011-09-23T15:58:43.000Z</time>
      </trkpt>
      <trkpt lon="7.143760956823826" lat="46.60641395486891">
        <ele>896.5999755859375</ele>
        <time>2011-09-23T15:58:49.000Z</time>
      </trkpt>
      <trkpt lon="7.143496926873922" lat="46.606524931266904">
        <ele>898.2000122070312</ele>
        <time>2011-09-23T15:58:55.000Z</time>
      </trkpt>
      <trkpt lon="7.143306992948055" lat="46.6066409368068">
        <ele>899.4000244140625</ele>
        <time>2011-09-23T15:59:01.000Z</time>
      </trkpt>
      <trkpt lon="7.143222922459245" lat="46.606742944568396">
        <ele>899.7999877929688</ele>
        <time>2011-09-23T15:59:06.000Z</time>
      </trkpt>
      <trkpt lon="7.143209930509329" lat="46.60677395761013">
        <ele>899.7999877929688</ele>
        <time>2011-09-23T15:59:07.000Z</time>
      </trkpt>
      <trkpt lon="7.143178917467594" lat="46.606845958158374">
        <ele>899.4000244140625</ele>
        <time>2011-09-23T15:59:09.000Z</time>
      </trkpt>
      <trkpt lon="7.143028965219855" lat="46.60696598701179">
        <ele>898.5999755859375</ele>
        <time>2011-09-23T15:59:12.000Z</time>
      </trkpt>
      <trkpt lon="7.142840959131718" lat="46.606952995061874">
        <ele>897.7999877929688</ele>
        <time>2011-09-23T15:59:14.000Z</time>
      </trkpt>
      <trkpt lon="7.142427982762456" lat="46.60689499229193">
        <ele>896.0</ele>
        <time>2011-09-23T15:59:18.000Z</time>
      </trkpt>
      <trkpt lon="7.142111985012889" lat="46.60684193484485">
        <ele>895.5999755859375</ele>
        <time>2011-09-23T15:59:21.000Z</time>
      </trkpt>
      <trkpt lon="7.141277985647321" lat="46.60668293014169">
        <ele>891.7999877929688</ele>
        <time>2011-09-23T15:59:28.000Z</time>
      </trkpt>
      <trkpt lon="7.14093592017889" lat="46.60661696456373">
        <ele>891.4000244140625</ele>
        <time>2011-09-23T15:59:31.000Z</time>
      </trkpt>
      <trkpt lon="7.14045898988843" lat="46.606567930430174">
        <ele>890.7999877929688</ele>
        <time>2011-09-23T15:59:36.000Z</time>
      </trkpt>
      <trkpt lon="7.1403079479932785" lat="46.606594920158386">
        <ele>890.7999877929688</ele>
        <time>2011-09-23T15:59:38.000Z</time>
      </trkpt>
      <trkpt lon="7.139919949695468" lat="46.60669097676873">
        <ele>890.2000122070312</ele>
        <time>2011-09-23T15:59:43.000Z</time>
      </trkpt>
      <trkpt lon="7.139736972749233" lat="46.60674495622516">
        <ele>889.2000122070312</ele>
        <time>2011-09-23T15:59:45.000Z</time>
      </trkpt>
      <trkpt lon="7.13932097889483" lat="46.606743950396776">
        <ele>888.2000122070312</ele>
        <time>2011-09-23T15:59:49.000Z</time>
      </trkpt>
      <trkpt lon="7.139254929497838" lat="46.60670396871865">
        <ele>888.4000244140625</ele>
        <time>2011-09-23T15:59:50.000Z</time>
      </trkpt>
      <trkpt lon="7.1388389356434345" lat="46.60640196874738">
        <ele>888.7999877929688</ele>
        <time>2011-09-23T15:59:57.000Z</time>
      </trkpt>
      <trkpt lon="7.138488991186023" lat="46.606180937960744">
        <ele>889.4000244140625</ele>
        <time>2011-09-23T16:00:03.000Z</time>
      </trkpt>
      <trkpt lon="7.137923967093229" lat="46.60587793216109">
        <ele>888.5999755859375</ele>
        <time>2011-09-23T16:00:12.000Z</time>
      </trkpt>
      <trkpt lon="7.137520965188742" lat="46.60571599379182">
        <ele>888.2000122070312</ele>
        <time>2011-09-23T16:00:18.000Z</time>
      </trkpt>
      <trkpt lon="7.137459944933653" lat="46.605689926072955">
        <ele>888.4000244140625</ele>
        <time>2011-09-23T16:00:19.000Z</time>
      </trkpt>
      <trkpt lon="7.136998940259218" lat="46.60550996661186">
        <ele>888.5999755859375</ele>
        <time>2011-09-23T16:00:27.000Z</time>
      </trkpt>
      <trkpt lon="7.136934986338019" lat="46.60548398271203">
        <ele>888.4000244140625</ele>
        <time>2011-09-23T16:00:28.000Z</time>
      </trkpt>
      <trkpt lon="7.136263931170106" lat="46.6052489541471">
        <ele>887.2000122070312</ele>
        <time>2011-09-23T16:00:37.000Z</time>
      </trkpt>
      <trkpt lon="7.135772919282317" lat="46.60506195388734">
        <ele>886.7999877929688</ele>
        <time>2011-09-23T16:00:44.000Z</time>
      </trkpt>
      <trkpt lon="7.135320967063308" lat="46.60486699081957">
        <ele>886.5999755859375</ele>
        <time>2011-09-23T16:00:51.000Z</time>
      </trkpt>
      <trkpt lon="7.135191969573498" lat="46.604804964736104">
        <ele>886.7999877929688</ele>
        <time>2011-09-23T16:00:53.000Z</time>
      </trkpt>
      <trkpt lon="7.134814951568842" lat="46.60462492145598">
        <ele>886.5999755859375</ele>
        <time>2011-09-23T16:00:59.000Z</time>
      </trkpt>
      <trkpt lon="7.134652929380536" lat="46.6045459639281">
        <ele>886.7999877929688</ele>
        <time>2011-09-23T16:01:02.000Z</time>
      </trkpt>
      <trkpt lon="7.134268954396248" lat="46.60436198115349">
        <ele>885.5999755859375</ele>
        <time>2011-09-23T16:01:09.000Z</time>
      </trkpt>
      <trkpt lon="7.133961925283074" lat="46.60421496257186">
        <ele>884.4000244140625</ele>
        <time>2011-09-23T16:01:13.000Z</time>
      </trkpt>
      <trkpt lon="7.1334809716790915" lat="46.60406392067671">
        <ele>883.2000122070312</ele>
        <time>2011-09-23T16:01:18.000Z</time>
      </trkpt>
      <trkpt lon="7.133378963917494" lat="46.6040419600904">
        <ele>883.2000122070312</ele>
        <time>2011-09-23T16:01:19.000Z</time>
      </trkpt>
      <trkpt lon="7.1328389178961515" lat="46.60402595065534">
        <ele>883.0</ele>
        <time>2011-09-23T16:01:25.000Z</time>
      </trkpt>
      <trkpt lon="7.132306918501854" lat="46.60392997786403">
        <ele>882.2000122070312</ele>
        <time>2011-09-23T16:01:31.000Z</time>
      </trkpt>
      <trkpt lon="7.131901988759637" lat="46.603795951232314">
        <ele>882.0</ele>
        <time>2011-09-23T16:01:36.000Z</time>
      </trkpt>
      <trkpt lon="7.131493957713246" lat="46.60372897982597">
        <ele>881.5999755859375</ele>
        <time>2011-09-23T16:01:41.000Z</time>
      </trkpt>
      <trkpt lon="7.131215929985046" lat="46.60359897650778">
        <ele>881.0</ele>
        <time>2011-09-23T16:01:45.000Z</time>
      </trkpt>
      <trkpt lon="7.130655935034156" lat="46.60321298986673">
        <ele>879.7999877929688</ele>
        <time>2011-09-23T16:01:53.000Z</time>
      </trkpt>
      <trkpt lon="7.130325939506292" lat="46.60306194797158">
        <ele>879.2000122070312</ele>
        <time>2011-09-23T16:01:57.000Z</time>
      </trkpt>
      <trkpt lon="7.130022933706641" lat="46.60305993631482">
        <ele>878.2000122070312</ele>
        <time>2011-09-23T16:02:00.000Z</time>
      </trkpt>
      <trkpt lon="7.129932995885611" lat="46.60307795740664">
        <ele>878.2000122070312</ele>
        <time>2011-09-23T16:02:01.000Z</time>
      </trkpt>
      <trkpt lon="7.129385992884636" lat="46.60311492159963">
        <ele>877.0</ele>
        <time>2011-09-23T16:02:06.000Z</time>
      </trkpt>
      <trkpt lon="7.128537995740771" lat="46.60285793244839">
        <ele>875.0</ele>
        <time>2011-09-23T16:02:15.000Z</time>
      </trkpt>
      <trkpt lon="7.127942964434624" lat="46.60269096493721">
        <ele>873.7999877929688</ele>
        <time>2011-09-23T16:02:21.000Z</time>
      </trkpt>
      <trkpt lon="7.127276938408613" lat="46.602593986317515">
        <ele>873.0</ele>
        <time>2011-09-23T16:02:28.000Z</time>
      </trkpt>
      <trkpt lon="7.126681990921497" lat="46.60245794802904">
        <ele>872.7999877929688</ele>
        <time>2011-09-23T16:02:35.000Z</time>
      </trkpt>
      <trkpt lon="7.126256944611669" lat="46.602441938593984">
        <ele>871.5999755859375</ele>
        <time>2011-09-23T16:02:40.000Z</time>
      </trkpt>
      <trkpt lon="7.125962991267443" lat="46.602478986606">
        <ele>870.5999755859375</ele>
        <time>2011-09-23T16:02:43.000Z</time>
      </trkpt>
      <trkpt lon="7.125405929982662" lat="46.60267093218863">
        <ele>867.0</ele>
        <time>2011-09-23T16:02:48.000Z</time>
      </trkpt>
      <trkpt lon="7.1248359605669975" lat="46.60284393467009">
        <ele>862.7999877929688</ele>
        <time>2011-09-23T16:02:52.000Z</time>
      </trkpt>
      <trkpt lon="7.124271942302585" lat="46.60310092382133">
        <ele>857.2000122070312</ele>
        <time>2011-09-23T16:02:56.000Z</time>
      </trkpt>
      <trkpt lon="7.123760981485248" lat="46.60355295985937">
        <ele>849.7999877929688</ele>
        <time>2011-09-23T16:03:01.000Z</time>
      </trkpt>
      <trkpt lon="7.123274998739362" lat="46.60381497815251">
        <ele>844.2000122070312</ele>
        <time>2011-09-23T16:03:05.000Z</time>
      </trkpt>
      <trkpt lon="7.122719949111342" lat="46.60385395400226">
        <ele>839.4000244140625</ele>
        <time>2011-09-23T16:03:09.000Z</time>
      </trkpt>
      <trkpt lon="7.12234896607697" lat="46.60376996733248">
        <ele>836.2000122070312</ele>
        <time>2011-09-23T16:03:12.000Z</time>
      </trkpt>
      <trkpt lon="7.122236983850598" lat="46.60372797399759">
        <ele>835.0</ele>
        <time>2011-09-23T16:03:13.000Z</time>
      </trkpt>
      <trkpt lon="7.122060963883996" lat="46.60357693210244">
        <ele>833.2000122070312</ele>
        <time>2011-09-23T16:03:15.000Z</time>
      </trkpt>
      <trkpt lon="7.121670953929424" lat="46.603279961273074">
        <ele>827.4000244140625</ele>
        <time>2011-09-23T16:03:19.000Z</time>
      </trkpt>
      <trkpt lon="7.121176924556494" lat="46.603169990703464">
        <ele>822.7999877929688</ele>
        <time>2011-09-23T16:03:22.000Z</time>
      </trkpt>
      <trkpt lon="7.120188949629664" lat="46.60320695489645">
        <ele>814.4000244140625</ele>
        <time>2011-09-23T16:03:27.000Z</time>
      </trkpt>
      <trkpt lon="7.11936199106276" lat="46.603151969611645">
        <ele>807.0</ele>
        <time>2011-09-23T16:03:31.000Z</time>
      </trkpt>
      <trkpt lon="7.1183679811656475" lat="46.60289799794555">
        <ele>799.5999755859375</ele>
        <time>2011-09-23T16:03:36.000Z</time>
      </trkpt>
      <trkpt lon="7.117593996226788" lat="46.60283697769046">
        <ele>796.2000122070312</ele>
        <time>2011-09-23T16:03:40.000Z</time>
      </trkpt>
      <trkpt lon="7.116695959120989" lat="46.60280294716358">
        <ele>792.7999877929688</ele>
        <time>2011-09-23T16:03:45.000Z</time>
      </trkpt>
      <trkpt lon="7.115821978077292" lat="46.60279196687043">
        <ele>788.7999877929688</ele>
        <time>2011-09-23T16:03:50.000Z</time>
      </trkpt>
      <trkpt lon="7.11532199755311" lat="46.60275793634355">
        <ele>786.7999877929688</ele>
        <time>2011-09-23T16:03:53.000Z</time>
      </trkpt>
      <trkpt lon="7.114697964861989" lat="46.60264897160232">
        <ele>783.5999755859375</ele>
        <time>2011-09-23T16:03:57.000Z</time>
      </trkpt>
      <trkpt lon="7.114568967372179" lat="46.6025809943676">
        <ele>783.2000122070312</ele>
        <time>2011-09-23T16:03:58.000Z</time>
      </trkpt>
      <trkpt lon="7.114198990166187" lat="46.602359963580966">
        <ele>781.0</ele>
        <time>2011-09-23T16:04:01.000Z</time>
      </trkpt>
      <trkpt lon="7.113488959148526" lat="46.6021269466728">
        <ele>777.7999877929688</ele>
        <time>2011-09-23T16:04:06.000Z</time>
      </trkpt>
      <trkpt lon="7.113062990829349" lat="46.60198495723307">
        <ele>775.2000122070312</ele>
        <time>2011-09-23T16:04:09.000Z</time>
      </trkpt>
      <trkpt lon="7.112655965611339" lat="46.60180793143809">
        <ele>772.5999755859375</ele>
        <time>2011-09-23T16:04:12.000Z</time>
      </trkpt>
      <trkpt lon="7.112097982317209" lat="46.60161992534995">
        <ele>768.0</ele>
        <time>2011-09-23T16:04:16.000Z</time>
      </trkpt>
      <trkpt lon="7.111038928851485" lat="46.60155094228685">
        <ele>760.5999755859375</ele>
        <time>2011-09-23T16:04:22.000Z</time>
      </trkpt>
      <trkpt lon="7.110271984711289" lat="46.601519929245114">
        <ele>756.0</ele>
        <time>2011-09-23T16:04:26.000Z</time>
      </trkpt>
      <trkpt lon="7.109508980065584" lat="46.6015759203583">
        <ele>751.0</ele>
        <time>2011-09-23T16:04:30.000Z</time>
      </trkpt>
      <trkpt lon="7.108725942671299" lat="46.60182796418667">
        <ele>745.4000244140625</ele>
        <time>2011-09-23T16:04:35.000Z</time>
      </trkpt>
      <trkpt lon="7.108480939641595" lat="46.601904993876815">
        <ele>743.2000122070312</ele>
        <time>2011-09-23T16:04:37.000Z</time>
      </trkpt>
      <trkpt lon="7.10823099128902" lat="46.60198395140469">
        <ele>741.4000244140625</ele>
        <time>2011-09-23T16:04:40.000Z</time>
      </trkpt>
      <trkpt lon="7.108133928850293" lat="46.601902982220054">
        <ele>740.7999877929688</ele>
        <time>2011-09-23T16:04:42.000Z</time>
      </trkpt>
      <trkpt lon="7.107541998848319" lat="46.601475924253464">
        <ele>740.0</ele>
        <time>2011-09-23T16:04:51.000Z</time>
      </trkpt>
      <trkpt lon="7.1073999255895615" lat="46.601373916491866">
        <ele>739.7999877929688</ele>
        <time>2011-09-23T16:04:53.000Z</time>
      </trkpt>
      <trkpt lon="7.1070559322834015" lat="46.60111893899739">
        <ele>739.2000122070312</ele>
        <time>2011-09-23T16:04:58.000Z</time>
      </trkpt>
      <trkpt lon="7.106670951470733" lat="46.6008369717747">
        <ele>739.4000244140625</ele>
        <time>2011-09-23T16:05:04.000Z</time>
      </trkpt>
      <trkpt lon="7.106426954269409" lat="46.60065793432295">
        <ele>738.4000244140625</ele>
        <time>2011-09-23T16:05:08.000Z</time>
      </trkpt>
      <trkpt lon="7.106265937909484" lat="46.60052793100476">
        <ele>738.0</ele>
        <time>2011-09-23T16:05:11.000Z</time>
      </trkpt>
      <trkpt lon="7.106265937909484" lat="46.600334979593754">
        <ele>737.5999755859375</ele>
        <time>2011-09-23T16:05:15.000Z</time>
      </trkpt>
      <trkpt lon="7.105917921289802" lat="46.60052399151027">
        <ele>737.4000244140625</ele>
        <time>2011-09-23T16:05:16.000Z</time>
      </trkpt>
      <trkpt lon="7.1053769532591105" lat="46.60081895068288">
        <ele>737.5999755859375</ele>
        <time>2011-09-23T16:05:23.000Z</time>
      </trkpt>
      <trkpt lon="7.10475392639637" lat="46.601155987009406">
        <ele>737.0</ele>
        <time>2011-09-23T16:05:32.000Z</time>
      </trkpt>
      <trkpt lon="7.104341955855489" lat="46.60137793980539">
        <ele>736.5999755859375</ele>
        <time>2011-09-23T16:05:38.000Z</time>
      </trkpt>
      <trkpt lon="7.103804927319288" lat="46.601668959483504">
        <ele>736.5999755859375</ele>
        <time>2011-09-23T16:05:46.000Z</time>
      </trkpt>
      <trkpt lon="7.103323973715305" lat="46.60194095224142">
        <ele>736.2000122070312</ele>
        <time>2011-09-23T16:05:53.000Z</time>
      </trkpt>
      <trkpt lon="7.102706981822848" lat="46.60227597691119">
        <ele>735.4000244140625</ele>
        <time>2011-09-23T16:06:02.000Z</time>
      </trkpt>
      <trkpt lon="7.102428954094648" lat="46.60242995247245">
        <ele>735.0</ele>
        <time>2011-09-23T16:06:07.000Z</time>
      </trkpt>
      <trkpt lon="7.102341949939728" lat="46.60249499604106">
        <ele>734.5999755859375</ele>
        <time>2011-09-23T16:06:11.000Z</time>
      </trkpt>
      <trkpt lon="7.102161990478635" lat="46.60255299881101">
        <ele>734.4000244140625</ele>
        <time>2011-09-23T16:06:15.000Z</time>
      </trkpt>
      <trkpt lon="7.101373923942447" lat="46.6026259213686">
        <ele>733.7999877929688</ele>
        <time>2011-09-23T16:06:23.000Z</time>
      </trkpt>
      <trkpt lon="7.100853994488716" lat="46.60276799462736">
        <ele>733.0</ele>
        <time>2011-09-23T16:06:28.000Z</time>
      </trkpt>
      <trkpt lon="7.100763972848654" lat="46.60281694494188">
        <ele>733.0</ele>
        <time>2011-09-23T16:06:29.000Z</time>
      </trkpt>
      <trkpt lon="7.100044973194599" lat="46.603193962946534">
        <ele>732.0</ele>
        <time>2011-09-23T16:06:37.000Z</time>
      </trkpt>
      <trkpt lon="7.0993489399552345" lat="46.60329597070813">
        <ele>731.5999755859375</ele>
        <time>2011-09-23T16:06:43.000Z</time>
      </trkpt>
      <trkpt lon="7.09923293441534" lat="46.60329597070813">
        <ele>731.5999755859375</ele>
        <time>2011-09-23T16:06:44.000Z</time>
      </trkpt>
      <trkpt lon="7.098537990823388" lat="46.603239979594946">
        <ele>730.7999877929688</ele>
        <time>2011-09-23T16:06:50.000Z</time>
      </trkpt>
      <trkpt lon="7.097859978675842" lat="46.603107964619994">
        <ele>727.7999877929688</ele>
        <time>2011-09-23T16:06:55.000Z</time>
      </trkpt>
      <trkpt lon="7.097665937617421" lat="46.60311492159963">
        <ele>727.0</ele>
        <time>2011-09-23T16:06:56.000Z</time>
      </trkpt>
      <trkpt lon="7.096259957179427" lat="46.60321491770446">
        <ele>719.4000244140625</ele>
        <time>2011-09-23T16:07:04.000Z</time>
      </trkpt>
      <trkpt lon="7.0951309986412525" lat="46.60328892990947">
        <ele>713.0</ele>
        <time>2011-09-23T16:07:10.000Z</time>
      </trkpt>
      <trkpt lon="7.094404958188534" lat="46.60327694378793">
        <ele>709.5999755859375</ele>
        <time>2011-09-23T16:07:14.000Z</time>
      </trkpt>
      <trkpt lon="7.094072951003909" lat="46.60315993241966">
        <ele>708.5999755859375</ele>
        <time>2011-09-23T16:07:16.000Z</time>
      </trkpt>
      <trkpt lon="7.093263929709792" lat="46.60273195244372">
        <ele>706.7999877929688</ele>
        <time>2011-09-23T16:07:22.000Z</time>
      </trkpt>
      <trkpt lon="7.092791944742203" lat="46.60241193138063">
        <ele>706.5999755859375</ele>
        <time>2011-09-23T16:07:27.000Z</time>
      </trkpt>
      <trkpt lon="7.092583989724517" lat="46.602379996329546">
        <ele>706.4000244140625</ele>
        <time>2011-09-23T16:07:30.000Z</time>
      </trkpt>
      <trkpt lon="7.092494973912835" lat="46.60243498161435">
        <ele>706.5999755859375</ele>
        <time>2011-09-23T16:07:32.000Z</time>
      </trkpt>
      <trkpt lon="7.092269919812679" lat="46.60267495550215">
        <ele>707.5999755859375</ele>
        <time>2011-09-23T16:07:39.000Z</time>
      </trkpt>
      <trkpt lon="7.092066993936896" lat="46.60295591689646">
        <ele>709.2000122070312</ele>
        <time>2011-09-23T16:07:46.000Z</time>
      </trkpt>
      <trkpt lon="7.091808998957276" lat="46.60311693325639">
        <ele>710.5999755859375</ele>
        <time>2011-09-23T16:07:52.000Z</time>
      </trkpt>
      <trkpt lon="7.091573970392346" lat="46.60318893380463">
        <ele>711.7999877929688</ele>
        <time>2011-09-23T16:07:57.000Z</time>
      </trkpt>
      <trkpt lon="7.091332990676165" lat="46.60317191854119">
        <ele>712.7999877929688</ele>
        <time>2011-09-23T16:08:02.000Z</time>
      </trkpt>
      <trkpt lon="7.090942980721593" lat="46.603089943528175">
        <ele>715.4000244140625</ele>
        <time>2011-09-23T16:08:11.000Z</time>
      </trkpt>
      <trkpt lon="7.090834937989712" lat="46.60305993631482">
        <ele>716.0</ele>
        <time>2011-09-23T16:08:16.000Z</time>
      </trkpt>
      <trkpt lon="7.090834937989712" lat="46.60305993631482">
        <ele>716.0</ele>
        <time>2011-09-23T16:08:17.000Z</time>
      </trkpt>
      <trkpt lon="7.09083192050457" lat="46.60305893048644">
        <ele>716.4000244140625</ele>
        <time>2011-09-23T16:09:05.000Z</time>
      </trkpt>
      <trkpt lon="7.090694960206747" lat="46.60301894880831">
        <ele>717.4000244140625</ele>
        <time>2011-09-23T16:09:10.000Z</time>
      </trkpt>
      <trkpt lon="7.090520951896906" lat="46.60310595296323">
        <ele>718.7999877929688</ele>
        <time>2011-09-23T16:09:15.000Z</time>
      </trkpt>
      <trkpt lon="7.090260945260525" lat="46.603213995695114">
        <ele>720.0</ele>
        <time>2011-09-23T16:09:21.000Z</time>
      </trkpt>
      <trkpt lon="7.090063970535994" lat="46.60322698764503">
        <ele>721.2000122070312</ele>
        <time>2011-09-23T16:09:25.000Z</time>
      </trkpt>
      <trkpt lon="7.089786948636174" lat="46.60327292047441">
        <ele>722.4000244140625</ele>
        <time>2011-09-23T16:09:31.000Z</time>
      </trkpt>
      <trkpt lon="7.08954194560647" lat="46.60335992462933">
        <ele>724.0</ele>
        <time>2011-09-23T16:09:37.000Z</time>
      </trkpt>
      <trkpt lon="7.0893309731036425" lat="46.60346897318959">
        <ele>725.7999877929688</ele>
        <time>2011-09-23T16:09:43.000Z</time>
      </trkpt>
      <trkpt lon="7.08919795230031" lat="46.60355396568775">
        <ele>726.7999877929688</ele>
        <time>2011-09-23T16:09:49.000Z</time>
      </trkpt>
      <trkpt lon="7.0891739800572395" lat="46.60356896929443">
        <ele>727.0</ele>
        <time>2011-09-23T16:09:50.000Z</time>
      </trkpt>
      <trkpt lon="7.089127963408828" lat="46.60367198288441">
        <ele>728.0</ele>
        <time>2011-09-23T16:09:55.000Z</time>
      </trkpt>
      <trkpt lon="7.089126957580447" lat="46.6038019862026">
        <ele>728.7999877929688</ele>
        <time>2011-09-23T16:10:00.000Z</time>
      </trkpt>
      <trkpt lon="7.089213961735368" lat="46.603949926793575">
        <ele>730.0</ele>
        <time>2011-09-23T16:10:06.000Z</time>
      </trkpt>
      <trkpt lon="7.089329967275262" lat="46.604080935940146">
        <ele>731.4000244140625</ele>
        <time>2011-09-23T16:10:13.000Z</time>
      </trkpt>
      <trkpt lon="7.089450918138027" lat="46.604227954521775">
        <ele>732.4000244140625</ele>
        <time>2011-09-23T16:10:19.000Z</time>
      </trkpt>
      <trkpt lon="7.089526941999793" lat="46.60432895645499">
        <ele>733.5999755859375</ele>
        <time>2011-09-23T16:10:25.000Z</time>
      </trkpt>
      <trkpt lon="7.089409930631518" lat="46.604461977258325">
        <ele>734.7999877929688</ele>
        <time>2011-09-23T16:10:32.000Z</time>
      </trkpt>
      <trkpt lon="7.08928395062685" lat="46.60454294644296">
        <ele>735.5999755859375</ele>
        <time>2011-09-23T16:10:37.000Z</time>
      </trkpt>
      <trkpt lon="7.089155958965421" lat="46.60464495420456">
        <ele>736.2000122070312</ele>
        <time>2011-09-23T16:10:43.000Z</time>
      </trkpt>
      <trkpt lon="7.089039953425527" lat="46.60479792393744">
        <ele>736.7999877929688</ele>
        <time>2011-09-23T16:10:50.000Z</time>
      </trkpt>
      <trkpt lon="7.088922942057252" lat="46.604940919205546">
        <ele>737.0</ele>
        <time>2011-09-23T16:10:56.000Z</time>
      </trkpt>
      <trkpt lon="7.088838955387473" lat="46.605042926967144">
        <ele>736.7999877929688</ele>
        <time>2011-09-23T16:11:00.000Z</time>
      </trkpt>
      <trkpt lon="7.088715992867947" lat="46.60518793389201">
        <ele>736.2000122070312</ele>
        <time>2011-09-23T16:11:04.000Z</time>
      </trkpt>
      <trkpt lon="7.08868095651269" lat="46.60522892139852">
        <ele>736.0</ele>
        <time>2011-09-23T16:11:05.000Z</time>
      </trkpt>
      <trkpt lon="7.088405946269631" lat="46.60546294413507">
        <ele>735.0</ele>
        <time>2011-09-23T16:11:10.000Z</time>
      </trkpt>
      <trkpt lon="7.088029934093356" lat="46.605644999071956">
        <ele>735.2000122070312</ele>
        <time>2011-09-23T16:11:15.000Z</time>
      </trkpt>
      <trkpt lon="7.087728939950466" lat="46.605709958821535">
        <ele>735.4000244140625</ele>
        <time>2011-09-23T16:11:19.000Z</time>
      </trkpt>
      <trkpt lon="7.087455941364169" lat="46.605733931064606">
        <ele>736.0</ele>
        <time>2011-09-23T16:11:23.000Z</time>
      </trkpt>
      <trkpt lon="7.086909944191575" lat="46.60578891634941">
        <ele>737.0</ele>
        <time>2011-09-23T16:11:31.000Z</time>
      </trkpt>
      <trkpt lon="7.086582966148853" lat="46.60593392327428">
        <ele>738.0</ele>
        <time>2011-09-23T16:11:37.000Z</time>
      </trkpt>
      <trkpt lon="7.086317930370569" lat="46.606115978211164">
        <ele>739.4000244140625</ele>
        <time>2011-09-23T16:11:44.000Z</time>
      </trkpt>
      <trkpt lon="7.085957927629352" lat="46.60635192878544">
        <ele>741.0</ele>
        <time>2011-09-23T16:11:54.000Z</time>
      </trkpt>
      <trkpt lon="7.085677972063422" lat="46.60653599537909">
        <ele>742.4000244140625</ele>
        <time>2011-09-23T16:12:02.000Z</time>
      </trkpt>
      <trkpt lon="7.08532995544374" lat="46.606742944568396">
        <ele>743.7999877929688</ele>
        <time>2011-09-23T16:12:12.000Z</time>
      </trkpt>
      <trkpt lon="7.085043964907527" lat="46.60683196038008">
        <ele>743.7999877929688</ele>
        <time>2011-09-23T16:12:18.000Z</time>
      </trkpt>
      <trkpt lon="7.08470793440938" lat="46.60684294067323">
        <ele>743.7999877929688</ele>
        <time>2011-09-23T16:12:24.000Z</time>
      </trkpt>
      <trkpt lon="7.084431918337941" lat="46.60686096176505">
        <ele>744.0</ele>
        <time>2011-09-23T16:12:29.000Z</time>
      </trkpt>
      <trkpt lon="7.084120949730277" lat="46.60688493400812">
        <ele>743.5999755859375</ele>
        <time>2011-09-23T16:12:34.000Z</time>
      </trkpt>
      <trkpt lon="7.083703950047493" lat="46.60699096508324">
        <ele>742.2000122070312</ele>
        <time>2011-09-23T16:12:39.000Z</time>
      </trkpt>
      <trkpt lon="7.083208998665214" lat="46.607192968949676">
        <ele>740.0</ele>
        <time>2011-09-23T16:12:44.000Z</time>
      </trkpt>
      <trkpt lon="7.08309693261981" lat="46.60723194479942">
        <ele>739.7999877929688</ele>
        <time>2011-09-23T16:12:45.000Z</time>
      </trkpt>
      <trkpt lon="7.082870956510305" lat="46.60728894174099">
        <ele>739.2000122070312</ele>
        <time>2011-09-23T16:12:47.000Z</time>
      </trkpt>
      <trkpt lon="7.082659984007478" lat="46.60732598975301">
        <ele>739.0</ele>
        <time>2011-09-23T16:12:49.000Z</time>
      </trkpt>
      <trkpt lon="7.082387991249561" lat="46.60739799030125">
        <ele>739.0</ele>
        <time>2011-09-23T16:12:52.000Z</time>
      </trkpt>
      <trkpt lon="7.082009967416525" lat="46.607599994167686">
        <ele>740.0</ele>
        <time>2011-09-23T16:12:58.000Z</time>
      </trkpt>
      <trkpt lon="7.08182699047029" lat="46.60762497223914">
        <ele>740.5999755859375</ele>
        <time>2011-09-23T16:13:01.000Z</time>
      </trkpt>
      <trkpt lon="7.081770999357104" lat="46.60761499777436">
        <ele>740.7999877929688</ele>
        <time>2011-09-23T16:13:02.000Z</time>
      </trkpt>
      <trkpt lon="7.081515938043594" lat="46.60752698779106">
        <ele>741.0</ele>
        <time>2011-09-23T16:13:08.000Z</time>
      </trkpt>
      <trkpt lon="7.081403955817223" lat="46.60748499445617">
        <ele>741.2000122070312</ele>
        <time>2011-09-23T16:13:12.000Z</time>
      </trkpt>
      <trkpt lon="7.081125928089023" lat="46.60742196254432">
        <ele>741.7999877929688</ele>
        <time>2011-09-23T16:13:18.000Z</time>
      </trkpt>
      <trkpt lon="7.080898946151137" lat="46.60728399641812">
        <ele>743.0</ele>
        <time>2011-09-23T16:13:25.000Z</time>
      </trkpt>
      <trkpt lon="7.080732984468341" lat="46.60711694508791">
        <ele>744.0</ele>
        <time>2011-09-23T16:13:31.000Z</time>
      </trkpt>
      <trkpt lon="7.080494938418269" lat="46.60697093233466">
        <ele>745.5999755859375</ele>
        <time>2011-09-23T16:13:38.000Z</time>
      </trkpt>
      <trkpt lon="7.08030098117888" lat="46.606870936229825">
        <ele>746.5999755859375</ele>
        <time>2011-09-23T16:13:44.000Z</time>
      </trkpt>
      <trkpt lon="7.07993695512414" lat="46.60672794096172">
        <ele>748.0</ele>
        <time>2011-09-23T16:13:53.000Z</time>
      </trkpt>
      <trkpt lon="7.079649958759546" lat="46.60661595873535">
        <ele>749.4000244140625</ele>
        <time>2011-09-23T16:14:01.000Z</time>
      </trkpt>
      <trkpt lon="7.079457929357886" lat="46.60654094070196">
        <ele>750.0</ele>
        <time>2011-09-23T16:14:06.000Z</time>
      </trkpt>
      <trkpt lon="7.079251985996962" lat="46.60645293071866">
        <ele>750.5999755859375</ele>
        <time>2011-09-23T16:14:12.000Z</time>
      </trkpt>
      <trkpt lon="7.079084934666753" lat="46.606372967362404">
        <ele>751.0</ele>
        <time>2011-09-23T16:14:16.000Z</time>
      </trkpt>
      <trkpt lon="7.078847978264093" lat="46.60625997930765">
        <ele>751.2000122070312</ele>
        <time>2011-09-23T16:14:22.000Z</time>
      </trkpt>
      <trkpt lon="7.078630970790982" lat="46.60613399930298">
        <ele>750.7999877929688</ele>
        <time>2011-09-23T16:14:27.000Z</time>
      </trkpt>
      <trkpt lon="7.078574979677796" lat="46.606098962947726">
        <ele>750.5999755859375</ele>
        <time>2011-09-23T16:14:28.000Z</time>
      </trkpt>
      <trkpt lon="7.078253952786326" lat="46.60583292134106">
        <ele>749.7999877929688</ele>
        <time>2011-09-23T16:14:34.000Z</time>
      </trkpt>
      <trkpt lon="7.077912976965308" lat="46.60535196773708">
        <ele>748.2000122070312</ele>
        <time>2011-09-23T16:14:42.000Z</time>
      </trkpt>
      <trkpt lon="7.077821949496865" lat="46.605023983865976">
        <ele>746.5999755859375</ele>
        <time>2011-09-23T16:14:47.000Z</time>
      </trkpt>
      <trkpt lon="7.077848939225078" lat="46.604314958676696">
        <ele>743.4000244140625</ele>
        <time>2011-09-23T16:14:56.000Z</time>
      </trkpt>
      <trkpt lon="7.07787592895329" lat="46.60399896092713">
        <ele>741.4000244140625</ele>
        <time>2011-09-23T16:15:01.000Z</time>
      </trkpt>
      <trkpt lon="7.0778159983456135" lat="46.60389091819525">
        <ele>740.4000244140625</ele>
        <time>2011-09-23T16:15:04.000Z</time>
      </trkpt>
      <trkpt lon="7.077718935906887" lat="46.60376192070544">
        <ele>739.5999755859375</ele>
        <time>2011-09-23T16:15:10.000Z</time>
      </trkpt>
      <trkpt lon="7.077391957864165" lat="46.603497974574566">
        <ele>737.7999877929688</ele>
        <time>2011-09-23T16:15:17.000Z</time>
      </trkpt>
      <trkpt lon="7.077340995892882" lat="46.60345698706806">
        <ele>737.5999755859375</ele>
        <time>2011-09-23T16:15:18.000Z</time>
      </trkpt>
      <trkpt lon="7.077169921249151" lat="46.60331893712282">
        <ele>736.5999755859375</ele>
        <time>2011-09-23T16:15:22.000Z</time>
      </trkpt>
      <trkpt lon="7.076994990929961" lat="46.60326596349478">
        <ele>737.0</ele>
        <time>2011-09-23T16:15:27.000Z</time>
      </trkpt>
      <trkpt lon="7.076924918219447" lat="46.603300999850035">
        <ele>737.0</ele>
        <time>2011-09-23T16:15:29.000Z</time>
      </trkpt>
      <trkpt lon="7.076784940436482" lat="46.60337098874152">
        <ele>737.0</ele>
        <time>2011-09-23T16:15:32.000Z</time>
      </trkpt>
      <trkpt lon="7.0761979557573795" lat="46.60359394736588">
        <ele>737.2000122070312</ele>
        <time>2011-09-23T16:15:41.000Z</time>
      </trkpt>
      <trkpt lon="7.075676936656237" lat="46.60365999676287">
        <ele>736.7999877929688</ele>
        <time>2011-09-23T16:15:47.000Z</time>
      </trkpt>
      <trkpt lon="7.075382983312011" lat="46.60367298871279">
        <ele>736.5999755859375</ele>
        <time>2011-09-23T16:15:51.000Z</time>
      </trkpt>
      <trkpt lon="7.075012922286987" lat="46.60370391793549">
        <ele>736.7999877929688</ele>
        <time>2011-09-23T16:15:57.000Z</time>
      </trkpt>
      <trkpt lon="7.0745269395411015" lat="46.60379293374717">
        <ele>736.7999877929688</ele>
        <time>2011-09-23T16:16:04.000Z</time>
      </trkpt>
      <trkpt lon="7.073801988735795" lat="46.603924948722124">
        <ele>736.7999877929688</ele>
        <time>2011-09-23T16:16:14.000Z</time>
      </trkpt>
      <trkpt lon="7.073295973241329" lat="46.60401798784733">
        <ele>736.7999877929688</ele>
        <time>2011-09-23T16:16:21.000Z</time>
      </trkpt>
      <trkpt lon="7.072808984667063" lat="46.60410599783063">
        <ele>737.0</ele>
        <time>2011-09-23T16:16:28.000Z</time>
      </trkpt>
      <trkpt lon="7.0721169747412205" lat="46.604226948693395">
        <ele>737.5999755859375</ele>
        <time>2011-09-23T16:16:38.000Z</time>
      </trkpt>
      <trkpt lon="7.071723947301507" lat="46.604290986433625">
        <ele>738.2000122070312</ele>
        <time>2011-09-23T16:16:43.000Z</time>
      </trkpt>
      <trkpt lon="7.071048952639103" lat="46.60443792119622">
        <ele>738.7999877929688</ele>
        <time>2011-09-23T16:16:49.000Z</time>
      </trkpt>
      <trkpt lon="7.070832950994372" lat="46.604424929246306">
        <ele>739.0</ele>
        <time>2011-09-23T16:16:53.000Z</time>
      </trkpt>
      <trkpt lon="7.070832950994372" lat="46.60430397838354">
        <ele>739.2000122070312</ele>
        <time>2011-09-23T16:16:56.000Z</time>
      </trkpt>
      <trkpt lon="7.070731949061155" lat="46.60423792898655">
        <ele>739.2000122070312</ele>
        <time>2011-09-23T16:16:58.000Z</time>
      </trkpt>
      <trkpt lon="7.070520976558328" lat="46.60427598282695">
        <ele>739.5999755859375</ele>
        <time>2011-09-23T16:17:01.000Z</time>
      </trkpt>
      <trkpt lon="7.070360966026783" lat="46.604397939518094">
        <ele>740.2000122070312</ele>
        <time>2011-09-23T16:17:04.000Z</time>
      </trkpt>
      <trkpt lon="7.070261975750327" lat="46.604485949501395">
        <ele>740.4000244140625</ele>
        <time>2011-09-23T16:17:06.000Z</time>
      </trkpt>
      <trkpt lon="7.069948995485902" lat="46.60463095642626">
        <ele>740.7999877929688</ele>
        <time>2011-09-23T16:17:11.000Z</time>
      </trkpt>
      <trkpt lon="7.069464940577745" lat="46.60471494309604">
        <ele>741.7999877929688</ele>
        <time>2011-09-23T16:17:19.000Z</time>
      </trkpt>
      <trkpt lon="7.069250950589776" lat="46.60471393726766">
        <ele>742.4000244140625</ele>
        <time>2011-09-23T16:17:23.000Z</time>
      </trkpt>
      <trkpt lon="7.0690269861370325" lat="46.604827931150794">
        <ele>742.5999755859375</ele>
        <time>2011-09-23T16:17:28.000Z</time>
      </trkpt>
      <trkpt lon="7.0686709228903055" lat="46.60510294139385">
        <ele>743.2000122070312</ele>
        <time>2011-09-23T16:17:37.000Z</time>
      </trkpt>
      <trkpt lon="7.068347968161106" lat="46.605347944423556">
        <ele>744.5999755859375</ele>
        <time>2011-09-23T16:17:46.000Z</time>
      </trkpt>
      <trkpt lon="7.068023923784494" lat="46.6055959649384">
        <ele>745.4000244140625</ele>
        <time>2011-09-23T16:17:55.000Z</time>
      </trkpt>
      <trkpt lon="7.0676949340850115" lat="46.60585295408964">
        <ele>745.5999755859375</ele>
        <time>2011-09-23T16:18:03.000Z</time>
      </trkpt>
      <trkpt lon="7.067317999899387" lat="46.60613098181784">
        <ele>746.0</ele>
        <time>2011-09-23T16:18:12.000Z</time>
      </trkpt>
      <trkpt lon="7.066972916945815" lat="46.60638797096908">
        <ele>747.4000244140625</ele>
        <time>2011-09-23T16:18:21.000Z</time>
      </trkpt>
      <trkpt lon="7.066646944731474" lat="46.606634985655546">
        <ele>748.2000122070312</ele>
        <time>2011-09-23T16:18:30.000Z</time>
      </trkpt>
      <trkpt lon="7.066575950011611" lat="46.60668192431331">
        <ele>748.4000244140625</ele>
        <time>2011-09-23T16:18:32.000Z</time>
      </trkpt>
      <trkpt lon="7.0664179511368275" lat="46.606650995090604">
        <ele>748.5999755859375</ele>
        <time>2011-09-23T16:18:36.000Z</time>
      </trkpt>
      <trkpt lon="7.066114945337176" lat="46.60649894736707">
        <ele>749.4000244140625</ele>
        <time>2011-09-23T16:18:43.000Z</time>
      </trkpt>
      <trkpt lon="7.065684953704476" lat="46.60627892240882">
        <ele>750.4000244140625</ele>
        <time>2011-09-23T16:18:53.000Z</time>
      </trkpt>
      <trkpt lon="7.065457971766591" lat="46.6061279643327">
        <ele>750.7999877929688</ele>
        <time>2011-09-23T16:18:59.000Z</time>
      </trkpt>
      <trkpt lon="7.065321933478117" lat="46.60601899959147">
        <ele>750.7999877929688</ele>
        <time>2011-09-23T16:19:03.000Z</time>
      </trkpt>
      <trkpt lon="7.065199976786971" lat="46.60604892298579">
        <ele>751.0</ele>
        <time>2011-09-23T16:19:07.000Z</time>
      </trkpt>
      <trkpt lon="7.064981963485479" lat="46.60622293129563">
        <ele>751.5999755859375</ele>
        <time>2011-09-23T16:19:14.000Z</time>
      </trkpt>
      <trkpt lon="7.064717933535576" lat="46.60642694681883">
        <ele>752.4000244140625</ele>
        <time>2011-09-23T16:19:22.000Z</time>
      </trkpt>
      <trkpt lon="7.064502937719226" lat="46.60660397261381">
        <ele>753.0</ele>
        <time>2011-09-23T16:19:28.000Z</time>
      </trkpt>
      <trkpt lon="7.064283918589354" lat="46.60677295178175">
        <ele>753.5999755859375</ele>
        <time>2011-09-23T16:19:35.000Z</time>
      </trkpt>
      <trkpt lon="7.064249971881509" lat="46.606784937903285">
        <ele>753.5999755859375</ele>
        <time>2011-09-23T16:19:37.000Z</time>
      </trkpt>
      <trkpt lon="7.064101947471499" lat="46.606761971488595">
        <ele>754.0</ele>
        <time>2011-09-23T16:19:42.000Z</time>
      </trkpt>
      <trkpt lon="7.0640509855002165" lat="46.60675199702382">
        <ele>754.0</ele>
        <time>2011-09-23T16:19:43.000Z</time>
      </trkpt>
      <trkpt lon="7.063765916973352" lat="46.60661998204887">
        <ele>754.2000122070312</ele>
        <time>2011-09-23T16:19:48.000Z</time>
      </trkpt>
      <trkpt lon="7.063203994184732" lat="46.60632292740047">
        <ele>755.2000122070312</ele>
        <time>2011-09-23T16:19:58.000Z</time>
      </trkpt>
      <trkpt lon="7.063055969774723" lat="46.606246987357736">
        <ele>755.5999755859375</ele>
        <time>2011-09-23T16:20:01.000Z</time>
      </trkpt>
      <trkpt lon="7.062959996983409" lat="46.60619392991066">
        <ele>756.0</ele>
        <time>2011-09-23T16:20:03.000Z</time>
      </trkpt>
      <trkpt lon="7.062846925109625" lat="46.60610198043287">
        <ele>756.4000244140625</ele>
        <time>2011-09-23T16:20:07.000Z</time>
      </trkpt>
      <trkpt lon="7.062630923464894" lat="46.60618697293103">
        <ele>757.0</ele>
        <time>2011-09-23T16:20:10.000Z</time>
      </trkpt>
      <trkpt lon="7.062302939593792" lat="46.606356957927346">
        <ele>758.4000244140625</ele>
        <time>2011-09-23T16:20:18.000Z</time>
      </trkpt>
      <trkpt lon="7.062051985412836" lat="46.60660891793668">
        <ele>759.2000122070312</ele>
        <time>2011-09-23T16:20:26.000Z</time>
      </trkpt>
      <trkpt lon="7.061923993751407" lat="46.60678795538843">
        <ele>760.5999755859375</ele>
        <time>2011-09-23T16:20:32.000Z</time>
      </trkpt>
      <trkpt lon="7.061705980449915" lat="46.607000939548016">
        <ele>761.5999755859375</ele>
        <time>2011-09-23T16:20:41.000Z</time>
      </trkpt>
      <trkpt lon="7.061465922743082" lat="46.60711199976504">
        <ele>762.0</ele>
        <time>2011-09-23T16:20:46.000Z</time>
      </trkpt>
      <trkpt lon="7.061247993260622" lat="46.60741299390793">
        <ele>762.4000244140625</ele>
        <time>2011-09-23T16:20:55.000Z</time>
      </trkpt>
      <trkpt lon="7.0610119588673115" lat="46.60778095945716">
        <ele>763.0</ele>
        <time>2011-09-23T16:21:05.000Z</time>
      </trkpt>
      <trkpt lon="7.060944987460971" lat="46.6078479308635">
        <ele>763.2000122070312</ele>
        <time>2011-09-23T16:21:07.000Z</time>
      </trkpt>
      <trkpt lon="7.060656985267997" lat="46.608010958880186">
        <ele>764.2000122070312</ele>
        <time>2011-09-23T16:21:14.000Z</time>
      </trkpt>
      <trkpt lon="7.0606429874897" lat="46.60832393914461">
        <ele>764.4000244140625</ele>
        <time>2011-09-23T16:21:20.000Z</time>
      </trkpt>
      <trkpt lon="7.060403935611248" lat="46.60867799073458">
        <ele>764.0</ele>
        <time>2011-09-23T16:21:28.000Z</time>
      </trkpt>
      <trkpt lon="7.060181982815266" lat="46.60901091992855">
        <ele>764.7999877929688</ele>
        <time>2011-09-23T16:21:36.000Z</time>
      </trkpt>
      <trkpt lon="7.059942930936813" lat="46.60939397290349">
        <ele>765.4000244140625</ele>
        <time>2011-09-23T16:21:45.000Z</time>
      </trkpt>
      <trkpt lon="7.059825919568539" lat="46.609558928757906">
        <ele>765.4000244140625</ele>
        <time>2011-09-23T16:21:50.000Z</time>
      </trkpt>
      <trkpt lon="7.059797924011946" lat="46.609598994255066">
        <ele>765.4000244140625</ele>
        <time>2011-09-23T16:21:54.000Z</time>
      </trkpt>
      <trkpt lon="7.0597349759191275" lat="46.609684992581606">
        <ele>765.4000244140625</ele>
        <time>2011-09-23T16:22:06.000Z</time>
      </trkpt>
      <trkpt lon="7.059609917923808" lat="46.60985799506307">
        <ele>765.7999877929688</ele>
        <time>2011-09-23T16:22:12.000Z</time>
      </trkpt>
      <trkpt lon="7.059558955952525" lat="46.60992898978293">
        <ele>766.0</ele>
        <time>2011-09-23T16:22:14.000Z</time>
      </trkpt>
      <trkpt lon="7.0595049764961" lat="46.6100029181689">
        <ele>766.0</ele>
        <time>2011-09-23T16:22:16.000Z</time>
      </trkpt>
      <trkpt lon="7.059229966253042" lat="46.6103879828006">
        <ele>766.4000244140625</ele>
        <time>2011-09-23T16:22:26.000Z</time>
      </trkpt>
      <trkpt lon="7.059006923809648" lat="46.610672967508435">
        <ele>767.4000244140625</ele>
        <time>2011-09-23T16:22:34.000Z</time>
      </trkpt>
      <trkpt lon="7.058909945189953" lat="46.610781932249665">
        <ele>768.4000244140625</ele>
        <time>2011-09-23T16:22:39.000Z</time>
      </trkpt>
      <trkpt lon="7.05868698656559" lat="46.610777992755175">
        <ele>769.0</ele>
        <time>2011-09-23T16:22:46.000Z</time>
      </trkpt>
      <trkpt lon="7.058498980477452" lat="46.61076399497688">
        <ele>769.4000244140625</ele>
        <time>2011-09-23T16:22:50.000Z</time>
      </trkpt>
      <trkpt lon="7.0581449288874865" lat="46.61079492419958">
        <ele>770.0</ele>
        <time>2011-09-23T16:22:56.000Z</time>
      </trkpt>
      <trkpt lon="7.057975949719548" lat="46.61081898026168">
        <ele>770.5999755859375</ele>
        <time>2011-09-23T16:22:59.000Z</time>
      </trkpt>
      <trkpt lon="7.057550987228751" lat="46.610909923911095">
        <ele>772.0</ele>
        <time>2011-09-23T16:23:06.000Z</time>
      </trkpt>
      <trkpt lon="7.0574919786304235" lat="46.61092693917453">
        <ele>772.2000122070312</ele>
        <time>2011-09-23T16:23:07.000Z</time>
      </trkpt>
      <trkpt lon="7.057101968675852" lat="46.611038921400905">
        <ele>773.5999755859375</ele>
        <time>2011-09-23T16:23:14.000Z</time>
      </trkpt>
      <trkpt lon="7.056766944006085" lat="46.611170936375856">
        <ele>774.7999877929688</ele>
        <time>2011-09-23T16:23:21.000Z</time>
      </trkpt>
      <trkpt lon="7.056383974850178" lat="46.61140998825431">
        <ele>775.7999877929688</ele>
        <time>2011-09-23T16:23:30.000Z</time>
      </trkpt>
      <trkpt lon="7.056033946573734" lat="46.61167494021356">
        <ele>777.0</ele>
        <time>2011-09-23T16:23:39.000Z</time>
      </trkpt>
      <trkpt lon="7.055756924673915" lat="46.611898988485336">
        <ele>777.5999755859375</ele>
        <time>2011-09-23T16:23:46.000Z</time>
      </trkpt>
      <trkpt lon="7.05546498298645" lat="46.61198699846864">
        <ele>777.2000122070312</ele>
        <time>2011-09-23T16:23:51.000Z</time>
      </trkpt>
      <trkpt lon="7.055392982438207" lat="46.61198699846864">
        <ele>777.2000122070312</ele>
        <time>2011-09-23T16:23:52.000Z</time>
      </trkpt>
      <trkpt lon="7.0546939317137" lat="46.61196897737682">
        <ele>777.2000122070312</ele>
        <time>2011-09-23T16:24:01.000Z</time>
      </trkpt>
      <trkpt lon="7.05447499640286" lat="46.611941987648606">
        <ele>777.4000244140625</ele>
        <time>2011-09-23T16:24:05.000Z</time>
      </trkpt>
      <trkpt lon="7.0544809475541115" lat="46.61216796375811">
        <ele>777.0</ele>
        <time>2011-09-23T16:24:08.000Z</time>
      </trkpt>
      <trkpt lon="7.0547129586339" lat="46.61270298063755">
        <ele>775.4000244140625</ele>
        <time>2011-09-23T16:24:16.000Z</time>
      </trkpt>
      <trkpt lon="7.054742965847254" lat="46.61276794038713">
        <ele>775.2000122070312</ele>
        <time>2011-09-23T16:24:17.000Z</time>
      </trkpt>
      <trkpt lon="7.05482192337513" lat="46.612886963412166">
        <ele>774.7999877929688</ele>
        <time>2011-09-23T16:24:19.000Z</time>
      </trkpt>
      <trkpt lon="7.05501395277679" lat="46.61316096782684">
        <ele>774.2000122070312</ele>
        <time>2011-09-23T16:24:24.000Z</time>
      </trkpt>
      <trkpt lon="7.055138926953077" lat="46.61323799751699">
        <ele>773.5999755859375</ele>
        <time>2011-09-23T16:24:27.000Z</time>
      </trkpt>
      <trkpt lon="7.055257949978113" lat="46.61337194032967">
        <ele>774.0</ele>
        <time>2011-09-23T16:24:30.000Z</time>
      </trkpt>
      <trkpt lon="7.055547963827848" lat="46.6137919574976">
        <ele>775.2000122070312</ele>
        <time>2011-09-23T16:24:38.000Z</time>
      </trkpt>
      <trkpt lon="7.055854992941022" lat="46.61427198909223">
        <ele>775.0</ele>
        <time>2011-09-23T16:24:48.000Z</time>
      </trkpt>
      <trkpt lon="7.055923976004124" lat="46.614386988803744">
        <ele>774.7999877929688</ele>
        <time>2011-09-23T16:24:51.000Z</time>
      </trkpt>
      <trkpt lon="7.055925987660885" lat="46.614389922469854">
        <ele>774.5999755859375</ele>
        <time>2011-09-23T16:24:53.000Z</time>
      </trkpt>
      <trkpt lon="7.055925987660885" lat="46.614389922469854">
        <ele>773.7999877929688</ele>
        <time>2011-09-23T16:24:58.000Z</time>
      </trkpt>
      <trkpt lon="7.056478941813111" lat="46.61390494555235">
        <ele>773.4000244140625</ele>
        <time>2011-09-23T16:25:01.000Z</time>
      </trkpt>
      <trkpt lon="7.056541973724961" lat="46.61388399079442">
        <ele>773.0</ele>
        <time>2011-09-23T16:25:02.000Z</time>
      </trkpt>
      <trkpt lon="7.0566529501229525" lat="46.6138469427824">
        <ele>772.5999755859375</ele>
        <time>2011-09-23T16:25:04.000Z</time>
      </trkpt>
      <trkpt lon="7.056726962327957" lat="46.61382297053933">
        <ele>772.2000122070312</ele>
        <time>2011-09-23T16:25:10.000Z</time>
      </trkpt>
    </trkseg>
  </trk>
</gpx>
